GFSCGP_con_mucape_000.txt.gz
CAPE
0 0 0 0 0 0 0 0 26 18 92 247 381 938 537 533 649 523 542 1200 1219 1317 1447 1815 2164 2318 2375 2475 2674 2873 2973 2996 2877 2856 2722 2630 2588 2477 2464 2336 2318 2442 2360 2475
0 0 0 0 0 0 0 0 0 26 125 253 804 910 906 652 329 587 587 1001 1103 1326 1426 1920 2026 2245 2334 2535 2697 2938 3123 3240 3296 2906 2834 2647 2362 1841 1988 2358 2249 1954 1658 1697
0 0 0 0 0 0 0 0 0 7 285 338 814 917 1414 1036 956 722 990 995 1375 1519 1614 1793 1910 2118 2188 2415 2847 2983 3181 3181 3442 3164 2306 1570 999 1430 825 853 672 1043 1213 1069
0 0 0 0 0 0 0 0 0 0 341 123 479 132 1425 1307 1345 1196 957 1428 1462 1662 1760 1725 1701 2061 2045 2342 2742 3656 3851 3501 2460 1503 925 982 228 340 515 443 370 752 547 791
0 0 0 0 0 0 1 1 27 70 265 267 706 302 138 1047 1255 1179 1189 1074 1179 1473 1689 1650 1396 1601 1873 2755 3121 2895 2355 1731 1180 1053 597 182 217 63 179 155 201 394 381 477
0 0 0 0 0 0 3 60 83 103 67 75 48 118 21 142 680 748 1096 1287 1367 1355 1506 1724 1556 1815 2457 2275 1960 1288 1374 1136 901 432 358 385 312 169 54 89 183 46 86 161
0 0 0 0 0 0 0 0 10 14 18 13 20 15 4 18 417 487 760 1306 1496 1315 1375 1581 2020 2306 2054 2026 1131 750 1049 1132 841 83 36 83 110 152 154 207 1 111 7 11
0 0 0 0 0 0 0 0 2 0 0 4 36 0 0 188 206 173 529 1018 1354 1245 1131 1453 2173 1987 1980 1547 863 672 1010 915 308 172 325 296 225 4 16 22 81 3 3 6
0 0 0 0 0 0 0 0 0 3 0 0 5 0 16 131 170 194 592 953 1414 912 1012 1435 1832 1744 1622 877 836 876 973 771 351 215 492 436 357 302 104 180 246 20 112 1
0 0 0 0 0 0 3 3 3 6 0 5 6 0 4 0 2 197 341 862 1505 811 928 1322 1471 1486 950 670 762 790 868 760 417 342 335 60 78 159 126 125 172 197 231 211
0 0 0 0 0 0 0 4 5 19 5 15 14 14 8 0 0 20 400 882 1387 831 669 1118 1416 1507 674 619 606 699 724 597 434 403 235 146 83 54 11 24 158 251 274 358
0 0 0 0 0 0 6 12 26 47 88 30 1 1 0 0 11 19 80 833 1151 1346 402 374 1234 1373 602 659 357 413 435 389 232 194 137 65 63 103 45 52 125 190 224 369
0 0 0 9 0 0 0 10 29 45 58 47 26 46 85 43 95 134 142 620 1204 1533 777 327 768 960 682 668 514 333 354 43 0 50 40 45 95 80 87 101 62 129 288 409
0 0 0 0 0 0 0 9 26 40 64 66 60 18 32 43 53 37 222 560 932 1320 1059 649 663 704 755 697 775 691 377 32 15 12 0 37 235 169 99 103 206 257 466 621
0 0 0 0 1 3 11 15 21 45 42 53 48 60 40 8 2 41 20 92 694 812 955 960 774 711 897 861 870 732 457 242 214 86 121 96 263 360 169 415 552 566 516 481
51 90 61 0 0 1 4 7 11 28 43 55 43 24 0 0 0 0 0 14 326 748 866 962 876 832 930 897 812 484 462 164 408 491 258 261 449 646 773 565 624 599 475 430
172 195 226 78 16 19 33 25 22 40 46 31 17 6 0 0 0 0 11 37 134 435 806 826 912 960 962 761 321 290 322 216 502 647 444 430 736 777 775 361 535 578 632 669
336 340 218 218 149 80 73 40 15 45 37 3 2 0 0 0 0 60 44 53 71 193 657 838 848 935 838 321 32 245 101 387 657 726 631 599 728 808 772 490 414 553 705 635
201 347 203 239 206 92 50 12 6 35 57 11 17 0 0 0 62 44 34 37 177 346 692 871 889 810 540 211 125 241 430 427 490 549 644 587 718 795 837 729 679 735 671 427
110 310 261 173 98 100 147 87 17 28 54 0 0 0 0 11 1 141 377 126 342 501 794 919 735 462 421 471 267 562 656 694 553 473 498 364 622 887 801 769 716 670 635 476
181 244 94 97 96 61 155 32 2 11 73 0 0 0 0 121 102 618 473 387 465 592 719 799 607 419 560 781 781 937 763 799 701 500 307 362 918 1295 1237 828 786 723 866 799
301 277 171 150 160 142 24 0 10 320 25 1 16 18 55 316 633 513 648 684 619 604 593 713 650 614 771 1106 1312 1331 1467 1738 1144 767 718 1125 1431 1309 540 1186 887 662 907 1089
146 210 332 199 358 185 4 52 7 13 84 228 301 392 373 559 515 541 736 772 686 670 604 554 696 1058 1266 1268 1513 1520 1774 1672 1398 1635 1330 1336 894 866 1243 1241 1104 749 653 502
0 0 38 93 190 13 0 0 4 20 88 146 139 162 430 713 434 528 720 773 742 748 747 724 797 877 928 953 1197 1493 1566 1653 1275 1145 1012 1259 1145 1123 1212 964 677 578 374 645
32 0 10 19 38 0 3 0 0 0 0 8 34 130 465 536 361 277 260 317 364 494 526 565 612 679 774 1017 1133 1031 983 793 811 812 907 959 825 831 820 1005 416 414 69 116
0 13 9 11 0 0 1 0 0 0 1 2 174 245 267 257 137 95 129 308 399 625 605 647 695 679 699 591 627 715 769 819 883 824 690 525 501 435 307 356 126 3 11 5

GFSCGP_con_mucape_003.txt.gz
CAPE
0 0 0 0 0 2 19 1 27 32 29 74 105 151 505 590 365 364 613 925 818 850 918 1144 1385 1673 1948 2218 2668 2785 2963 3422 3314 3177 3094 3571 2711 3061 2549 3054 2537 2265 2457 2284
0 0 0 0 0 0 0 0 22 25 43 31 40 314 199 323 413 311 338 567 544 601 742 1229 1510 1705 1825 2088 2387 2806 3002 3526 3441 3187 3230 3237 2746 1774 1444 1770 1978 2103 1513 1952
0 0 0 0 0 0 0 0 1 19 16 7 93 106 409 186 250 321 241 331 407 527 530 865 1288 1415 1484 2084 2655 2875 3153 3324 3700 3595 3351 2464 2056 1953 1029 697 676 991 866 645
0 0 0 0 0 0 0 0 0 2 37 54 8 67 484 599 194 130 308 323 371 410 372 422 649 948 1093 1682 2345 3003 3422 3762 2941 1998 1253 1265 576 188 589 230 150 492 282 464
0 0 0 0 0 0 3 0 0 0 10 25 48 67 291 29 670 430 161 329 510 557 542 532 276 688 849 1559 2092 2950 3257 2052 1430 948 545 170 135 0 0 0 84 457 933 383
0 0 0 0 0 0 0 0 1 6 22 67 101 50 117 540 940 868 500 160 276 575 617 746 589 780 1104 1691 2229 2582 1938 1614 1072 524 372 250 160 121 28 111 121 40 6 71
0 0 0 0 0 0 0 2 11 23 53 73 16 41 96 17 139 42 346 442 339 380 569 823 935 1218 1663 1789 2003 1436 1542 1436 1029 368 60 8 101 171 273 327 32 188 5 10
0 0 0 0 0 0 0 1 16 22 40 49 8 0 0 0 21 87 162 307 580 803 749 828 1188 1524 1936 1754 1642 825 1439 1543 975 289 403 449 407 47 45 68 199 35 6 6
0 0 0 0 0 0 0 0 1 3 7 8 25 29 7 24 17 68 92 207 840 947 1074 962 1181 1945 1759 1705 1301 889 1368 1489 733 306 861 727 510 409 332 338 355 86 200 73
10 9 0 0 0 0 3 0 0 1 0 35 30 18 17 44 2 0 54 140 372 1124 1318 1016 1080 1948 1623 1625 888 645 886 1047 678 485 584 102 30 187 320 296 324 335 340 328
0 3 5 0 0 0 0 1 14 27 36 51 41 46 21 6 0 3 7 25 289 938 1436 950 1153 1557 1553 1310 739 365 679 780 740 620 499 187 87 97 179 149 125 274 384 427
0 0 1 3 0 0 2 2 9 35 50 26 31 29 2 2 5 28 15 22 162 1185 1615 1104 1285 1441 1418 950 688 326 315 433 501 383 366 160 208 233 136 157 136 187 214 334
0 0 5 6 20 0 0 2 26 35 53 140 112 82 30 3 15 36 41 26 219 1067 1623 1265 1324 1575 1647 926 1233 371 177 172 210 292 335 223 300 334 385 384 213 159 136 311
0 0 0 2 3 25 4 1 3 15 107 114 133 104 93 71 60 33 32 42 123 737 1515 1412 1192 1641 2185 1499 1569 637 275 144 120 125 32 118 301 569 546 516 350 447 516 568
0 5 0 0 0 50 25 16 9 44 36 61 78 22 52 33 5 11 0 7 56 459 1185 1681 974 1432 2489 1748 1856 827 383 300 151 175 184 270 411 637 764 679 617 552 533 479
0 11 0 7 17 5 44 53 60 48 54 46 50 82 59 2 0 0 0 0 0 58 761 1454 1371 1110 1757 1447 1123 815 492 424 522 523 445 405 435 606 787 800 701 666 618 737
144 83 94 60 68 50 70 46 57 82 108 77 107 104 67 1 0 0 0 0 2 0 302 970 1504 1929 2097 1257 1503 832 606 554 495 718 721 624 688 901 945 659 573 581 830 1328
320 332 200 200 165 170 83 80 84 95 115 135 103 81 18 0 0 0 1 31 129 102 67 718 1246 1574 1423 1314 1077 779 451 1004 953 869 873 826 842 914 942 880 862 1101 1023 1367
76 362 323 279 190 196 127 119 70 120 169 170 106 50 26 0 0 0 1 116 335 428 457 671 1148 1405 1696 1340 1068 990 489 683 719 934 1011 1014 897 1010 1083 1097 1251 1320 1276 875
112 213 312 311 241 170 91 126 93 85 117 119 145 94 4 0 9 400 265 292 478 686 894 1080 1213 1371 1424 1219 214 795 705 985 993 1278 1002 951 905 998 1066 1333 1206 1216 1490 744
327 228 163 111 196 209 181 267 51 221 345 110 29 1 0 32 63 513 347 433 626 847 1185 1327 1341 1350 1997 1238 1062 1562 1452 1436 1462 962 882 1365 1162 1714 1409 1438 905 1315 1182 1236
439 276 137 146 259 260 322 181 214 545 226 148 98 71 24 45 77 197 481 570 698 990 1169 1261 1269 1279 1096 1468 1785 1673 2494 2307 1774 1722 1282 1519 1967 1083 523 1766 1580 1385 1321 1197
287 361 527 618 446 668 359 416 198 174 172 115 88 102 116 103 78 255 444 889 897 1011 1130 1130 1104 1364 1259 1443 1401 1813 2473 2118 1927 2196 2406 1939 1573 891 800 1647 1751 1085 1471 1176
225 204 234 449 518 246 60 76 109 109 132 119 143 199 282 245 370 537 760 1071 1136 1081 1040 967 1008 1034 1325 1548 1827 2107 2072 2001 2278 2383 1928 1926 2039 1712 1478 1633 1005 807 584 343
296 142 185 232 436 197 288 0 4 35 105 142 214 310 384 500 448 831 1110 1341 1260 1223 1165 1109 1095 1071 1236 1519 1525 1650 1836 2153 2023 1626 1259 1037 852 1194 1218 1271 560 417 110 48
168 187 146 369 22 82 95 0 2 21 89 130 211 496 693 888 991 915 1072 903 976 1036 810 1279 1276 659 1288 1304 1405 1363 1320 1348 1377 1188 1034 692 597 514 366 374 70 67 1 0

GFSCGP_con_mucape_006.txt.gz
CAPE
0 0 0 0 0 2 32 13 1 31 89 149 69 109 200 94 213 489 558 485 454 407 1056 1173 1747 1970 1976 2119 3423 2863 3155 4129 4307 3601 3059 3403 2957 3658 2943 3465 3163 3132 3097 2351
0 0 0 0 0 0 0 1 3 8 37 90 175 163 193 108 100 320 570 595 464 554 588 788 1000 894 1262 2688 3372 3828 4332 4411 4232 4382 4214 3687 3395 3417 3278 2782 3342 2719 2168 2378
0 0 0 0 0 0 0 0 0 9 24 5 53 151 73 116 139 141 217 458 480 522 536 964 1165 1200 1454 2237 3063 3632 4331 4243 4007 4188 4413 3956 3395 3328 2525 2564 1686 1654 1253 1505
0 0 0 0 0 0 0 0 0 0 12 14 0 3 177 112 55 120 89 159 236 339 542 687 981 1411 1534 2262 2772 3791 4279 4650 4461 3824 2842 2878 1591 907 2015 1709 1626 1096 1294 1383
0 0 0 0 0 0 0 0 0 0 0 0 1 3 169 172 66 60 68 97 126 194 295 431 594 959 1147 2007 2305 3482 4426 4190 3423 2774 1408 1503 1526 771 845 953 1127 1314 1427 1637
0 0 0 0 0 0 0 0 0 0 0 12 0 34 106 127 676 99 101 161 184 174 303 362 568 836 960 1637 2145 3276 3681 3281 2782 2097 1622 843 331 740 644 1178 921 838 919 949
0 0 0 0 0 0 0 0 8 6 9 0 5 21 136 120 72 268 392 147 169 295 526 695 572 761 1213 1759 2363 3146 2887 2807 2425 1738 1367 491 352 578 717 1138 1060 957 697 960
0 0 0 0 0 0 0 0 2 29 14 15 23 22 122 70 176 371 678 576 220 162 709 883 1233 1114 1689 2090 2852 2480 2537 2465 2141 1780 1506 1055 818 1053 1165 1737 1103 696 720 844
0 0 0 0 0 0 0 0 0 2 1 4 4 11 0 0 0 0 23 0 267 180 351 829 1258 1331 1951 2144 2535 2508 2498 2536 2142 1557 2332 1960 1784 1314 1065 845 935 816 1308 545
0 0 0 0 0 0 0 0 0 0 27 31 19 9 27 124 5 0 0 0 59 443 558 553 860 1570 2260 2209 2383 2171 2373 2557 1804 1684 1723 1625 1716 1566 1456 1146 980 1081 1336 1221
0 10 3 0 0 0 0 0 0 0 5 32 28 18 62 156 38 1 0 0 0 52 502 1164 1179 1877 2413 1944 1996 1512 1799 2084 1579 1476 1764 1511 702 824 1345 1072 1030 1119 1512 1471
0 2 17 0 0 0 0 3 11 10 63 36 80 2 2 0 0 0 0 0 0 133 448 1620 1415 2184 2253 2015 1711 1094 956 1266 1219 1295 1775 1573 1251 953 919 1066 951 1106 1289 1463
0 16 9 7 8 1 0 6 1 1 13 168 92 114 126 0 0 9 0 0 414 750 1416 2107 1707 1703 2249 2159 1891 1102 704 638 807 1190 926 1361 1363 1294 1393 1317 1295 1259 1282 1318
53 3 15 0 20 10 14 0 0 4 118 61 73 316 34 35 109 185 12 99 150 1092 1107 2227 2127 1982 2180 2225 1838 1424 709 375 544 589 842 1422 1510 1500 1346 1651 1776 1444 1607 1595
16 190 8 1 0 3 10 4 0 1 24 50 124 77 140 32 34 4 0 0 8 459 1130 2338 2102 2254 2438 2378 1829 1608 906 984 798 996 1112 1518 1799 1671 1756 1846 1649 1611 1735 1549
6 123 3 0 2 0 0 0 37 5 0 0 21 180 85 203 128 6 0 0 55 137 264 981 2347 2078 2946 2531 1956 1298 1066 1238 1501 616 1109 1648 1711 1654 1613 1927 2117 1964 2031 1852
231 26 136 22 0 0 39 5 8 68 69 22 135 246 413 135 4 0 0 2 83 231 320 563 1925 2031 3187 2341 1891 1381 1320 1356 1444 1404 1392 1536 1661 1685 1908 1887 1945 2056 1813 1955
414 665 251 113 277 204 1 69 62 66 43 20 119 116 190 36 0 0 0 20 8 268 330 605 1110 2079 2845 2081 1644 1727 1189 1271 1742 1703 1663 1655 1789 1809 2048 2032 2027 2206 2193 2194
86 438 266 322 154 54 104 182 219 96 191 153 208 189 196 21 0 273 205 5 44 324 931 1225 536 1360 2556 2024 1870 1868 1051 1277 1546 1588 1766 1799 1795 1919 2008 2139 1962 2180 1943 1948
26 175 280 153 303 215 317 285 99 111 119 192 125 146 151 23 3 448 602 218 191 276 723 1178 1386 1973 2569 2204 1964 1617 1102 1519 1425 1502 1823 1963 1986 2148 2129 2043 2018 1773 2105 1476
150 337 153 226 211 65 127 162 64 32 0 112 209 88 142 304 411 920 625 322 311 463 888 1351 1977 2429 2718 2355 1774 1212 1272 1609 1730 1726 1934 2087 2249 2551 2549 2614 2312 1917 1145 845
617 379 140 346 311 214 307 385 134 1061 369 115 130 364 225 33 55 225 317 823 661 906 1261 1624 2504 2658 2644 2560 2425 1537 1916 2470 3256 2696 2469 2674 2857 1904 1268 2350 1940 1521 1891 1383
350 446 494 619 487 350 465 772 399 211 492 57 116 57 62 54 68 79 356 813 928 1046 1512 1743 2220 3018 2646 2394 2888 3118 2873 2435 2741 3040 3266 3113 2953 2622 2486 2159 1780 1903 1250 1250
493 236 372 168 90 8 87 73 119 86 54 23 7 0 16 84 111 412 563 1175 1399 617 1523 1560 2356 2517 2449 3441 3308 3331 2872 2603 2412 3244 3433 3068 2714 2643 2439 1623 1762 958 1352 731
336 67 23 417 67 195 22 25 20 33 35 0 5 4 39 192 437 731 887 2024 1049 1513 994 642 986 902 706 612 696 615 1565 2033 3014 3238 2920 2872 2249 2136 1612 802 305 516 271 76
99 202 201 80 0 19 103 56 26 0 0 14 47 18 79 271 909 1326 2357 1538 1649 473 1495 694 1062 762 476 42 680 958 888 1765 2049 2212 1883 1593 1454 474 1290 180 75 68 57 29

GFSCGP_con_mucape_009.txt.gz
CAPE
0 0 0 0 0 0 0 0 8 0 14 11 46 298 412 385 378 332 664 763 834 1018 1086 1044 1045 1037 1469 1313 1390 1537 1851 2400 1914 2099 1741 1972 1330 1811 1742 1788 1991 1827 1680 1656
0 0 0 0 0 0 6 7 5 45 3 32 19 125 163 216 244 247 399 310 568 605 1251 1220 1158 912 1285 1316 1920 1781 2220 2424 2138 2254 2229 2328 2287 1973 2054 1956 2185 1733 1642 1608
0 0 0 0 0 0 0 0 28 62 71 63 57 82 114 98 86 209 349 298 293 541 1248 1354 1394 1219 1526 1883 2007 2158 2450 2363 2487 1982 2670 2376 2070 2100 1112 874 1449 1077 694 504
0 0 0 0 0 0 0 0 0 8 74 34 103 78 87 12 12 134 331 328 237 517 459 665 974 968 1944 1972 2365 2692 2398 2278 2510 2490 2472 1898 1383 132 453 330 177 91 421 210
0 0 0 0 0 0 0 0 0 0 0 14 68 10 56 41 17 76 193 330 265 304 249 504 434 612 1520 1958 2120 2731 2329 2735 2503 2457 749 138 2 0 65 37 0 0 1 209
0 0 0 0 0 0 0 0 0 0 0 0 0 0 47 9 62 67 75 115 221 225 308 418 630 697 1257 1677 2368 2735 2989 2558 2250 1334 32 0 0 0 0 9 0 24 1 126
0 0 0 0 0 0 0 0 0 0 0 0 0 0 13 66 59 17 27 23 52 105 327 405 554 731 1300 1741 2274 2845 2522 2246 1034 121 113 0 0 0 0 0 44 39 0 146
0 0 0 0 0 0 0 0 0 0 0 0 0 0 4 121 105 70 37 35 39 69 94 264 384 532 1227 1642 2417 2500 2485 2143 613 454 82 0 0 0 14 389 124 0 0 20
0 0 0 0 0 0 0 0 0 0 0 5 8 4 35 73 81 78 175 76 50 22 84 88 231 315 1079 1562 2428 2389 2250 1302 750 482 52 22 34 30 178 45 1 1 199 0
0 0 0 0 0 0 0 0 0 0 0 0 1 31 20 19 56 100 142 154 121 86 80 146 189 504 1106 1769 2086 2063 1753 1044 895 564 351 349 335 206 115 86 10 24 0 87
0 0 0 0 0 0 0 0 0 0 0 0 12 10 90 20 0 0 0 46 128 213 305 577 563 774 1272 1754 1821 1606 1349 1070 900 604 476 491 639 387 205 133 28 35 116 354
0 0 0 0 0 0 0 0 0 0 0 17 22 25 0 2 0 0 0 0 0 153 158 291 330 862 1351 1651 1441 1231 1262 1038 691 757 538 583 13 8 151 77 30 24 69 116
0 0 0 2 0 0 0 0 0 12 0 0 34 21 11 0 0 0 0 0 1 1 573 261 291 449 1458 1462 1238 1136 1230 1081 819 384 738 257 127 23 38 106 52 54 61 53
0 0 0 0 1 0 0 0 0 0 0 0 15 90 30 28 7 2 0 1 123 55 1357 819 1167 1210 1293 1386 1332 1413 1415 1131 864 526 453 291 176 109 151 180 196 208 203 143
0 0 0 0 0 0 0 0 0 0 0 0 36 126 15 25 3 0 0 0 0 85 582 1418 1517 1757 1516 1399 1436 1493 1366 1142 961 585 404 249 182 211 300 331 433 465 197 373
0 10 3 0 0 4 6 0 0 2 0 0 0 168 34 79 25 1 0 0 0 1 0 477 1712 1545 1643 1522 1460 1438 1317 1111 648 437 330 362 359 329 361 317 399 374 244 353
29 76 13 0 0 0 0 0 0 0 5 3 5 62 150 52 16 0 0 0 0 0 34 31 154 1590 1582 1548 1528 1348 1158 603 576 290 265 216 266 282 368 460 585 842 706 721
272 409 36 9 32 0 0 0 17 29 52 43 58 97 79 32 6 0 0 0 0 0 10 31 115 1735 1950 1671 1565 1373 1066 562 473 422 390 283 400 495 532 636 673 682 741 353
218 176 235 116 7 3 31 3 192 220 78 89 159 228 39 0 112 133 61 0 0 198 303 337 319 2037 2215 1935 1757 1615 1328 843 656 576 411 542 524 505 652 880 893 774 802 604
259 226 119 126 96 160 12 178 171 291 260 111 90 143 248 33 229 152 92 155 190 222 350 439 546 1676 2086 2036 1923 1849 1375 1112 799 662 609 811 788 830 952 1024 1111 1075 721 556
85 92 108 78 69 3 86 219 125 42 33 95 57 26 61 275 318 362 186 267 260 257 496 774 838 2081 2026 1694 1690 1606 1220 961 766 690 975 1118 1153 1146 1131 1149 1147 950 898 687
244 288 80 92 36 9 168 444 561 373 238 260 296 196 34 20 1 19 0 414 319 360 736 909 1864 2173 1809 1513 1433 1259 1023 965 887 1005 1146 1402 1486 1374 1349 1364 1236 1020 733 408
288 110 632 770 442 101 23 256 248 140 70 53 60 36 31 42 25 6 5 0 229 547 850 1209 1948 1972 1761 1424 1213 812 668 658 1171 1576 1582 1783 1806 1749 1457 1316 985 664 451 261
209 61 180 476 186 92 50 143 175 170 131 117 100 95 70 46 42 47 117 220 945 1290 1297 1681 1574 1362 1161 960 918 914 587 276 41 517 1368 1131 1534 1572 1234 767 535 494 415 297
115 145 195 246 115 109 20 9 40 3 3 6 12 21 45 100 516 930 846 1240 1003 1203 1102 1138 991 507 389 393 635 477 364 36 1 5 21 697 1306 1063 722 578 532 347 137 24
152 111 188 0 131 109 12 12 0 0 0 0 0 0 44 125 903 1245 1357 1159 936 827 863 709 471 398 139 325 292 232 54 0 5 10 370 772 817 806 499 429 253 212 86 75

GFSCGP_con_mucape_012.txt.gz
CAPE
0 0 0 0 0 0 0 3 0 4 20 143 167 355 370 374 430 514 584 570 569 578 470 431 577 402 531 627 659 791 1378 1752 1900 1704 1731 1885 2124 1694 1379 1237 1340 1514 1322 1241
0 0 0 0 0 0 0 0 3 22 18 35 264 295 290 360 461 592 607 627 647 678 576 591 727 737 833 761 664 1033 1268 1897 1925 1730 1627 1547 1430 1278 1302 1516 1524 1585 1286 1167
0 0 0 0 0 0 1 1 16 32 29 42 194 238 280 286 439 609 608 673 694 749 762 882 707 823 907 858 1117 1079 1642 1796 1840 1553 1583 1895 1972 1841 1572 999 1373 1407 845 409
0 0 0 0 0 0 0 0 6 37 50 35 88 54 166 252 268 313 300 713 814 837 885 944 858 687 1001 1096 1363 1499 1990 1818 1826 1822 1999 2132 1131 922 234 573 173 73 22 1
0 0 0 0 0 0 0 0 0 57 70 68 41 49 44 87 104 159 194 388 427 831 933 992 930 774 1126 1386 1663 1619 1805 1847 1893 1782 1739 2200 1635 52 130 8 0 0 0 3
0 0 0 0 0 0 0 0 0 28 79 47 36 15 21 61 113 73 105 232 297 609 934 1060 1083 855 1254 1443 1742 1867 1729 1586 1876 2142 2284 1103 67 0 0 0 0 0 0 97
0 0 0 0 0 0 0 0 0 0 0 0 0 64 6 7 63 80 45 116 285 315 642 949 1017 1064 1415 1499 1715 1995 1657 1601 1820 2256 1503 2 0 0 0 0 0 0 9 45
0 0 0 0 0 0 0 0 0 0 0 0 0 0 0 3 31 34 38 86 228 342 370 510 520 514 1387 1422 1531 2082 1720 1697 2393 2249 1670 0 0 0 0 0 0 0 0 0
0 0 0 0 0 0 0 0 0 0 0 0 0 0 0 3 18 31 23 46 200 283 295 377 311 377 1111 1400 1556 1832 1790 1838 1804 1519 0 0 0 0 1 55 67 0 0 0
0 0 0 0 0 0 0 0 0 0 0 0 0 0 0 46 37 50 36 19 76 188 255 270 303 453 1026 1457 1667 1899 1519 1658 1627 802 202 29 0 0 42 14 8 0 1 0
0 0 0 0 0 0 0 0 0 0 0 0 0 0 5 60 60 61 71 87 30 19 129 276 324 427 927 1259 1788 1885 1631 1744 1672 470 247 92 76 25 22 19 0 0 0 3
0 0 0 0 0 0 0 0 0 0 0 0 0 0 0 30 35 72 95 110 187 82 61 133 222 370 744 1163 1934 1768 1680 1809 1791 562 353 356 161 194 127 80 43 5 7 46
0 0 0 0 0 0 0 0 0 0 0 0 0 0 0 1 2 11 4 26 72 131 112 97 164 232 646 1079 1737 1741 1670 1913 1543 595 513 441 285 382 255 90 51 13 16 4
0 0 0 0 0 0 0 0 0 0 0 0 0 7 7 0 0 0 0 10 77 84 120 397 399 316 720 1225 1647 1666 1587 1800 1463 1176 945 619 405 123 19 85 65 8 15 2
0 0 0 0 0 0 0 0 0 0 0 0 0 18 12 5 0 0 0 0 0 65 86 341 429 442 859 1280 1462 1483 1507 1615 1464 1265 1173 910 353 185 64 33 48 31 36 67
0 0 0 3 0 0 0 0 1 0 0 1 0 5 35 9 0 0 0 1 2 18 245 633 279 227 254 1234 1473 1432 1428 1455 1342 1313 1200 795 376 280 96 81 102 149 191 300
0 0 2 15 3 0 9 0 0 2 0 1 0 0 110 14 7 7 5 0 0 1 3 5 888 1093 991 996 1389 1331 1409 1377 1436 1403 1100 529 426 346 210 146 204 281 308 324
43 0 9 26 17 27 0 0 8 23 16 5 2 0 7 58 110 93 22 4 9 2 0 1 0 558 1325 1444 1433 1453 1466 1412 1401 1186 726 487 420 354 280 180 244 273 366 485
166 32 23 4 8 15 3 49 35 23 11 78 51 41 80 76 105 77 45 30 15 3 0 0 39 104 1193 1526 1547 1606 1665 1585 1546 1190 567 450 494 368 249 238 323 418 517 680
106 97 43 105 25 9 49 145 150 101 84 54 153 168 83 82 47 54 27 16 6 84 64 75 130 420 1674 1688 1818 1811 1831 1795 1589 1086 786 486 409 278 237 328 493 632 658 660
185 148 80 100 38 8 83 156 172 172 159 83 59 88 77 79 79 164 105 102 84 103 141 285 622 1175 1761 1802 1776 1870 1910 1685 1195 1124 643 365 375 362 394 538 678 758 743 667
137 286 184 82 109 76 72 230 167 57 95 118 85 93 201 345 358 234 101 146 213 225 266 517 1274 1469 1630 1813 1799 1849 1628 1219 961 525 281 535 533 683 668 774 837 780 639 656
71 62 156 177 64 49 68 156 161 80 103 76 68 94 82 82 128 55 25 36 57 413 970 1274 1297 1473 1619 1772 1823 1728 1387 1037 816 555 445 452 195 294 362 845 1114 748 594 502
52 105 4 37 50 80 65 213 177 164 159 75 59 50 66 44 123 380 299 129 824 925 1099 1413 1556 1656 1687 1804 1630 1533 1113 970 622 445 144 28 11 32 20 120 838 823 557 278
131 108 109 24 1 6 56 23 89 154 194 119 70 22 13 26 458 1101 932 999 981 1083 1347 1627 1745 1694 1526 1211 1109 932 784 569 456 93 37 5 24 166 386 458 525 487 307 107
100 151 120 59 3 10 36 63 112 78 64 42 5 4 1 1 12 1280 1127 1203 1173 1407 1541 1692 1492 891 775 697 622 511 554 598 385 208 15 0 4 285 575 472 413 296 202 50

GFSCGP_con_mucape_018.txt.gz
CAPE
0 0 0 0 0 0 10 42 33 45 53 104 200 168 151 197 258 361 545 676 764 708 649 737 819 941 845 797 792 916 1084 1244 1319 1119 1186 1291 1384 1452 1442 1435 1450 1294 1207 1080
0 0 0 0 0 0 0 17 16 44 30 83 133 164 105 176 188 161 182 175 266 481 492 348 633 782 557 733 787 873 1068 1181 1218 1193 1184 1269 1336 1298 1545 1370 1172 1123 1246 1200
0 0 0 0 0 0 0 0 0 25 38 58 79 120 139 134 187 150 136 86 101 140 165 140 185 429 441 598 674 793 1021 1074 1198 1156 1088 1252 1209 1131 1108 1039 1234 1298 1319 1035
0 0 0 0 0 0 0 0 0 0 12 5 92 22 122 81 161 168 160 132 98 102 127 194 199 237 383 395 527 825 900 967 973 977 1118 1324 1335 1211 1272 966 610 1151 1147 1056
0 0 0 0 0 0 0 0 0 0 14 35 65 28 35 89 76 141 148 142 132 181 293 290 279 272 260 373 377 559 756 864 954 1094 1305 1421 1397 1107 732 487 385 693 639 98
0 0 0 0 0 0 0 0 8 6 12 8 3 13 0 14 149 135 163 174 192 237 348 400 380 374 315 303 437 280 323 540 782 1054 1252 1485 1446 1260 872 481 246 382 102 0
0 0 0 0 0 0 0 9 16 3 3 0 0 8 17 17 92 118 148 199 229 276 354 453 499 473 451 360 546 395 412 542 785 1038 1295 1575 1450 1382 1075 625 92 0 0 0
0 0 0 0 0 0 0 0 0 0 0 0 0 0 16 37 44 62 105 141 181 247 357 452 528 584 558 498 655 437 601 682 862 1117 1379 1522 1591 1410 1309 541 0 0 0 0
0 0 0 0 0 0 0 0 0 2 0 0 0 0 0 0 13 8 18 66 131 153 287 408 542 596 633 629 695 503 668 794 930 1144 1343 1478 1437 1438 951 1 0 0 0 0
0 0 0 0 0 0 0 0 0 4 0 0 0 0 0 0 0 0 0 4 80 121 200 367 500 527 649 703 702 735 710 857 920 1064 1258 1420 1336 1390 44 2 0 0 0 0
0 0 0 0 0 0 0 0 0 0 0 0 0 0 0 0 0 0 0 0 29 99 130 309 595 660 694 817 755 878 889 1000 994 983 1064 1158 1317 888 0 28 11 0 0 0
0 0 0 0 0 0 0 0 0 0 0 0 0 0 0 0 0 0 0 22 14 44 98 181 604 782 867 915 852 925 981 1197 1164 1069 1024 1027 1296 964 0 13 16 0 0 1
0 0 0 0 0 0 0 0 0 0 0 0 0 0 0 0 0 0 0 25 2 29 63 106 385 700 906 927 934 997 1093 1342 1311 1228 1173 1063 1232 906 143 14 41 37 23 0
35 0 0 0 0 0 0 0 0 0 0 0 0 0 0 0 0 0 2 8 10 19 47 82 228 413 668 788 899 1144 1261 1341 1372 1293 1300 1321 1170 678 36 12 14 31 23 0
47 0 0 0 0 0 0 0 0 0 0 0 0 0 0 0 0 0 1 18 15 22 63 85 196 283 367 487 601 799 1203 1347 1363 1313 1266 1345 1293 859 394 113 58 31 10 15
86 0 0 0 0 0 0 0 0 0 0 0 0 0 0 0 0 0 0 0 50 71 131 145 156 246 342 407 529 661 1117 1368 1336 1320 1262 1211 1255 1038 615 234 1 0 0 91
102 24 0 0 0 0 0 0 0 0 0 0 0 0 0 0 0 0 4 14 75 114 169 187 193 217 240 345 495 788 1179 1379 1361 1319 1299 1286 1243 1056 832 341 50 47 50 223
85 53 10 0 0 0 0 0 0 0 0 0 0 0 0 0 0 0 12 36 137 196 247 215 189 191 186 256 514 689 1052 1317 1354 1344 1293 1284 1280 1237 978 532 294 83 32 33
21 78 54 0 0 0 0 0 0 0 0 13 5 0 0 0 0 0 0 18 58 81 49 70 86 180 256 319 436 756 983 1203 1267 1267 1251 1228 1238 1186 1014 565 345 170 18 11
61 46 67 76 0 0 0 0 1 3 41 13 12 8 5 0 0 1 0 4 16 36 30 80 181 254 313 403 565 501 801 1003 1101 1138 1157 1170 1222 1211 964 675 358 242 23 58
20 59 66 69 51 15 1 18 27 40 36 19 11 16 17 33 18 5 0 2 21 29 36 81 132 179 302 519 687 820 869 891 949 1061 1195 1231 1171 999 871 784 520 220 72 193
4 98 89 45 80 122 93 118 74 40 77 3 44 46 59 29 35 10 24 43 115 194 254 365 448 498 687 803 806 770 999 1041 1051 1232 1260 1155 1034 980 866 646 590 302 321 215
30 77 58 86 25 41 139 126 128 91 112 61 68 68 84 175 251 291 260 297 239 244 206 311 397 481 586 767 872 877 880 1078 1320 1332 1236 1144 979 871 709 396 306 321 101 2
137 37 15 22 54 142 155 143 131 106 126 71 109 112 125 126 123 216 313 360 303 326 374 471 523 593 719 826 1032 1236 1439 1338 1276 1196 1036 956 760 817 375 133 216 95 1 6
143 140 69 18 18 60 147 212 185 139 134 151 152 126 107 97 102 121 258 466 452 427 560 675 827 981 1092 1080 1257 1188 1142 1028 927 896 762 653 622 426 360 286 0 0 3 16
164 186 32 11 12 17 12 36 32 54 113 78 176 194 180 151 77 37 336 473 663 813 789 785 897 1131 1097 1158 1038 938 828 711 725 649 395 190 60 205 156 108 44 27 18 98

GFSCGP_con_mucape_021.txt.gz
CAPE
0 0 0 0 0 0 19 39 64 156 130 103 125 182 223 646 787 844 999 1028 1016 1164 1267 1341 1422 1471 1478 1476 1553 1601 1763 2492 2270 1999 1973 2039 2193 2281 2402 2378 1976 2389 2243 2142
0 0 0 0 0 0 20 37 58 65 113 75 87 70 217 316 700 765 859 973 1055 1168 1224 1284 1308 1261 1398 1473 1539 1693 2094 2594 2462 2178 2103 1986 2211 2167 2300 2308 2357 2431 2384 2495
0 0 0 0 0 0 0 29 41 53 75 123 101 66 162 248 328 439 591 596 656 914 986 857 917 1071 1091 1272 1502 1844 2434 2707 2413 2301 2157 2098 1988 1948 2016 2107 2203 2226 2272 2359
0 0 0 0 0 0 0 0 61 97 81 112 127 70 108 301 397 383 360 374 344 385 572 589 549 773 933 1066 1400 1971 2186 2610 2270 2392 2163 2262 2046 1956 2025 1938 1833 2282 2304 2106
0 0 0 0 0 0 0 0 9 81 99 81 82 95 71 172 362 446 424 393 323 283 333 359 376 534 722 881 1104 1476 2205 2500 2768 2370 2621 2249 2153 2143 2089 1479 1250 1359 1536 1871
0 0 0 0 0 0 0 0 0 14 47 33 16 52 21 116 330 405 305 364 358 314 295 309 325 409 621 728 905 1268 2078 2630 2639 2222 2254 2473 2610 2342 1637 1183 911 812 588 598
0 0 0 0 0 0 0 0 0 0 9 0 0 26 86 74 145 221 287 269 324 327 305 414 481 445 725 980 1141 1345 2023 2370 2410 2115 2379 2393 2537 2505 2074 1489 792 507 324 398
0 0 0 0 0 0 0 0 0 0 0 0 0 0 58 121 117 85 157 278 302 301 415 471 853 899 960 1066 1469 1597 1751 2014 2307 2014 2565 2682 2655 2276 1657 1641 752 326 237 126
0 0 0 0 0 0 0 0 0 0 0 0 0 0 0 7 15 21 58 91 260 412 555 467 526 750 1056 1304 1476 1703 1927 2063 2220 1963 2549 2477 2677 2368 1696 1443 866 371 234 151
0 0 0 0 0 0 0 0 0 2 0 0 0 0 0 0 5 35 40 35 145 382 526 569 830 1040 1225 1244 1559 1714 1948 2126 2174 2001 2255 2147 2145 1905 1667 1196 737 99 137 181
0 0 0 0 0 0 0 0 0 0 0 0 0 0 0 0 24 24 30 17 35 183 434 720 1101 1200 1271 1285 1236 1511 1747 2139 2280 2362 2491 2461 1804 1311 1311 1089 87 1 22 94
0 0 0 0 0 0 0 0 0 0 0 0 0 0 0 0 0 2 0 0 9 101 263 583 842 1064 1238 1517 1214 1317 1689 1794 2104 2248 2352 1932 967 954 1101 780 92 30 27 13
0 0 0 0 0 0 0 0 0 0 0 0 0 0 0 0 0 0 0 31 102 198 315 587 815 1384 1640 1674 1868 1668 1697 1626 1695 2071 1690 1342 698 851 1065 133 21 2 17 32
0 0 0 0 0 0 0 0 0 0 0 0 0 0 0 0 0 51 53 67 125 250 281 593 903 1407 1718 1977 2117 2094 1804 1655 1805 1905 1588 948 651 807 901 151 0 8 0 0
0 0 0 0 0 0 0 0 0 0 0 0 0 0 0 0 0 172 343 221 200 205 354 759 813 1493 1877 2102 2317 2146 1957 2216 2233 2152 1661 1129 1000 880 992 665 539 297 72 22
0 0 0 0 0 0 0 0 0 0 0 0 0 0 0 0 0 0 94 114 257 374 457 640 827 997 1424 1752 1692 1821 1981 2094 2386 1996 1660 1207 1196 1146 1130 1047 752 493 333 260
45 35 45 0 0 0 0 0 0 0 0 0 0 0 0 0 0 31 236 185 358 597 678 594 855 1262 1336 1220 1379 1488 1787 2163 2238 1981 1570 1189 1240 1258 1273 1308 1134 856 543 359
84 71 69 4 19 8 0 0 0 0 0 0 0 0 0 0 0 20 83 204 332 431 646 551 462 684 1004 961 1063 1472 1802 2291 2177 1885 1271 1114 1194 1187 1214 1276 1311 1117 799 466
139 68 117 45 55 5 0 0 0 0 0 0 0 0 0 0 0 14 0 0 105 174 293 383 362 472 587 918 1288 1726 2078 2206 2120 1769 1223 1148 1185 1152 1193 1251 1159 1006 556 327
60 85 284 51 77 46 3 0 5 8 0 0 0 7 0 0 5 81 0 0 35 163 306 499 568 709 873 797 1314 1743 2014 2076 2031 1828 1366 1122 1225 1230 1284 1294 1170 849 530 360
547 623 262 75 53 28 5 18 44 65 21 0 0 5 0 49 30 31 23 94 119 138 228 466 810 1085 1227 1248 1146 1580 1878 2053 2023 1746 1315 1123 1206 1274 1236 1143 1094 767 562 426
520 539 455 301 75 22 2 53 182 82 31 0 3 42 31 78 192 349 443 611 701 853 945 1081 1162 1233 1246 1340 1584 1640 1755 1832 1613 1137 1128 1174 1201 1178 1061 995 958 720 686 703
392 483 362 146 79 14 1 93 109 90 106 129 423 494 586 506 530 562 590 597 616 677 764 893 1028 1155 1167 1253 1267 1215 585 800 1039 1350 1123 1053 1020 976 921 927 945 889 871 978
363 219 305 303 65 4 63 135 111 125 113 72 61 50 87 285 414 590 679 660 637 651 741 899 1183 1196 998 894 667 807 786 1100 1155 1065 1005 969 944 854 797 755 673 627 568 509
86 308 104 54 0 0 24 96 108 135 159 133 105 81 103 342 501 714 798 860 776 739 593 535 744 838 711 918 1014 1070 841 703 863 902 884 796 645 603 526 363 339 272 177 83
99 22 96 70 18 16 34 59 94 130 80 113 126 112 128 101 202 470 592 694 753 691 628 754 682 707 817 836 763 749 630 545 584 547 464 415 353 273 271 216 86 78 31 7

GFSCGP_con_mucape_024.txt.gz
CAPE
0 0 0 0 0 0 26 18 38 78 299 353 312 367 474 819 801 731 866 800 649 831 956 1192 1364 1398 1496 1671 1803 1924 1965 2225 2528 2473 2303 2119 2108 3264 2353 2467 2438 2213 2114 1884
0 0 0 0 0 0 0 16 38 126 279 286 238 347 382 410 890 735 641 806 833 828 976 1188 1405 1406 1554 1812 1974 2201 2278 2513 2836 2483 2427 2064 2036 1995 2024 2311 2500 2568 2499 2323
0 0 0 0 0 0 0 8 31 112 265 276 168 228 283 158 385 897 776 623 744 918 815 1020 1235 1427 1483 1810 2103 2288 2661 2658 2981 2913 2585 2732 2612 2649 2428 2263 2309 2241 2539 2405
0 0 0 0 0 0 0 0 20 115 212 197 265 163 125 230 432 661 928 598 629 885 1044 946 1016 1260 1481 1621 2042 2424 2748 3100 2969 3379 3286 3002 2295 1828 1365 1506 1163 1342 2095 2199
0 0 0 0 0 0 0 0 5 82 149 182 208 267 145 175 339 540 791 636 367 436 449 565 705 827 1174 1429 1657 2196 2874 3793 3608 3615 3715 2949 2855 1999 1915 1888 1970 2043 2164 2411
0 0 0 0 0 0 0 0 0 41 111 156 126 142 100 164 471 312 465 663 396 176 199 219 333 461 797 1087 1340 1738 2979 4246 3922 3433 3357 3545 3479 2723 1993 2365 2131 1169 930 1700
0 0 0 0 0 0 0 0 41 67 70 83 101 61 19 13 46 151 100 477 581 387 152 204 282 244 505 841 1209 1562 3473 4277 3906 3292 3194 3327 3316 3241 3049 2953 2383 934 578 524
0 0 0 0 0 0 0 0 11 49 53 68 37 6 10 108 92 56 32 79 391 637 532 357 528 610 715 975 1577 1999 3267 4050 3559 3097 3644 3863 3684 3044 2953 3048 2212 1179 328 342
0 0 0 0 0 0 0 0 0 50 68 72 13 5 0 43 78 15 36 60 141 572 706 672 674 859 978 1416 2235 2791 3433 4070 3964 3131 4068 3621 3608 3245 3036 2844 2966 1604 1101 374
0 0 0 0 0 0 0 0 0 18 77 0 9 31 0 36 22 0 9 42 108 226 585 728 798 934 1286 1356 1767 2116 3113 3824 3390 2795 2991 2817 3020 3197 3303 3193 2818 1797 1202 626
0 0 0 0 0 0 0 0 0 1 11 44 24 1 0 0 0 0 0 2 28 79 382 715 852 968 1359 1452 1615 2034 2375 2634 2763 3335 3494 3730 2929 2933 3104 2861 2536 1840 1032 809
0 1 0 0 0 0 0 0 0 1 9 17 33 9 0 1 0 0 0 0 0 12 117 466 843 1042 1174 1582 1642 1867 2125 2372 2586 3273 3941 3259 3181 3081 2967 2625 1815 1101 732 485
0 3 7 0 0 0 0 0 0 0 0 69 18 2 2 0 0 1 4 26 11 435 427 462 806 1180 1381 1630 2404 1934 2104 2188 2341 2616 2737 3107 2970 2749 2319 1939 1285 497 398 331
0 5 0 0 0 0 0 0 0 0 6 4 16 57 22 1 0 0 4 8 33 124 687 859 967 1259 1603 2070 3001 2976 2174 2150 2246 2415 2593 3442 2970 2731 2358 2117 889 449 352 357
0 0 7 0 0 2 0 0 0 0 0 0 0 3 16 2 0 0 0 0 7 462 960 1191 1275 1507 1962 2278 2890 2597 2367 2407 2434 2506 2595 3077 3507 2176 1921 2540 1446 1041 776 445
0 0 5 7 0 0 2 0 0 0 0 0 0 0 0 1 0 0 0 0 8 287 1083 1254 1423 1641 2084 2351 2585 2608 2537 2500 2551 2747 2838 3058 2772 1877 2360 1952 1427 971 909 715
0 0 33 21 33 41 80 9 2 0 0 0 0 0 0 0 0 0 38 18 48 68 918 1307 1594 1869 2172 2377 2636 2663 2695 2624 2803 3236 3197 3056 2740 2145 1893 1753 1308 1392 1042 856
33 99 35 71 137 129 7 14 4 0 0 0 0 0 0 0 0 0 171 42 102 145 337 1163 1472 1644 2071 2139 2388 2482 2629 2920 3101 3262 3208 3047 2732 2194 1992 1935 1444 1216 1279 1329
4 214 149 220 281 96 29 9 3 7 0 0 0 0 0 0 0 0 35 148 333 367 598 955 1354 1557 1999 1910 2162 2406 2546 2858 3080 3112 3067 2883 2368 2256 1986 1890 1616 1215 1276 1310
21 112 523 451 230 218 401 283 236 271 34 0 0 0 0 0 0 0 139 258 150 192 646 1172 1157 1302 1749 1872 2037 2446 2686 2960 2939 2879 2832 2565 2349 2270 2119 1639 1769 1421 1269 1134
383 451 354 328 368 373 290 190 297 187 134 328 8 0 0 0 0 324 252 343 412 641 998 1194 1284 1465 1800 1980 2368 2631 2706 2767 2762 2714 2630 2529 2409 2161 2039 1642 1497 1292 1221 928
356 378 289 445 483 433 76 369 405 610 772 401 332 272 220 289 417 611 821 938 970 1225 1371 1658 1971 1983 1733 2319 2668 2744 2723 2852 2886 2781 2615 2324 2053 1662 1373 1428 1400 1099 949 789
475 383 398 670 658 174 83 278 293 475 557 939 540 437 490 560 700 857 1026 1156 1195 1249 1418 1654 1921 2124 2269 2501 2740 2934 2851 2859 2753 2687 2378 1874 1391 1482 1234 1132 1059 969 905 922
862 811 632 562 136 97 51 6 62 126 160 324 733 818 736 646 623 601 671 832 989 1085 1214 1407 1710 2104 2329 2317 2465 2306 2259 2336 2147 2186 1747 1443 1255 1081 1009 1018 1049 1050 1041 903
193 574 653 351 98 32 16 11 97 102 110 108 258 554 773 901 1016 1095 1233 1212 1275 1446 1677 1859 2091 2294 2400 2306 2115 2122 1970 2097 1853 1704 1581 1179 1220 900 1027 919 964 739 668 595
131 412 697 324 77 96 18 12 72 70 35 33 104 120 99 158 294 620 1141 1398 1388 1341 1664 1702 1811 1887 1669 1874 1653 1421 1801 1716 1669 1641 1431 1150 1094 942 833 318 272 234 204 248

GFSCGP_con_mucape_027.txt.gz
CAPE
0 0 0 0 0 0 58 113 29 140 13 180 249 238 398 722 733 474 313 258 190 267 547 628 848 612 932 1144 1378 1677 2311 3625 2561 1952 1938 2068 1903 2825 2099 2042 2296 2489 2378 2350
0 0 0 0 0 0 2 76 89 55 70 63 228 286 287 687 779 615 507 367 169 117 314 642 941 814 1018 1321 1751 2573 2939 3899 3209 2480 2844 2257 2227 1429 2033 1936 1953 2719 2209 3052
0 0 0 0 0 0 0 42 97 74 247 175 217 232 267 291 599 782 594 429 413 205 248 618 918 1049 1122 1352 1961 3044 3845 4101 3824 3707 3255 2577 2462 2047 1798 903 982 1361 1797 1418
0 0 0 0 0 0 0 1 32 81 128 239 100 274 249 210 271 476 773 714 364 365 269 412 826 1087 1055 1327 1803 3280 4001 4346 4136 4253 3153 3765 2403 1674 990 1202 882 830 1029 1054
0 0 0 0 0 0 0 2 32 82 136 198 117 163 130 104 172 144 516 842 632 460 377 308 463 899 1025 1155 1493 2447 4220 4512 4423 4359 3966 3003 3087 1433 1196 1045 2701 1537 2546 1231
0 0 0 0 0 0 0 2 71 87 118 141 188 175 221 54 214 197 348 603 790 454 552 543 449 634 937 1035 1304 2031 4092 4695 4789 4629 4616 4756 4449 2956 1937 1797 1927 1288 751 1162
0 0 0 0 0 0 0 2 62 81 96 88 137 217 243 144 143 166 148 219 626 733 435 597 574 480 1006 1367 1707 1923 3795 4710 4950 4685 4580 4527 4735 4675 4221 3041 1967 2257 563 526
0 0 0 0 0 0 0 0 24 61 56 65 90 114 136 183 116 56 23 89 250 708 619 439 498 385 733 1199 2026 2360 3261 4572 4809 4721 4751 4896 4949 3184 2952 3368 2044 1439 583 519
0 0 0 0 0 0 0 0 0 53 79 107 94 86 51 44 50 124 87 47 74 416 645 607 467 399 341 1053 1894 2341 3057 4328 4703 4498 4932 4900 4862 4595 2957 3556 4148 2295 2246 631
0 0 0 0 0 0 0 0 0 14 112 132 91 80 95 119 34 79 72 20 6 41 291 616 596 601 813 589 1399 2326 3045 4308 4526 4490 4725 4514 4624 4702 4602 4695 4447 3631 2934 1595
0 0 0 0 0 0 0 0 0 0 41 92 106 110 116 110 67 32 12 3 39 43 86 395 723 773 1136 874 1223 1879 2903 3845 4433 4436 4444 4383 4386 4116 4476 4001 4178 4025 3621 2597
0 0 0 0 0 0 0 0 0 120 12 34 115 86 75 27 57 36 58 58 42 39 52 107 441 781 1017 1777 1292 1363 2075 2493 3563 3954 4477 4398 4515 4327 4137 4291 4215 4231 3532 2788
0 0 0 0 0 0 0 0 0 0 15 137 109 20 32 22 46 43 41 13 38 21 66 120 142 674 1484 2117 2200 1923 2154 1808 2397 3619 3673 4398 4566 4400 4235 4425 4398 4109 3316 2508
0 0 0 0 0 0 0 0 0 0 4 18 18 73 97 70 53 50 20 1 0 5 35 479 447 163 1496 2170 2761 2818 2395 1759 2135 2649 3257 4221 4568 4557 4395 4630 4302 3892 2937 2299
0 0 0 0 1 3 0 0 0 0 0 13 10 56 70 87 80 73 45 16 25 4 9 601 1057 967 2436 2615 3379 3190 3214 3086 2615 3428 3686 4298 4737 4749 4776 4371 4141 3359 2813 1543
0 0 0 14 0 3 15 0 0 0 0 0 0 4 65 88 76 70 10 15 11 2 2 446 1282 1416 2256 2843 3419 3761 3551 3500 3616 3925 4063 4435 4828 4783 4537 4143 4175 3150 2160 1561
0 0 0 2 11 33 45 3 2 0 0 0 0 0 4 0 3 39 505 46 9 34 40 3 1222 1858 2671 2464 3488 3728 3945 3939 3973 4486 4336 4688 4844 4751 4167 3588 3632 3033 2342 1698
14 33 29 37 87 115 0 9 8 21 20 14 3 0 0 0 0 2 1 4 81 105 53 189 534 1579 1995 2235 2528 3472 3307 4172 4404 4431 4597 4784 4651 4297 3634 3347 3651 3245 2442 1854
26 76 51 63 68 71 44 46 61 84 36 23 27 28 5 0 0 1 0 1 208 194 292 385 14 1078 2245 2569 3267 3987 4003 4060 4307 4364 4658 4513 4204 4105 3575 2751 3104 3081 2693 1804
38 112 159 93 55 65 73 503 469 297 49 38 73 115 24 25 18 0 0 0 0 6 68 125 227 651 1889 2945 2570 3806 3769 4184 4305 4202 4318 4174 4036 3614 3029 2778 2787 2912 2387 1926
34 89 106 243 161 101 721 432 296 228 271 891 725 557 372 223 6 0 139 15 117 188 445 538 1011 1405 3319 3403 3515 3948 3767 3661 3656 3522 3502 3707 3192 3311 3118 2974 2766 2082 1639 1186
54 78 61 159 176 253 358 501 412 866 1242 1308 1039 757 618 693 54 27 504 545 732 764 1076 1060 1625 2050 2729 3502 4086 4195 4439 4508 4247 3746 3088 3118 3235 2843 2608 2403 2068 1756 1714 1493
114 27 60 147 256 1062 555 1097 708 696 879 1149 1200 909 783 672 643 722 940 1055 1183 1526 1727 1635 1990 2834 3103 3637 4377 4256 4664 4519 4095 3756 3718 3639 3220 2469 2433 1749 1565 1204 1332 1174
73 79 673 1054 746 466 292 318 324 548 738 1072 1137 1025 1002 937 989 1170 1436 1522 1715 2055 2388 2566 2447 2768 3581 3946 3977 3840 3967 4224 3740 3406 3080 2403 1974 1907 1697 1242 1462 1258 1128 1172
38 95 934 938 452 382 207 59 151 355 799 1169 1281 1443 1530 1394 1290 1254 1301 1405 1404 1575 1989 2282 2534 2844 2932 2863 2878 3006 3028 3207 2856 2422 2194 1848 1759 1682 1254 1010 912 1167 837 886
0 5 251 817 542 690 183 146 90 77 167 285 433 533 916 1156 1565 1751 1659 1669 1795 1906 2097 2459 2580 2552 2686 2683 2651 2951 2831 2622 2391 2098 1829 1333 1166 993 948 610 672 577 391 345

GFSCGP_con_mucape_030.txt.gz
CAPE
0 0 0 0 0 0 0 0 0 20 59 41 312 167 9 149 189 34 0 46 59 134 317 523 641 823 892 1267 2052 2369 2902 3377 3505 3220 2415 2520 2766 2739 2677 2513 3755 2874 2926 2761
0 0 0 0 0 0 0 1 46 54 98 66 48 432 334 117 209 126 43 23 39 88 268 585 863 844 854 1482 1883 2764 2880 3996 3303 2854 2711 2145 2248 2045 2490 2444 2853 2394 2965 2838
0 0 0 0 0 0 0 0 5 13 37 33 42 70 233 465 355 145 114 129 39 70 57 636 865 885 846 1560 2143 2590 2994 3736 2946 3385 2580 3036 3573 4053 2157 2319 2112 2947 2876 3091
0 0 0 0 0 0 0 0 0 38 10 32 49 97 411 287 651 329 127 104 161 90 113 178 647 1121 973 1513 2305 2671 3142 3347 3427 3101 3415 3232 2366 2712 2459 2575 1955 3036 2992 2649
0 0 0 0 0 0 0 0 0 0 16 106 120 67 212 474 364 529 154 197 118 286 109 70 477 925 1048 1427 1955 2745 3230 3471 3509 3227 3631 3702 2999 1657 2730 2307 3420 3093 3251 2138
0 0 0 0 0 0 0 0 0 0 5 67 119 7 88 315 392 167 210 50 573 220 341 242 298 913 1153 1244 1809 2366 3309 3535 3685 3769 3511 3897 3118 2673 2688 3070 3088 2523 2300 2194
0 0 0 0 0 0 0 0 1 1 51 10 72 117 167 140 154 64 8 80 680 743 467 507 389 626 1309 1381 1477 2328 3531 3751 3799 3994 3903 3454 3975 3723 3100 3905 3315 2148 1323 1481
0 0 0 0 0 0 0 0 0 4 10 36 39 75 253 354 56 2 0 23 278 637 659 766 802 655 1310 1462 1725 2049 3366 3813 4063 3915 4199 4016 3728 3920 3662 3526 3059 1978 2169 1447
0 0 0 0 0 0 0 0 0 0 2 35 55 64 70 218 70 23 29 71 71 74 635 679 1051 1054 1065 1592 1778 2013 3482 3719 4098 4272 4206 4292 4229 3728 3325 3630 3193 3392 2530 2848
0 0 0 0 0 0 0 0 0 0 12 27 38 90 120 504 115 37 25 72 130 25 572 619 614 997 1012 1387 1883 2129 2663 3897 4145 4291 4310 4127 4262 4227 3696 3475 3639 2591 3657 2635
0 0 0 0 0 0 0 0 0 0 0 18 35 42 136 191 534 389 106 98 132 11 433 676 674 756 1001 1073 1530 1916 2291 3568 4062 4274 4267 4255 4198 4370 3864 3580 3270 3449 3234 2815
0 0 0 0 0 0 0 0 0 0 0 0 8 14 28 465 414 332 117 114 97 34 25 120 773 888 1009 942 1141 1616 1995 2154 3612 4105 4146 4270 4331 4312 4233 3392 3868 3857 3226 2902
0 0 0 0 0 0 0 0 0 0 0 2 5 0 0 63 4 46 94 46 155 317 388 246 500 1033 1218 1101 1060 1213 1654 1942 2840 3795 3998 4173 4199 4176 4030 3955 3239 3725 3594 3179
4 0 0 0 0 0 0 0 0 0 0 0 3 19 25 213 148 225 124 178 174 663 1064 825 740 1009 1312 1433 1441 1435 1536 1985 2354 3395 3653 3916 4185 4099 3934 3950 3837 3865 3940 3402
0 0 0 0 0 0 0 0 0 0 0 0 0 30 5 103 292 202 331 241 354 408 551 1402 1045 1686 2553 2220 2041 1858 1777 1869 2199 2892 3368 3852 4286 4208 4224 4053 4072 3958 3945 3472
6 0 0 0 0 0 0 0 0 0 0 0 0 0 3 50 215 508 52 106 341 467 316 1121 2154 2469 2816 3211 2796 2194 2225 2063 2229 2482 3118 3528 4037 4383 4426 4331 4270 3978 3852 3244
28 0 20 0 0 0 1 0 2 0 0 0 0 0 1 39 99 433 639 143 596 337 275 677 2084 2541 2888 3450 3343 2809 2555 2857 2378 3013 3030 3509 4218 4460 4438 4453 4217 4060 3734 3079
195 65 5 8 36 49 0 0 0 0 2 0 0 0 0 7 60 44 197 404 459 522 339 701 236 1843 2729 2531 2663 3880 3088 3409 3227 3624 3616 4005 4427 4587 4573 4458 4228 4014 3607 2686
51 116 51 63 24 0 0 0 0 25 61 29 19 13 0 0 0 0 0 2 98 262 719 963 209 129 2157 2247 2839 3390 3948 3439 3707 3680 4583 4502 4623 4723 4577 4313 4064 3565 3326 2827
9 189 101 96 35 0 12 3 20 30 79 161 66 112 23 95 58 0 1 0 1 3 12 492 491 248 621 2367 2751 3605 3748 4052 3722 4314 4427 4752 4795 4658 4418 4070 3702 3840 3496 2572
46 111 22 55 34 1 14 70 170 259 565 961 624 414 265 378 770 1063 699 289 33 107 107 202 731 1160 3209 2574 2933 3860 3930 4166 4115 4454 4697 4762 4694 4650 4426 3709 3235 3114 2899 2649
83 98 35 147 164 57 199 380 226 1233 1299 1226 1131 939 774 828 806 752 1097 744 598 1322 1070 635 1732 2535 4298 3603 4441 4432 4403 4577 4550 4420 4563 4512 4512 3486 3642 2920 2625 2425 2233 1974
68 29 100 147 200 1034 387 1343 1033 793 834 1125 1050 813 655 620 600 526 1393 1557 1010 1137 1804 1935 2027 4855 4769 5145 4584 4463 4868 4576 4486 4249 4178 3777 3521 3250 2747 2390 2350 1834 1498 1388
226 146 234 208 190 811 547 503 617 746 998 1086 1142 986 815 755 670 973 1545 1662 1725 2154 2817 3093 3711 4335 4766 4888 4856 4818 4484 4154 3936 3879 3801 3579 2937 2392 2271 1879 1585 1431 1192 1421
65 45 114 276 1474 745 513 503 510 751 1087 1248 1658 1829 2041 2101 2220 2296 2598 2798 2442 3081 3547 3612 4243 4247 4690 4752 4506 4410 4131 4003 3774 3542 2665 2302 2001 1741 1412 1454 1457 1279 1076 1031
0 38 46 675 496 188 653 317 613 644 750 918 1107 1348 1566 1845 1889 1952 2103 2546 2720 3115 3326 3439 3213 3003 3366 3671 3427 3012 3565 3622 3028 2303 2148 1783 1589 1462 1304 1291 1215 992 748 741

GFSCGP_con_mucape_033.txt.gz
CAPE
0 0 0 0 0 0 0 0 0 2 25 29 68 14 42 28 84 0 36 42 74 55 63 160 171 482 645 850 1059 864 1196 1696 1488 1678 1757 1889 1875 1571 1549 1767 1737 1648 1500 1454
0 0 0 0 0 0 0 0 0 33 56 18 21 23 0 0 47 20 8 1 25 46 26 147 166 255 481 747 1172 875 1182 2161 1541 1668 1616 1570 1532 1449 1310 1336 2003 1730 1677 1624
0 0 0 0 0 0 0 0 0 29 9 5 0 3 19 35 190 137 22 0 9 41 48 112 151 248 369 582 1114 1176 1483 2079 1817 2015 1671 1406 1598 1518 1615 1844 1840 1670 1623 1855
0 0 0 0 0 0 0 0 0 1 0 1 5 94 19 120 171 146 48 40 10 16 40 72 233 328 376 724 1166 1233 1657 2146 1906 1777 1539 1434 1131 1715 1659 1684 1688 1701 1789 1803
0 0 0 0 0 0 0 0 0 0 17 30 11 0 182 130 180 96 41 76 35 24 44 86 248 278 432 740 1035 1576 1469 2343 1517 1731 1800 1071 1346 1354 1574 1150 1574 1681 1753 1731
0 0 0 0 0 0 0 0 0 0 0 25 0 4 13 23 165 199 228 111 89 71 61 63 128 382 348 816 1233 1623 1571 1813 1922 1267 1571 2090 2097 1104 676 1475 1350 1609 1103 1533
0 0 0 0 0 0 0 0 0 0 0 0 1 0 10 68 4 262 291 155 55 30 51 69 148 351 459 603 1456 1643 1699 1691 2174 1863 1733 1939 2429 1628 1524 1573 1211 1024 660 734
0 0 0 0 0 0 0 0 0 0 0 0 0 6 24 20 48 143 103 132 22 93 86 79 99 210 561 586 1214 1824 1913 1849 2115 2192 1891 1786 1989 2621 1817 1776 1999 1286 1114 919
0 0 0 0 0 0 0 0 0 0 0 0 0 0 0 4 100 48 62 18 19 41 244 163 87 99 542 603 1231 1618 2121 2053 2308 2362 2262 2125 1867 2051 2808 2508 1622 1820 1262 935
0 0 0 0 0 0 0 0 0 0 0 0 0 0 0 44 65 49 31 56 9 14 44 136 163 124 598 704 872 1526 2474 2356 2487 2386 2625 2641 2516 2242 2361 2953 2405 1756 1796 1518
0 0 0 0 0 0 0 0 0 0 0 0 0 0 0 31 156 57 81 72 31 1 36 214 309 217 587 818 939 1155 2415 2574 2686 2674 2587 2773 2893 2828 2529 2452 2650 2092 1641 1733
0 0 0 0 0 0 0 0 0 0 0 0 0 0 0 44 138 76 82 57 47 23 81 219 327 459 359 963 1028 1234 2572 2619 2908 2929 3017 2944 2943 3252 3158 2634 2316 2199 2166 1705
0 0 0 0 0 0 0 0 0 0 0 0 0 0 0 0 166 125 123 37 19 27 22 53 247 606 744 960 1197 1289 2132 2761 2848 3028 3214 3315 3223 3133 3435 3194 2745 2346 2349 2026
37 0 0 0 0 0 0 0 0 0 0 0 0 0 0 6 53 192 242 43 16 6 3 67 344 364 762 743 1194 1303 1563 2453 2949 3185 3268 3322 3365 3334 3344 3503 3041 2935 2723 2371
0 0 0 0 0 0 0 0 0 0 0 0 0 0 0 0 75 166 161 90 30 15 121 78 399 467 638 642 839 1195 1475 1548 2576 2933 3258 3238 3380 3455 3506 3455 3449 2923 3010 2737
0 0 0 0 0 0 0 0 0 0 0 0 0 0 0 0 177 203 155 50 43 200 414 291 456 663 719 647 632 952 1237 1503 1533 2617 2988 3183 3173 3560 3559 3504 3423 3366 2788 3029
0 0 0 0 0 0 0 0 0 0 0 0 0 0 0 0 0 42 196 73 44 19 125 448 520 639 992 1026 873 879 958 1166 1466 1560 2531 2947 3184 3394 3537 3519 3434 3442 3338 3265
0 0 0 0 0 0 0 0 0 0 0 0 0 0 0 0 0 134 153 82 79 80 50 74 863 957 1147 2413 1393 1087 1053 1146 1566 1823 2116 2749 2924 3413 3641 3587 3543 3474 3435 3401
0 0 0 0 0 0 0 0 0 0 0 0 0 0 0 0 0 0 0 0 0 16 22 143 691 1179 1581 2709 2384 1697 1377 1545 1389 1860 2148 2728 2998 3393 3706 3717 3723 3615 3574 3452
0 0 0 0 0 0 0 0 0 0 1 239 82 0 0 0 0 1 264 142 3 0 0 0 55 20 1639 1749 2883 2326 1906 2088 1769 1685 2381 2552 3035 3487 3898 3816 3844 3707 3587 3458
0 0 0 0 0 0 0 0 2 45 44 863 546 476 378 381 631 360 381 602 437 74 0 0 0 46 625 1571 2534 3025 2508 2154 2889 2597 3433 3468 3701 3981 4059 3978 3859 3738 3363 3138
23 0 2 1 4 0 359 58 820 1313 941 957 749 638 425 332 251 253 1214 1143 1133 1348 1389 1156 289 596 961 1387 2610 2687 3121 3004 3012 3753 4160 4258 4248 4179 4154 3972 3677 3212 2987 2754
4 56 56 99 85 556 820 846 981 811 976 804 930 583 427 415 397 1445 1559 1528 1138 1224 1384 1766 3418 4354 4438 3467 2821 3130 3612 3841 3942 4265 4203 4205 4191 4139 4090 3774 3123 2419 2635 2471
45 42 83 149 65 358 162 112 378 609 858 1548 1885 1936 1963 2101 2296 2407 2459 2399 2885 2871 3439 3933 4061 4047 4222 4324 4355 4338 4056 3949 3959 4054 3993 3903 3804 3782 3499 2878 2173 2097 2115 1987
21 10 0 52 100 678 468 166 112 640 1649 1708 1745 1888 1975 2048 2210 2156 2306 2923 3240 3273 3772 3895 4143 4433 4285 4237 4158 3992 3855 3812 3809 3788 3604 3420 3434 3050 2563 2122 1873 1674 1477 1296
0 0 11 5 3 23 332 453 873 1119 1082 1489 1634 1679 1690 1883 1938 1915 2196 2543 2703 2895 3276 3810 3976 3981 3858 3770 3695 3621 3509 3282 3050 2651 2415 2507 2034 2084 2053 1718 1240 1161 1107 1082

GFSCGP_con_mucape_036.txt.gz
CAPE
0 0 0 0 0 0 0 0 0 0 0 2 0 0 18 324 382 434 387 307 263 130 138 80 549 536 509 380 706 796 788 774 503 966 1098 1224 918 914 1221 1267 924 1081 1278 1410
0 0 0 0 0 0 0 0 0 0 17 10 5 0 5 41 218 276 284 234 227 174 156 176 235 480 432 320 657 756 789 725 651 849 957 1045 1046 1174 1097 1327 1305 1276 1261 1099
0 0 0 0 0 0 0 0 0 0 0 10 10 10 1 16 34 35 115 148 119 111 75 126 106 291 395 283 585 546 670 924 839 1017 1144 1092 1122 1274 1296 1109 1394 1533 1212 1270
0 0 0 0 0 0 0 0 0 1 0 2 0 0 0 0 0 2 28 92 80 68 34 40 105 219 332 367 509 524 697 1251 1080 1096 1128 1040 1077 1140 959 968 1313 1453 1318 1358
0 0 0 0 0 0 0 0 0 0 0 0 9 0 0 12 0 0 8 70 93 42 40 22 67 98 258 323 565 562 598 1390 1271 1245 1093 1004 879 842 1174 1257 1395 1464 1407 1332
0 0 0 0 0 0 0 0 0 0 0 0 0 0 0 0 11 15 37 118 135 107 26 8 26 50 65 266 560 699 738 1158 1326 1369 1182 1083 1014 830 874 1265 1443 1348 1401 1399
0 0 0 0 0 0 0 0 0 0 0 0 0 0 0 0 13 52 53 125 154 157 77 12 8 36 63 213 547 781 866 1100 1209 1392 1367 1271 950 753 705 933 1188 1036 1312 1269
0 0 0 0 0 0 0 0 0 0 0 0 0 0 0 0 0 21 47 148 135 178 99 20 28 42 53 213 656 999 877 1056 1154 1175 1302 1356 1266 1121 876 1114 763 1088 1015 1163
0 0 0 0 0 0 0 0 0 0 0 0 0 0 0 0 9 7 43 87 122 254 103 53 50 15 114 216 715 988 997 963 1327 1216 1003 1066 1359 1833 1844 1430 1306 1125 1026 744
0 0 0 0 0 0 0 0 0 0 0 0 0 0 0 0 0 0 18 108 195 267 103 51 49 72 169 215 708 950 1066 1031 1247 1450 1325 1155 1038 1429 1895 2161 1542 1338 1338 1274
0 0 0 0 0 0 0 0 0 0 0 0 0 0 0 0 0 1 30 151 261 211 90 33 51 188 159 363 521 1229 1206 1147 1224 1474 1591 1491 1219 1071 1456 1972 2319 1890 1426 1384
0 0 0 0 0 0 0 0 0 0 0 0 0 0 0 0 0 2 17 144 293 266 80 122 247 275 82 405 487 1129 1548 1430 1407 1642 1699 1771 1620 1522 1247 1449 1845 2398 2212 1469
0 0 0 0 0 0 0 0 0 0 0 0 0 0 0 0 0 16 34 77 166 133 39 82 237 314 181 330 538 910 1535 1789 1719 1841 1882 2041 2119 2075 1877 1690 1575 2049 2312 2056
0 0 0 0 0 0 0 0 0 0 0 0 0 0 0 0 0 3 45 85 123 84 70 21 105 296 328 387 593 659 1235 2044 2027 2136 2086 2089 2256 2456 2411 2253 1945 1852 2063 2259
0 0 0 0 0 0 0 0 0 0 0 0 0 0 0 0 0 0 19 97 148 155 52 40 3 3 202 423 700 790 929 1880 2224 2475 2408 2336 2386 2551 2666 2755 2633 2285 2016 2003
0 0 0 0 0 0 0 0 0 0 0 0 0 0 0 0 0 0 0 64 117 130 18 10 0 0 160 365 757 892 1039 1827 2139 2486 2676 2687 2760 2787 2732 2863 3025 2715 2487 2281
0 0 0 0 0 0 0 0 0 0 0 0 0 0 0 0 0 0 0 4 87 152 16 120 26 8 266 470 773 991 1142 1395 2253 2383 2657 2802 2939 2989 2968 2903 3066 3066 2745 2713
0 0 0 0 0 0 0 0 0 0 0 0 0 0 0 0 0 0 0 0 0 22 56 108 342 282 386 565 682 1014 1208 1399 1796 2474 2585 2899 2992 2980 3054 3113 3073 3077 2958 2861
0 0 0 0 0 0 0 0 0 0 0 0 0 0 0 0 0 0 0 0 0 4 27 15 168 608 627 646 639 741 1000 1309 1650 1883 2410 2617 2890 2896 3136 3149 3124 3075 3084 3063
0 0 0 0 0 0 0 0 0 0 0 42 0 0 0 0 0 0 0 0 0 0 0 24 71 636 398 967 799 799 723 1019 1336 1627 1719 2396 2798 2904 3071 3198 3185 3148 3164 3092
0 0 0 0 0 0 0 0 0 0 0 150 5 0 0 0 0 0 27 17 0 0 0 0 48 247 909 1203 1944 1255 1011 961 1026 1307 1528 1643 2531 2724 3052 3229 3236 3238 3216 3260
0 0 0 0 0 0 49 13 2 131 566 219 81 39 29 50 46 309 383 755 884 845 786 231 0 0 32 995 2215 1957 1593 1463 1382 1235 1433 1848 2379 2677 3018 3319 3348 3324 3306 3475
10 109 0 0 49 68 98 520 783 748 590 411 180 40 34 45 805 780 852 1012 1565 1287 1321 2407 660 824 1441 336 2087 2181 1967 1772 1890 1731 1994 2140 2522 2927 3414 3380 3174 3376 3297 3406
126 87 93 0 22 29 117 341 757 1512 1615 1570 1226 1351 1367 1564 1931 2085 2491 2878 3131 2926 2677 3252 3194 2996 3058 3078 1422 1992 2241 2154 2333 2263 3243 3376 3333 3352 3346 3303 3204 3300 2656 2711
86 101 3 0 0 240 371 448 267 1562 1578 1706 1755 1861 1979 2091 2593 2920 2924 3114 3383 3620 3775 3785 3746 3667 3668 3737 3155 3059 3197 3165 3457 3419 3300 3324 3146 3091 3123 3353 3260 2829 1975 1692
34 27 2 0 14 22 236 624 819 908 1179 1403 1674 1783 1880 2150 2467 2718 2722 2801 3130 3496 3757 3981 4063 3972 3817 3845 3611 3514 3496 3395 3265 3174 3282 2939 2746 2470 2410 2500 2175 1444 1330 1418

GFSCGP_con_mucape_039.txt.gz
CAPE
0 0 0 0 0 0 0 0 0 0 2 0 0 0 370 377 393 496 540 487 457 384 459 347 360 492 467 300 331 425 465 437 459 551 684 1042 1082 743 943 1270 1097 918 1163 1440
0 0 0 0 0 0 0 0 0 0 0 0 0 0 262 345 348 347 304 388 357 362 304 267 268 399 425 387 382 347 553 613 481 573 688 927 801 690 554 1181 1123 899 1050 1498
0 0 0 0 0 0 0 0 0 0 0 0 0 0 95 230 264 248 199 180 142 219 160 117 220 384 459 368 337 445 528 587 557 580 735 765 712 680 735 839 1177 1003 1083 1009
0 0 0 0 0 0 0 0 0 0 0 0 0 0 0 103 199 227 267 214 159 92 75 47 71 307 386 430 326 377 438 477 463 577 556 538 616 592 781 997 911 954 1294 1241
0 0 0 0 0 0 0 0 0 0 0 0 0 0 0 0 25 117 182 161 170 140 92 61 40 103 280 309 314 316 348 488 533 622 583 625 700 651 653 898 1038 1037 1138 1231
0 0 0 0 0 0 0 0 0 0 0 0 0 0 0 0 0 0 35 23 36 90 83 65 69 68 134 229 238 307 326 485 581 557 690 777 780 747 669 739 754 974 1062 1246
0 0 0 0 0 0 0 0 0 0 0 0 0 0 0 0 0 0 0 12 9 45 72 52 37 29 63 201 213 283 347 518 724 730 758 810 872 826 721 630 872 1357 1402 1394
0 0 0 0 0 0 0 0 0 0 0 0 0 0 0 0 0 0 0 5 7 25 79 54 17 16 21 90 198 326 362 433 844 926 881 848 892 871 807 666 477 788 1203 969
0 0 0 0 0 0 0 0 0 0 0 0 0 0 0 0 0 0 0 0 12 42 87 117 22 7 5 15 105 290 464 449 737 954 985 906 889 883 899 810 469 560 957 983
0 0 0 0 0 0 0 0 0 0 0 0 0 0 0 0 0 0 0 0 0 68 93 156 97 24 14 4 18 182 448 522 644 888 1013 1012 908 883 959 822 551 586 898 836
0 0 0 0 0 0 0 0 0 0 0 0 0 0 0 0 0 0 0 0 0 2 112 184 186 87 23 37 13 239 493 565 644 820 917 991 1046 1089 1083 1076 843 969 1243 953
0 0 0 0 0 0 0 0 0 0 0 0 0 0 0 0 0 0 0 0 0 0 29 126 158 167 72 51 32 312 554 710 670 903 916 897 891 950 1170 1378 1403 1249 1332 1179
0 0 0 0 0 0 0 0 0 0 0 0 0 0 0 0 0 0 0 1 0 11 29 61 138 200 124 57 53 328 613 795 792 838 1069 1072 996 945 893 1064 1317 1682 1556 1553
0 0 0 0 0 0 0 0 0 0 0 0 0 0 0 0 0 0 0 0 0 27 58 29 111 248 161 74 106 195 744 811 896 890 1086 1194 1237 1132 987 944 962 1372 1772 1881
0 0 0 0 0 0 0 0 0 0 0 0 0 0 0 0 0 0 0 0 0 0 24 56 209 272 137 106 157 215 581 1041 1078 1071 1190 1217 1348 1372 1301 1179 1077 1075 1330 1735
0 0 0 0 0 0 0 0 0 0 0 0 0 0 0 0 0 0 0 0 0 0 0 36 235 124 100 117 165 287 433 992 1357 1332 1445 1473 1444 1644 1709 1650 1554 1359 1198 1336
0 0 0 0 0 0 0 0 0 0 0 0 0 0 0 0 0 0 0 0 0 0 0 27 88 41 56 122 236 327 457 833 1621 1627 1688 1760 1720 1767 1941 2021 2012 1960 1730 1514
0 0 0 0 0 0 0 0 0 0 0 0 0 0 0 0 0 0 0 0 0 0 0 0 56 110 7 47 125 403 606 735 1511 1791 1897 2038 2039 2006 2015 2139 2207 2318 2220 1977
0 0 0 0 0 0 0 0 0 0 0 0 0 0 0 0 0 0 0 0 0 0 0 0 131 16 0 4 185 540 809 954 1404 1761 1988 2294 2314 2318 2325 2374 2342 2407 2534 2276
0 0 0 0 0 0 0 0 0 0 0 0 0 0 0 0 0 0 0 0 0 0 0 0 0 7 75 271 585 846 1017 1085 1177 1817 1999 2195 2421 2447 2547 2546 2512 2468 2581 2439
0 0 0 0 0 0 0 0 0 0 0 0 0 0 0 0 0 0 0 0 0 0 0 0 0 113 434 503 603 716 919 1082 1219 1339 1928 2201 2367 2547 2603 2627 2660 2691 2713 2629
16 1 0 0 0 0 0 22 13 0 0 0 0 0 0 0 0 0 0 0 0 0 0 0 0 0 298 657 784 763 694 891 1098 1292 1407 1712 2184 2479 2657 2667 2792 2817 2796 2745
32 45 0 0 0 10 0 88 140 231 200 333 89 0 0 0 0 6 70 307 370 480 1219 198 0 0 24 650 994 689 598 632 685 902 1113 1275 1464 2201 2514 2681 2844 2946 2931 2813
26 38 31 0 54 11 30 209 409 777 1061 1031 889 250 97 563 774 839 1403 1717 1875 2369 2581 2629 2387 2495 2637 3019 1066 1503 1348 1175 910 793 886 1073 1224 1679 2287 2631 2862 2981 2895 3076
1 133 19 0 43 3 2 174 431 856 1217 1408 1216 1209 1376 1712 1983 2362 2644 2830 3110 3296 3491 3445 3351 3356 3447 3354 3287 3170 2222 1794 1841 1572 1386 1398 1597 1961 2381 2759 2854 2925 2825 2683
54 152 103 3 0 0 0 114 263 734 960 1577 1900 2202 2423 2434 2556 2693 2845 2994 3151 3285 3436 3534 3528 3394 3384 3408 3310 3364 3412 3154 2872 2972 2981 2731 2401 2415 2596 2595 2273 2697 2690 2512

GFSCGP_con_mucape_042.txt.gz
CAPE
0 0 0 0 0 0 0 0 0 0 0 0 0 0 194 310 403 439 341 225 265 274 251 299 343 421 468 546 575 380 403 352 276 264 294 390 424 517 948 629 761 620 798 1203
0 0 0 0 0 0 0 0 0 0 0 0 0 0 220 246 338 450 429 394 243 197 198 140 204 264 367 346 459 385 345 350 318 261 351 461 482 500 814 668 979 1006 800 1131
0 0 0 0 0 0 0 0 0 0 0 0 0 0 126 244 231 309 394 400 351 274 241 151 120 199 345 306 271 316 258 227 305 208 240 459 632 697 896 820 827 899 820 1040
0 0 0 0 0 0 0 0 0 0 0 0 0 0 0 114 220 173 239 355 348 303 187 126 144 154 212 332 300 182 197 224 215 338 231 382 521 681 841 764 581 949 892 814
0 0 0 0 0 0 0 0 0 0 0 0 0 0 0 4 124 166 168 160 188 236 171 106 90 101 152 194 242 231 192 229 232 312 422 395 472 559 600 472 490 704 935 1003
0 0 0 0 0 0 0 0 0 0 0 0 0 0 0 0 24 76 103 142 158 146 128 99 58 42 47 131 195 149 233 229 304 304 400 497 453 463 428 511 556 691 713 791
0 0 0 0 0 0 0 0 0 0 0 0 0 0 0 0 0 0 3 33 108 168 188 151 67 36 27 101 205 212 208 275 331 364 343 387 425 480 434 569 552 490 686 820
0 0 0 0 0 0 0 0 0 0 0 0 0 0 0 0 0 0 0 0 3 4 58 119 151 38 0 35 140 136 161 229 279 317 327 393 444 488 458 614 621 437 512 715
0 0 0 0 0 0 0 0 0 0 0 0 0 0 0 0 0 0 1 0 0 0 0 2 37 67 31 8 69 115 114 161 208 405 436 459 494 510 509 638 716 656 476 920
0 0 0 0 0 0 0 0 0 0 0 0 0 0 0 0 0 0 0 0 0 0 0 0 12 28 11 26 24 94 90 133 161 445 529 554 561 526 584 653 751 715 613 499
0 0 0 0 0 0 0 0 0 0 0 0 0 0 0 0 0 0 0 0 0 0 0 0 6 33 46 9 3 31 97 160 158 539 657 714 681 632 620 667 710 759 751 602
0 0 0 0 0 0 0 0 0 0 0 0 0 0 0 0 0 0 0 0 0 0 0 0 0 4 54 68 13 2 36 199 256 338 717 801 799 713 668 671 670 722 821 752
0 0 0 0 0 0 0 0 0 0 0 0 0 0 0 0 0 0 0 0 0 1 0 0 0 0 8 75 92 53 20 176 319 380 580 769 847 850 795 762 844 736 822 812
0 0 0 0 0 0 0 0 0 0 0 0 0 0 0 0 0 0 0 0 0 0 0 0 0 0 2 53 131 184 144 159 346 418 605 678 798 834 925 1008 1071 1121 961 904
0 0 0 0 0 0 0 0 0 0 0 0 0 0 0 0 0 0 0 0 0 0 0 0 0 13 23 82 207 225 236 247 469 523 641 815 788 770 801 857 987 1129 1293 1096
0 0 0 0 0 0 0 0 0 0 0 0 0 0 0 0 0 0 0 0 0 0 0 0 0 41 108 165 207 226 252 390 552 684 710 888 976 986 906 866 838 905 1242 1424
0 0 0 0 0 0 0 0 0 0 0 0 0 0 0 0 0 0 0 0 0 0 0 0 0 14 297 289 276 254 335 526 687 815 854 929 1081 1193 1169 1089 979 907 889 1167
0 0 0 0 0 0 0 0 0 0 0 0 0 0 0 0 0 0 0 0 0 0 0 0 0 0 214 429 454 452 324 491 894 957 993 1093 1219 1263 1380 1368 1330 1254 1086 941
0 0 0 0 0 0 0 0 0 0 0 0 0 0 0 0 0 0 0 0 0 0 0 0 0 0 11 363 543 469 230 389 916 1207 1269 1328 1478 1453 1452 1616 1684 1626 1568 1456
0 0 0 0 0 0 0 0 0 0 0 0 0 0 0 0 0 0 0 0 0 0 0 0 0 0 0 64 272 265 224 405 702 1381 1549 1584 1644 1673 1615 1706 1867 1917 1950 1962
0 0 0 0 0 0 0 0 0 0 0 0 0 0 0 0 0 0 0 0 0 0 0 0 0 0 0 117 144 147 191 544 779 1136 1577 1772 1931 1949 1926 1882 1911 2056 2086 2248
0 0 0 0 0 0 6 9 2 0 0 0 0 0 0 0 0 0 0 0 0 0 0 0 0 0 0 1 135 107 376 613 775 1028 1549 1767 1988 2204 2201 2219 2239 2296 2317 2406
2 0 0 0 0 0 27 6 0 4 0 17 76 68 149 96 0 0 0 0 0 646 500 0 0 15 417 64 123 259 484 558 803 973 1198 1658 1978 2170 2383 2548 2644 2585 2579 2531
1 0 57 8 5 99 110 0 0 6 77 466 594 336 370 0 65 696 1162 1979 2331 2288 2187 2117 2200 2872 3047 2756 1238 702 745 1177 888 625 912 1135 1260 1904 2332 2632 2748 2797 2776 2741
0 0 0 6 0 43 135 0 0 23 157 1157 955 703 1163 1294 1747 2271 2925 3394 3511 3125 3252 3164 3307 3426 2919 3017 2993 3209 2852 1876 1425 1536 1521 1421 1199 1300 2014 2430 2657 2812 2635 2823
0 0 0 0 0 0 48 0 7 184 181 899 1669 1767 1909 2114 2361 2487 2505 2436 2465 2341 2759 2927 2826 2990 2358 2550 2542 2780 3176 2986 2635 2309 2053 1889 1764 1718 1859 1987 2187 2329 2486 2313

GFSCGP_con_mucape_048.txt.gz
CAPE
0 0 0 0 0 0 0 0 0 0 3 1 35 57 29 46 628 784 1019 1006 841 478 378 368 443 414 413 503 713 897 1014 1982 1551 1336 1016 716 384 432 463 1067 1681 2291 2623 2763
0 0 0 0 0 0 0 0 0 0 0 0 2 4 0 0 461 672 992 1083 1046 767 395 389 473 444 482 690 924 1302 1464 1832 1994 1337 1194 653 538 294 664 1267 1791 2444 2394 2778
0 0 0 0 0 0 0 0 0 0 0 0 0 0 0 0 92 458 768 1021 1025 977 618 495 520 583 499 636 904 1262 2066 2171 2045 1873 1169 874 541 803 911 1345 1709 2319 2480 2490
0 0 0 0 0 0 0 0 0 0 0 0 0 2 8 0 72 306 582 884 1004 1009 888 423 430 662 449 578 846 1403 2004 2310 2297 1858 1524 2154 559 468 577 1437 1361 1470 2065 2166
0 0 0 0 0 0 0 0 0 0 0 0 0 0 0 0 0 251 491 788 876 976 940 672 390 412 587 753 1005 1292 2146 2676 2702 2582 2383 1662 1612 288 749 1303 2595 3271 2898 2393
0 0 0 0 0 0 0 0 0 0 0 0 0 0 0 0 3 26 246 556 833 814 847 961 435 327 618 820 1073 1303 2323 3530 3003 2515 2231 3038 2752 1784 1358 2112 1831 1891 1862 1840
0 0 0 0 0 0 0 0 0 0 0 0 0 0 0 0 0 0 11 180 652 917 847 921 959 518 520 711 1018 1459 2754 3524 3142 2515 2476 2696 2883 3013 3030 2711 2036 2557 1409 1332
0 0 0 0 0 0 0 0 0 0 0 0 0 0 0 0 0 0 0 1 543 771 964 931 1076 1010 818 762 1757 2044 2829 3269 2625 2565 3310 3453 3643 1945 1845 2506 1737 1639 1535 1246
0 0 0 0 0 0 0 0 0 0 0 0 0 0 0 0 0 0 0 0 0 237 824 1040 1037 1140 1195 1201 1844 2522 3020 3455 3331 2620 3615 3608 3384 3267 2229 3138 3234 2047 2801 1535
0 0 0 0 0 0 0 0 0 0 0 0 0 0 0 0 0 0 0 0 0 0 322 853 1099 1145 1390 1328 1556 2230 2959 3462 3412 3046 3080 2769 3198 3385 3410 3557 3535 3421 3307 2958
0 0 0 0 0 0 0 0 0 0 0 0 0 0 0 0 0 0 0 0 0 0 141 836 1001 1074 1272 1372 1347 1685 2292 2927 2835 2933 3084 3264 3139 2788 3189 2976 3599 3705 3763 3824
0 0 0 0 0 0 0 0 0 0 0 0 0 0 0 0 0 0 0 0 0 0 3 364 650 935 1046 1213 1308 1406 1614 1856 2077 2674 3259 3331 3424 3332 3080 3317 3440 3649 3719 4009
0 0 0 0 0 0 0 0 0 0 0 0 0 0 0 0 0 0 0 0 0 0 0 0 19 172 583 1020 1928 1278 1338 1520 1752 2476 2201 2954 3307 3330 3503 3635 3565 3591 3723 3917
0 0 0 0 0 0 0 0 0 0 0 0 0 0 0 0 0 0 0 0 0 0 0 0 34 92 127 800 2249 2478 1595 1340 1583 1819 2110 2888 3343 3405 3398 3554 3573 3562 3758 3901
0 0 0 0 0 0 0 0 0 0 0 0 0 0 0 0 0 0 0 0 0 0 0 0 137 278 678 942 2183 2657 2155 2144 1855 2512 2616 2843 3304 3560 3626 3687 3705 3769 3854 3836
0 0 0 0 0 0 0 0 0 0 0 0 0 0 0 0 0 0 0 0 0 0 0 0 5 152 801 1105 1459 1953 2208 1996 2228 2795 2777 3091 3403 3742 3674 3727 3827 3898 3868 3961
0 0 0 0 0 0 0 0 0 0 0 0 0 0 0 0 0 0 0 0 0 0 0 0 0 174 560 1265 1385 1928 2240 1820 2429 2791 3058 3322 3535 3696 3784 3602 3754 3947 3967 3776
0 0 0 0 0 0 0 0 0 0 0 0 0 0 0 0 0 0 0 0 0 0 0 0 0 0 280 516 541 1424 1432 2426 2618 2918 3079 3460 3640 3655 3760 3894 3909 4044 3914 3844
0 0 0 0 0 0 0 0 0 0 0 0 0 0 0 0 0 0 0 0 0 0 0 0 0 0 0 0 203 916 1481 1711 2072 2957 3155 3357 3539 3748 3876 3963 3975 4053 3596 3619
0 0 0 0 0 0 0 0 0 0 0 0 0 0 0 0 0 0 0 0 0 0 0 0 0 0 0 0 23 767 1532 2274 2927 3140 3221 3439 3719 3894 3956 3941 3920 3714 3635 2997
0 0 0 0 0 0 0 0 1 0 29 15 0 0 73 115 37 43 35 26 0 0 0 0 0 0 127 25 450 1903 1737 2354 3111 2412 2435 3345 3926 4160 4076 4208 4001 3790 3507 3418
0 0 0 0 0 0 0 0 0 24 6 3 0 0 0 24 120 256 373 308 194 50 51 0 0 0 0 507 1335 3010 3196 3130 3273 3384 2756 3681 3983 3114 2788 4039 3576 3707 3785 3819
0 0 0 0 0 0 0 0 0 0 0 0 0 0 0 0 0 31 643 844 698 627 345 0 221 22 368 863 1587 2219 3718 3620 3055 3122 3793 3979 3786 3250 3609 3915 3655 3242 3551 3103
22 31 0 0 0 1 4 0 0 0 0 0 0 0 0 0 0 66 909 1275 1127 1066 425 702 350 425 1380 1972 2251 2346 2396 3211 3296 3230 3215 3445 3601 3856 3448 3148 3238 3185 3092 3205
35 78 0 0 26 30 31 0 0 0 20 2 2 0 0 0 0 144 1258 1823 1364 994 2416 1816 1885 2521 2878 2997 2988 2586 2637 2730 2672 2957 3103 3298 3352 3397 3577 3265 3203 3387 3741 3035
4 1 3 0 16 26 21 9 0 1 0 0 0 0 0 2 11 616 1682 2094 2163 2017 2137 2482 2645 3462 4038 3687 3371 3476 2881 2840 3103 3308 3261 3199 3245 3467 3478 2778 2720 2799 2974 3117

GFSCGP_con_mucape_051.txt.gz
CAPE
0 0 0 0 0 0 3 0 1 72 98 153 144 182 244 464 596 799 1124 1115 775 533 387 442 454 355 332 394 629 1358 1721 2780 1921 1275 1184 981 519 632 243 235 1187 1515 2053 2482
0 0 0 0 0 0 0 4 7 47 87 133 135 137 184 167 322 435 812 1106 1102 734 486 353 418 324 301 468 1246 1988 2373 3249 2581 1532 1793 945 1059 245 262 350 1972 1881 2220 2597
0 0 0 0 0 0 0 0 0 18 49 113 53 68 89 102 40 346 516 1003 1090 1054 663 320 385 326 281 678 1374 1893 2748 3037 2880 2458 2023 1794 1246 1152 422 578 1137 1820 2191 2336
0 0 0 0 0 0 0 0 0 0 35 104 28 69 49 70 26 131 494 832 1057 1142 987 495 259 350 341 556 839 2111 3126 3408 3148 3409 1915 2079 795 406 309 615 866 1579 2539 2343
0 0 0 0 0 0 0 0 0 0 1 9 25 54 67 53 63 83 264 478 749 1057 1068 801 320 311 327 346 474 1488 3182 3599 3548 3546 2880 1749 1653 311 349 479 2249 2652 3642 3210
0 0 0 0 0 0 0 0 0 0 0 0 0 10 13 51 121 125 162 244 536 880 943 965 539 245 336 298 391 931 2862 3917 4146 4159 3575 3584 2555 1796 358 982 1132 1499 1613 1963
0 0 0 0 0 0 0 0 0 0 0 0 0 0 0 4 21 47 140 224 437 695 906 984 817 394 325 531 604 945 2794 3954 4250 4189 3859 3301 3673 3273 2750 2919 1542 2282 1226 1179
0 0 0 0 0 0 0 0 0 0 0 0 0 0 0 0 0 3 26 120 242 644 795 948 1074 615 578 835 1300 1695 2783 3851 4179 4111 4178 4191 3891 2248 1959 2236 1866 1602 1352 1251
0 0 0 0 0 0 0 0 0 0 0 0 0 0 0 0 0 0 0 5 115 366 636 861 1012 1015 649 1122 1816 2243 2905 3799 4175 3997 4190 4303 4150 3693 2466 2538 3252 1886 3021 1360
0 0 0 0 0 0 0 0 0 0 0 0 0 0 0 0 0 0 0 0 13 314 625 709 870 1163 1407 1010 1729 2320 2804 3851 3976 3993 4076 4143 4206 4142 3632 3450 3619 3179 2983 3684
0 0 0 0 0 0 0 0 0 0 0 0 0 0 0 0 0 0 0 0 0 78 501 651 589 1010 1530 1306 1178 2021 2842 3405 3958 4050 4050 4165 4109 4078 4204 3753 3888 3854 4379 4385
0 0 0 0 0 0 0 0 0 0 0 0 0 0 0 0 0 0 0 0 0 0 42 164 501 946 1155 1631 1427 1597 1916 2412 3660 3726 3955 4029 4100 4107 4033 4129 3821 4196 4146 4498
0 0 0 0 0 0 0 0 0 0 0 0 0 0 0 0 0 0 0 0 0 0 22 61 151 924 1149 1385 2288 2212 2282 1965 2203 3355 3387 3882 4029 4089 4044 4069 4204 4125 4359 4371
0 0 0 0 0 0 0 0 0 0 0 0 0 0 0 0 0 0 0 0 0 0 1 43 186 693 1193 1668 2501 2772 2188 1829 2187 2588 3063 3583 4007 4065 4048 4033 4196 4237 4368 4406
0 0 0 0 2 0 0 0 0 0 0 0 0 0 0 0 0 0 0 0 0 0 0 0 30 126 326 1281 2333 3086 2479 2627 2093 2986 3187 3520 3945 4234 4252 4185 4139 4331 4367 4393
0 0 0 0 0 0 0 0 0 0 0 0 0 0 0 0 0 0 0 0 0 0 0 0 0 74 262 386 1251 2336 3292 2606 3003 3212 3258 3848 4050 4269 4370 4335 4342 4386 4393 4386
0 0 0 0 0 0 0 0 0 0 0 0 0 0 0 0 0 0 0 0 0 0 0 0 0 0 237 259 1321 1979 2917 3394 3309 3016 3862 3902 4175 4282 4446 4472 4471 4477 4482 4445
0 0 0 0 0 0 0 0 0 0 0 0 0 0 0 0 0 0 0 0 0 0 0 0 0 0 3 122 439 1533 1503 3569 3593 3724 3373 4044 4137 4269 4461 4595 4558 4596 4539 4555
0 0 0 0 0 0 0 0 0 0 0 0 0 0 0 0 0 0 0 0 0 0 0 0 0 0 0 0 120 596 1972 2424 3409 3592 3668 3760 4157 4336 4495 4541 4598 4609 4604 4637
0 0 0 0 0 0 8 3 0 0 0 2 0 0 0 0 0 0 20 13 110 18 9 10 0 0 0 0 0 2 1188 2876 3630 3634 3763 3944 4321 4434 4431 4526 4692 4656 4718 4594
0 0 0 0 0 0 3 4 7 0 158 118 50 67 74 69 305 447 267 295 353 297 204 161 122 53 158 245 388 1053 1139 2794 3269 3144 3746 4275 4328 4521 4588 4733 4744 4739 4646 4114
37 0 0 0 0 0 0 0 0 61 30 44 7 6 15 0 0 6 57 74 322 836 763 413 242 264 488 404 1578 2307 2843 3186 4130 4112 4000 4332 4502 4148 3903 4810 4845 4791 4716 4646
4 48 0 0 0 0 0 0 1 0 0 1 0 0 0 0 0 0 0 26 434 1215 1433 1110 701 1154 1656 1120 2388 2882 3490 4466 4364 4586 4546 4570 4709 4657 4409 4751 4930 4433 4673 3779
40 31 7 0 0 9 0 0 0 0 0 0 0 1 0 0 0 0 0 90 521 1596 1910 1650 1172 956 1820 2147 2314 3537 4015 4910 4782 4792 4751 4735 4842 4841 4704 4019 4027 3813 3556 3643
42 40 36 0 0 0 0 6 6 1 0 0 0 0 0 0 0 0 0 100 952 2076 2033 1659 2049 2006 1681 2162 2779 2606 3400 4145 4250 4186 3903 4563 4070 4316 4415 3393 3000 3373 3488 2969
58 73 10 0 34 40 27 16 3 0 0 0 0 0 0 0 0 0 0 25 1387 2093 2551 2467 2607 2679 3177 3427 3732 3650 3311 3512 4065 3771 3574 3144 2922 3796 3562 2986 2557 2815 2899 2814

GFSCGP_con_mucape_054.txt.gz
CAPE
0 0 0 0 0 0 5 0 0 17 7 109 76 244 82 75 52 228 498 380 234 342 542 652 558 597 697 889 1380 1353 2016 2443 2036 2005 1836 1830 1171 1581 1722 1737 2056 3144 3345 3492
0 0 0 0 0 0 0 0 0 0 53 45 71 364 108 75 109 323 383 456 465 335 365 665 681 590 582 872 1203 1562 1853 2318 2470 1878 1902 1574 1830 1272 1059 1387 2230 2919 2931 3590
0 0 0 0 0 0 0 0 0 1 78 20 87 90 202 304 806 794 571 737 702 640 478 568 674 622 556 887 1305 1600 1824 2823 2439 2126 2234 2671 2321 2398 1470 1186 1417 2348 2955 3531
0 0 0 0 0 0 0 0 0 11 99 73 76 107 385 166 224 363 573 703 715 840 764 361 504 572 582 820 1171 1708 1959 2359 2381 2548 1823 2067 1100 904 713 1276 1332 2168 2755 3043
0 0 0 0 0 0 0 0 0 2 1 11 76 84 33 82 113 63 242 645 556 933 830 587 362 477 514 701 1160 1472 2093 2191 2572 1936 2474 1752 1584 905 1445 1245 1758 2751 3189 3122
0 0 0 0 0 0 0 0 0 0 0 1 0 9 88 47 147 128 79 328 753 605 994 899 536 487 456 606 1011 1436 2211 2316 2543 2698 2177 3014 1743 1685 703 1431 1570 2315 2404 2881
0 0 0 0 0 0 0 0 0 0 0 0 0 0 1 60 104 79 124 282 500 952 1091 1117 845 508 565 639 806 1168 2328 2694 2705 2875 2694 2167 3209 1812 2006 2473 1544 1728 2016 2054
0 0 0 0 0 0 0 0 0 0 0 0 0 0 0 0 28 116 226 219 275 562 1165 1259 1177 693 611 601 863 1123 2107 2639 2961 2709 3290 2828 2665 2989 1489 1720 1707 1290 2113 1792
0 0 0 0 0 0 0 0 0 0 0 0 0 0 0 0 0 3 0 236 359 411 918 1172 1376 873 663 689 911 965 1815 2464 2838 3027 3305 3499 2683 2433 2738 1691 2118 2696 2291 1876
0 0 0 0 0 0 0 0 0 0 0 0 0 0 0 0 2 0 0 0 185 424 713 1051 1242 1147 813 703 921 985 1688 2313 2889 3162 3232 3322 3539 2572 2177 2923 1934 1747 2692 4180
0 0 0 0 0 0 0 0 0 0 0 0 0 4 18 45 0 2 0 0 1 358 586 870 1122 1391 1091 818 871 1089 1246 2490 2964 3288 3451 3400 3391 3541 2873 2184 2688 2278 2700 2809
0 0 0 0 0 0 0 0 0 0 0 0 0 1 0 10 5 0 0 10 0 47 532 878 1177 1354 1467 1265 1078 1271 1477 1797 2924 3391 3513 3478 3565 3632 3521 2873 2720 2814 3059 3919
0 0 0 0 0 1 0 0 0 0 0 0 0 0 0 0 0 3 0 0 105 225 846 1025 927 1188 1576 1650 1533 1468 1723 1851 2396 3234 3601 3592 3585 3684 3683 3578 2956 3187 3294 3113
0 0 0 0 0 0 0 0 0 0 0 0 0 0 0 0 0 0 0 0 8 463 447 997 1059 879 1475 1858 1948 1893 1796 1949 2195 2758 3413 3598 3647 3722 3814 3734 3637 3363 3224 3717
0 0 0 0 0 2 0 0 0 0 0 0 0 4 3 3 0 0 74 74 175 405 292 878 665 1015 1659 2333 2332 2324 2192 2126 2107 2526 3042 3421 3580 3767 3759 3820 3749 3804 3695 3454
0 0 0 0 0 1 0 0 0 0 0 0 0 16 20 1 0 0 12 0 25 1 4 19 64 255 1058 2173 2646 2639 2489 2726 2483 2720 2718 3334 3562 3730 3943 3880 3895 3819 3928 3863
1 0 0 0 0 0 0 0 0 0 0 0 0 54 207 14 5 4 36 0 0 0 84 0 0 610 1666 1751 2870 3111 2948 2773 3025 2971 3275 3393 3661 3752 3895 4066 4009 3998 3929 4020
8 0 0 1 31 0 0 0 0 1 0 0 0 5 10 34 43 40 17 0 0 0 15 66 0 24 581 346 434 2554 2716 3927 3217 3443 3582 3746 3910 3868 4021 4086 4177 4138 4079 4066
0 3 0 2 36 0 0 0 0 0 0 3 3 5 2 1 4 5 0 0 1 21 74 77 0 0 520 370 556 2480 2273 2922 4069 3594 3848 3482 3826 4091 4077 4168 4210 4284 4243 4261
0 0 0 0 21 1 0 0 0 0 2 351 5 0 0 0 0 419 768 362 335 459 656 649 463 328 597 767 248 2820 2424 3309 3578 3657 3567 3884 3695 4014 4147 4134 4292 4365 4404 4303
0 0 0 0 0 0 0 0 0 0 339 28 30 19 370 203 287 174 54 14 74 412 772 1265 973 742 1104 1742 2070 2104 2735 3281 3590 3637 3790 3814 3737 3970 4184 4329 4364 4436 4456 4343
42 0 0 0 0 0 0 0 40 65 93 31 0 0 0 0 0 0 0 1 47 528 728 1295 1542 1681 1579 1787 2262 3455 3331 3720 4333 4410 4027 3984 4325 3632 4089 4387 4428 4503 4498 4407
0 29 11 0 0 1 0 0 3 0 16 48 15 0 0 0 0 0 0 59 69 409 786 1909 2323 2514 2337 2770 3833 3478 3807 4750 5197 4497 4537 4367 4289 4342 3843 4391 4417 4520 4562 4481
0 0 0 0 0 0 0 0 0 0 0 0 38 18 0 0 0 0 0 0 14 151 354 1865 3170 2529 2932 2884 2673 4413 4712 4785 4916 5271 4806 4729 4650 4514 4390 4213 4405 4542 4460 4447
0 7 0 0 0 0 0 0 0 0 0 0 7 26 0 0 0 0 0 0 0 117 189 1960 2883 3216 3679 3957 3946 3776 4289 4336 3948 4977 4856 4769 4581 4446 4673 3607 3965 4295 4190 3883
17 7 0 0 3 1 0 0 0 0 0 0 0 0 0 0 0 0 0 0 0 76 230 1680 2279 2889 3895 4580 4580 4719 5161 4953 4328 4573 4620 4402 4050 4471 4358 3717 2924 3441 3623 3467

GFSCGP_con_mucape_057.txt.gz
CAPE
0 0 0 0 0 0 0 0 3 5 30 56 105 53 83 157 175 304 212 173 322 505 494 480 624 570 378 287 276 134 539 672 570 1028 862 1281 738 774 116 178 1312 1560 1550 1542
0 0 0 0 0 0 0 0 0 3 43 79 192 154 91 50 59 61 146 254 182 261 293 443 433 467 395 410 96 540 385 835 630 1075 646 1090 975 534 322 219 333 1653 1844 2087
0 0 0 0 0 0 0 0 0 0 1 88 180 131 62 11 26 49 215 295 244 150 192 294 159 152 103 440 300 161 658 1268 826 1035 931 783 918 448 455 258 84 1506 1288 1844
0 0 0 0 0 0 0 0 0 0 13 70 37 81 97 93 96 45 208 290 166 137 145 243 153 176 213 359 534 201 920 1268 1045 1191 1051 763 442 529 736 136 274 913 1783 2195
0 0 0 0 0 0 0 0 0 0 7 19 59 56 98 88 1 127 207 351 273 213 131 187 171 194 180 278 486 472 510 1390 1310 1078 889 959 712 643 204 401 213 610 1316 1401
0 0 0 0 0 0 0 0 0 0 1 0 0 35 40 54 51 129 338 484 375 344 253 169 250 179 192 363 571 705 583 969 1099 1214 1117 648 763 564 395 187 274 679 1850 1718
0 0 0 0 0 0 0 0 0 0 0 0 0 8 0 35 60 184 488 622 542 463 459 388 379 191 243 364 536 817 781 783 1390 973 730 1279 793 642 219 183 316 954 2035 1760
0 0 0 0 0 0 0 0 0 0 0 0 0 0 0 0 10 27 489 482 609 548 544 552 504 455 215 242 510 788 944 853 1023 1503 1035 550 1121 1198 544 821 301 350 1251 1810
0 0 0 0 0 0 0 0 0 0 0 0 0 0 0 0 0 0 24 537 605 583 622 625 582 602 396 245 425 688 1017 1002 1110 1206 1452 1286 644 1357 1558 388 849 1345 609 1270
0 0 0 0 0 0 0 0 0 0 0 0 0 0 0 0 2 0 6 11 225 512 730 676 634 650 539 398 343 482 1089 1209 1336 1319 1457 1586 1540 813 1519 1629 533 537 935 1414
0 0 0 0 0 0 0 0 0 0 0 0 0 0 0 0 0 13 0 1 80 260 754 764 686 678 625 494 432 464 692 1412 1609 1739 1428 1834 2085 1768 1063 1608 1865 752 708 1113
0 0 0 0 0 0 0 0 0 0 0 0 0 0 0 0 0 0 0 0 32 126 863 877 817 709 665 566 545 515 753 1263 1595 1745 1925 1619 1983 2459 2059 1156 1312 1932 956 1327
0 0 0 0 0 0 0 0 0 0 0 0 0 0 0 0 0 0 0 0 0 148 789 938 960 792 722 636 591 625 560 1139 1425 1724 1853 2281 2098 2262 2620 2357 1391 1373 1813 1334
0 0 0 0 0 0 0 0 0 0 0 0 0 0 0 0 5 0 0 0 0 0 506 840 1055 926 808 724 579 635 566 655 1501 1671 2137 2208 2605 2516 2494 2699 2522 1660 1777 1840
0 0 0 0 0 0 0 0 0 0 0 0 0 0 0 0 10 14 46 23 16 51 580 852 936 1079 921 809 667 600 579 618 750 2018 2203 2470 2547 2691 2637 2589 2742 2603 1813 2314
0 0 0 0 0 0 8 0 0 0 0 0 0 0 0 0 4 12 0 0 15 170 386 728 900 1030 1103 1100 902 760 693 858 1005 1091 2273 2474 2784 2795 2768 2841 2809 2912 2805 2122
0 0 0 0 1 0 0 0 1 0 0 0 0 0 4 0 26 0 0 0 0 2 2 236 478 600 1019 1211 1293 1264 1209 1070 1225 1453 1478 2363 2724 2936 2960 3044 3060 3036 3007 3015
0 0 0 0 18 0 0 2 5 0 0 0 0 42 14 12 81 13 0 0 0 1 0 3 20 135 646 1643 1752 1574 1579 1741 1526 1540 1861 1841 2557 2937 2980 2978 3107 3056 3088 3093
0 0 0 1 12 0 20 2 6 13 54 11 186 307 113 303 245 222 225 252 302 396 568 448 103 95 53 189 492 2271 1868 2037 2361 2277 2146 2229 2649 2959 3057 3051 3131 3233 3200 3197
0 0 1 0 0 21 44 5 0 0 33 28 86 267 279 229 121 43 75 96 228 393 524 935 940 661 159 453 516 1509 2709 2662 2315 2315 2951 3052 2838 3042 3064 3267 3246 3466 3413 3352
0 0 2 11 17 24 31 7 0 18 0 30 88 144 270 10 0 0 19 17 172 177 483 1059 1387 1434 1438 740 398 828 1344 2376 2893 2919 2555 3019 3327 3247 3354 3284 3437 3501 3678 3684
0 0 6 13 39 27 1 6 3 0 1 41 77 128 29 0 0 0 3 0 0 4 261 968 1432 2033 2370 1804 865 436 1636 1286 1384 2955 3118 3168 3154 3348 3589 3665 3629 3718 3779 3856
3 0 0 0 5 0 0 0 0 2 0 48 40 68 6 0 0 0 0 0 0 0 46 1328 1823 2010 2204 2450 2270 1561 1268 1994 2656 3809 3320 3210 3200 3326 2924 3698 3799 3821 3901 3943
0 2 0 0 0 0 0 0 0 0 0 12 9 0 0 0 0 0 0 0 0 0 183 1471 1618 1712 1850 2046 2629 3231 1867 2729 3502 2845 3949 3606 3423 3775 3298 3690 3786 3938 4012 4057
0 0 0 0 0 0 0 0 0 0 0 5 0 0 0 0 0 0 0 0 0 0 0 0 38 321 949 1806 3389 3778 3587 2889 2304 2247 4320 4302 3889 3610 3803 3279 3889 3963 3994 4045
0 0 0 0 0 0 0 0 0 0 0 0 0 0 0 0 0 0 0 0 0 0 0 0 0 343 867 1343 2703 3362 3685 3848 4115 3107 2976 4451 4225 3974 3980 3700 3272 3374 4005 4000

GFSCGP_con_mucape_060.txt.gz
CAPE
0 0 0 0 0 0 0 0 0 0 51 146 71 65 18 21 293 431 434 367 279 150 149 191 117 58 31 159 226 64 43 135 260 349 541 426 335 348 532 207 435 481 865 1462
0 0 0 0 0 0 0 0 0 0 4 61 154 122 103 48 17 183 496 481 385 335 218 146 75 74 21 93 185 122 113 57 172 170 237 496 319 206 383 291 449 640 889 1336
0 0 0 0 0 0 0 0 0 0 22 64 85 61 56 27 11 108 351 486 442 384 340 302 204 282 242 65 81 134 210 178 179 323 228 614 650 358 327 304 12 846 1043 1342
0 0 0 0 0 0 0 0 0 0 44 2 83 20 6 42 41 69 143 170 240 219 337 352 353 250 388 220 64 99 286 297 246 573 305 361 611 765 401 226 45 276 1174 1510
0 0 0 0 0 0 0 0 0 32 1 0 19 30 80 55 13 15 40 120 138 109 191 347 395 323 350 454 129 107 410 393 355 636 455 360 358 700 706 258 146 28 911 1178
0 0 0 0 0 0 0 0 0 12 0 0 0 16 0 1 12 0 0 61 88 122 94 212 224 301 419 478 346 183 329 634 521 655 623 474 332 245 396 402 343 83 304 1074
0 0 0 0 0 0 0 0 0 0 0 0 0 9 0 0 3 4 20 26 88 190 100 144 83 170 207 235 275 202 272 558 724 641 671 573 474 402 261 321 139 206 534 1046
0 0 0 0 0 0 0 0 0 0 0 0 0 0 0 0 49 21 7 9 84 183 209 148 87 104 163 125 243 215 110 356 669 757 623 611 613 564 492 340 251 24 465 1062
0 0 0 0 0 0 0 0 0 0 0 0 0 0 0 0 0 0 0 0 118 199 336 278 172 218 288 158 243 334 243 188 623 629 735 698 649 504 353 415 243 52 157 1135
0 0 0 0 0 0 0 0 0 0 0 0 0 0 0 0 0 0 0 23 136 307 460 401 355 318 411 350 259 389 399 272 281 749 586 439 561 898 1052 453 359 449 235 495
0 0 0 0 0 0 0 0 0 0 0 0 0 0 0 0 15 24 3 160 309 466 497 511 475 476 441 486 283 442 550 448 420 515 804 760 582 332 564 1483 1207 337 404 842
0 0 0 0 0 0 0 0 0 0 0 0 0 0 0 0 0 0 0 71 418 529 508 601 612 581 522 587 469 407 592 698 564 639 638 865 939 877 462 412 1323 1563 870 237
8 0 0 0 0 0 0 0 0 0 0 0 0 0 0 0 0 0 0 0 177 558 637 699 711 638 628 660 591 492 550 805 790 837 847 896 1172 1337 1286 826 548 1337 1586 1148
0 0 0 0 0 0 0 0 0 0 0 0 0 0 0 0 0 0 0 0 0 560 675 754 717 663 705 722 666 584 449 777 975 1126 1257 1158 1141 1624 1944 1682 1209 721 1097 1495
0 0 0 0 0 0 0 0 0 0 0 0 0 0 0 0 0 1 0 0 0 303 590 758 743 740 758 780 724 637 495 508 945 1237 1327 1447 1449 1327 1756 2165 1958 1605 1165 975
0 0 0 0 0 0 0 0 0 0 0 0 0 0 0 0 0 5 0 0 2 454 744 851 844 796 788 831 763 671 521 490 814 1156 1331 1366 1556 1907 1738 1861 2128 2238 1987 1721
0 2 0 0 0 0 0 0 1 0 0 0 0 0 0 0 5 8 88 113 80 398 811 937 909 859 880 862 783 705 617 485 856 1134 1181 1467 1695 1875 2224 2170 2151 2252 2361 2161
0 0 0 0 12 6 0 0 1 0 0 0 0 21 30 242 304 346 326 170 97 249 594 926 1034 1047 914 831 819 807 680 598 565 915 1538 1626 1929 2158 2282 2382 2358 2364 2428 2529
0 0 0 2 10 3 12 3 3 5 0 0 1 236 321 237 231 312 440 549 743 845 571 436 756 979 1097 1056 978 858 818 716 678 721 796 1759 2077 2377 2523 2616 2621 2630 2694 2687
0 0 10 3 5 12 7 11 10 4 1 25 157 264 148 44 89 118 218 425 631 955 1206 1467 1770 1760 832 1059 1220 1381 1251 1172 1037 992 1142 1177 1681 2351 2584 2686 2744 2856 2848 2881
0 17 27 9 4 3 2 8 25 64 19 65 202 205 31 1 0 35 78 192 381 657 1266 1694 1894 1995 1980 1798 932 1395 2018 1969 1753 1695 1511 1626 1609 1746 2385 2660 2750 2746 2941 2924
0 29 33 2 0 24 0 8 77 22 27 42 60 21 0 0 0 0 22 23 132 278 592 984 1543 1683 1656 2107 2840 2800 1795 1426 2066 2618 2369 2396 2311 2137 2381 2613 2778 2878 2900 3116
0 0 15 0 0 0 0 16 0 0 16 12 23 0 0 0 0 0 4 1 2 55 291 319 341 1045 1343 1765 2691 3013 3677 2615 947 1816 2269 2692 2606 2869 2914 2847 2803 3024 3133 3198
0 0 0 0 0 0 0 0 0 0 15 6 47 0 0 0 0 0 0 0 0 0 31 108 92 79 546 1384 1870 2733 3317 3534 2415 1784 1986 2794 2870 2872 2942 3200 3187 3213 3332 3368
0 0 0 0 0 0 0 0 0 0 0 28 0 0 0 0 0 0 0 0 0 0 0 0 0 0 0 398 1578 1947 2938 3170 3334 3370 2656 2277 3223 3248 3072 3062 3409 3472 3518 3578
0 0 0 1 0 0 0 0 0 0 0 0 4 0 0 0 0 0 0 0 0 0 0 0 0 0 0 14 429 1190 2233 2416 2680 2953 3086 3167 3289 3200 3548 3237 2978 3243 3540 3677

GFSCGP_con_mucape_066.txt.gz
CAPE
0 0 0 0 0 0 0 0 0 50 54 20 42 53 317 198 202 115 65 71 54 31 55 112 146 125 118 33 3 0 0 0 22 55 46 37 42 445 232 376 471 615 799 941
0 0 0 0 0 0 0 0 0 8 40 0 0 45 172 191 208 168 93 89 68 39 8 70 80 74 88 80 0 0 0 0 0 40 80 65 38 323 443 258 377 765 637 1058
0 0 0 0 0 0 0 0 0 0 59 35 107 42 12 182 151 115 77 86 53 69 36 39 68 26 45 68 1 0 0 0 0 10 64 149 118 201 266 339 187 491 442 933
0 0 0 0 0 0 0 0 0 0 55 22 72 0 0 39 226 231 133 98 117 72 56 0 8 88 74 80 55 0 0 0 0 0 8 143 186 155 36 160 223 71 307 544
0 0 0 0 0 0 0 0 0 0 57 26 10 0 0 2 0 133 283 290 245 147 78 43 0 0 103 92 55 0 0 0 0 0 1 51 181 82 0 0 65 143 230 477
0 0 0 0 0 0 0 0 0 0 59 22 2 0 0 0 10 2 15 147 292 281 209 106 0 0 0 56 25 3 17 0 0 0 0 0 46 55 0 0 0 30 89 379
0 0 0 0 0 0 0 0 0 0 16 0 1 0 0 0 8 2 11 16 33 238 256 231 117 1 0 0 13 14 9 22 20 26 5 3 0 0 0 0 0 0 9 33
0 0 0 0 0 0 0 0 0 0 0 0 0 0 0 0 0 0 0 2 11 65 292 235 177 161 18 0 20 38 1 14 7 28 66 22 5 0 0 0 0 0 0 4
0 0 0 0 0 0 0 0 0 0 0 0 0 0 0 0 0 0 0 0 0 13 89 236 252 235 234 15 2 25 13 46 5 0 12 34 13 0 0 1 0 0 39 29
0 0 0 0 0 0 0 0 0 0 0 0 0 0 0 0 0 0 7 0 0 12 32 66 111 213 275 306 115 36 49 131 176 151 9 38 46 0 13 14 12 16 12 50
0 0 0 0 0 0 0 0 0 0 0 0 0 0 0 0 0 11 40 0 6 3 31 60 56 77 111 198 227 187 183 189 203 233 247 133 119 84 42 37 41 30 28 30
0 0 0 0 0 0 0 0 0 0 0 0 0 0 0 0 0 2 29 20 37 65 21 36 62 75 72 49 125 182 200 276 308 267 267 320 244 170 104 101 95 83 51 75
0 0 0 0 0 0 0 0 0 0 0 0 0 0 0 0 0 0 0 2 27 69 31 24 46 70 47 51 80 169 222 266 301 294 292 318 334 218 150 127 106 114 136 154
4 0 0 0 0 0 0 0 0 0 0 0 0 0 0 0 0 0 0 0 32 64 0 29 18 86 50 66 88 276 196 228 249 271 285 326 328 251 241 298 403 185 167 187
0 0 0 0 0 0 0 0 0 0 0 0 0 0 0 0 0 0 0 0 0 6 1 22 22 65 83 81 73 154 343 218 235 240 266 305 289 260 224 196 268 569 530 410
0 0 0 0 0 0 0 0 0 0 0 0 0 0 0 7 0 0 0 0 1 0 0 12 41 68 84 82 102 116 367 429 320 258 255 193 311 416 388 336 221 197 210 654
0 0 0 0 0 0 0 0 0 0 0 0 0 0 0 0 0 0 0 0 0 48 72 0 32 127 120 115 131 154 271 564 471 392 295 269 286 429 559 616 671 612 401 369
0 0 0 0 0 0 0 0 0 0 0 0 0 19 217 228 326 260 60 13 8 22 313 42 38 202 233 197 216 222 295 636 546 447 426 436 478 496 564 744 954 1028 983 761
0 0 0 0 0 0 32 18 2 15 0 0 10 238 496 584 693 388 522 611 174 283 474 473 248 287 297 302 291 315 411 565 536 553 585 693 761 803 794 843 996 1300 1567 1527
0 1 0 0 0 0 72 75 15 0 18 49 36 454 383 210 339 294 637 974 819 660 520 572 457 429 411 400 452 439 523 511 581 642 759 902 1015 1090 1201 1205 1091 1182 1462 1741
5 31 0 0 0 18 68 86 50 10 0 54 75 283 232 153 73 401 751 1005 1104 922 781 871 798 913 1144 602 588 580 622 674 710 707 680 908 1074 1198 1215 1345 1602 1745 1772 1847
21 2 0 0 0 9 1 75 39 37 4 36 22 216 127 93 266 630 679 1237 1383 1401 1662 1637 1363 1243 1263 1585 865 828 807 731 799 799 856 879 1014 1132 1323 1504 1608 1872 2019 2113
0 1 12 0 6 20 0 19 4 43 34 52 7 108 85 190 343 687 781 778 951 1169 1408 1831 1988 2005 1904 1834 1878 1783 1366 986 961 932 850 952 1031 1411 1557 1705 1913 2073 2236 2306
0 0 14 0 11 0 0 7 0 14 3 8 1 50 43 120 298 420 583 647 712 820 958 1227 1604 1796 1904 1934 1949 1971 2020 1531 1507 1447 1525 1509 1765 1931 1988 1966 2029 2254 2391 2461
0 0 0 0 0 0 0 0 0 4 5 3 2 10 0 37 145 334 463 551 502 577 594 755 853 1090 1408 1592 1681 1819 1873 1922 2050 2235 2336 2379 2350 2244 2182 2200 2191 2155 2393 2512
0 0 0 0 0 0 0 0 3 12 0 1 2 5 0 5 59 135 308 388 381 321 330 377 435 508 636 853 1182 1345 1518 1622 1679 1755 1822 1987 2202 2438 2700 2526 2531 2549 2663 2647

GFSCGP_con_mucape_069.txt.gz
CAPE
0 0 0 0 0 0 0 0 0 0 35 5 12 165 569 482 136 207 219 157 137 96 121 182 279 357 351 345 287 298 295 505 667 373 306 516 651 906 1361 1002 1409 1595 1742 2005
0 0 0 0 0 0 0 0 0 0 79 7 0 0 184 573 507 273 161 118 147 142 159 263 318 318 322 409 341 289 256 339 672 372 550 656 840 860 1313 1125 1397 1669 1884 2121
0 0 0 0 0 0 0 0 0 0 36 57 29 1 80 489 550 447 305 165 98 133 172 262 345 325 281 357 405 419 473 507 566 763 615 752 770 770 1024 1121 1166 1553 1782 1895
0 0 0 0 0 0 0 0 0 0 0 19 11 9 111 301 535 474 476 380 325 212 174 186 252 335 325 349 382 449 627 643 505 735 741 1197 863 712 730 1150 1149 1349 1589 1596
0 0 0 0 0 0 0 0 0 0 0 1 3 14 0 119 395 565 506 466 432 388 284 221 262 287 279 271 266 303 500 855 927 953 1144 939 1374 918 830 835 1312 1290 1505 1561
0 0 0 0 0 0 0 0 0 0 0 0 0 0 0 0 22 261 557 530 435 392 379 342 295 306 284 215 142 167 547 905 1026 943 1014 1360 1650 1130 743 771 742 903 990 1339
0 0 0 0 0 0 0 0 0 0 0 0 0 1 0 0 0 1 198 585 590 452 437 431 377 278 371 389 267 400 719 829 924 954 1071 1168 1524 1620 1367 1353 761 973 580 769
0 0 0 0 0 0 0 0 0 0 0 0 0 0 0 0 0 1 87 197 370 653 569 550 517 553 565 653 793 680 834 891 808 867 1091 1334 1492 671 735 1099 718 524 413 438
0 0 0 0 0 0 0 0 0 0 0 0 0 0 0 0 0 0 0 28 117 226 658 647 591 545 647 795 829 733 971 1064 957 817 1051 1243 1275 1207 934 1469 1207 644 987 324
0 0 0 0 0 0 0 0 0 0 0 0 0 0 0 0 0 0 0 1 9 82 166 565 640 707 799 667 798 781 825 1040 1091 982 1023 1106 1222 1313 1289 1206 1313 1360 1009 810
0 0 0 0 0 0 0 0 0 0 0 0 0 0 0 0 0 0 0 0 29 120 145 297 772 917 845 628 580 741 703 920 992 1048 1111 1227 1282 1034 1099 1016 1017 1409 1201 1072
0 0 0 0 0 0 0 0 0 0 0 0 0 0 0 0 0 0 0 0 2 101 188 304 577 769 749 955 641 761 704 511 848 967 1169 1222 1355 1422 984 1220 984 941 1224 1109
0 0 0 0 0 0 0 0 0 0 0 0 0 0 0 0 0 0 0 0 0 47 149 210 234 754 1058 1171 1132 995 796 506 436 826 796 1191 1379 1305 1547 1507 1457 1202 1210 1304
9 0 0 0 0 0 0 0 0 0 0 0 0 0 0 0 0 0 0 0 0 8 71 150 174 487 888 1033 1317 1196 1072 782 713 711 855 1267 1454 1501 1485 1591 1653 1269 1499 1508
46 0 0 0 0 0 0 0 0 0 0 0 0 0 0 0 0 16 0 6 34 51 25 34 151 443 782 945 1186 1330 1240 1200 1008 1109 1173 1343 1565 1594 1711 1755 1674 1385 1427 1570
22 0 0 0 0 0 0 0 0 0 0 0 0 0 0 0 5 0 0 0 0 45 126 51 74 246 840 872 1003 1248 1343 1279 1211 1257 1310 1575 1717 1757 1768 1841 1911 1825 1678 1377
27 0 0 0 0 0 0 0 0 0 0 0 0 0 0 0 0 0 0 0 0 0 20 116 479 262 993 923 896 1135 1351 1414 1273 1272 1430 1672 1833 1863 1865 1839 1822 2026 2182 1804
7 0 0 0 0 0 48 0 0 0 0 0 0 0 0 0 2 13 11 20 25 2 1 16 108 579 590 663 577 1019 1018 1481 1425 1385 1430 1557 1800 1856 1913 1899 1921 1886 1434 1810
11 34 6 0 0 0 17 9 0 1 0 0 0 0 1 55 92 47 18 103 137 121 208 187 517 858 219 785 1098 1266 1336 1476 1501 1533 1570 1586 1602 1783 2003 2032 2021 1912 1888 1877
8 69 87 0 0 0 46 25 49 9 9 0 6 13 137 348 123 3 97 219 387 473 416 290 1149 599 275 1022 734 1315 1455 1581 1658 1695 1700 1750 1759 1857 1953 2053 2172 2326 2349 2159
6 60 9 0 0 5 26 69 101 40 0 22 9 18 158 303 0 0 112 434 742 698 438 346 888 1038 1067 1261 1284 1416 1558 1679 1659 1423 1528 1891 2010 2075 2207 2283 2407 2487 2489 2586
0 33 29 34 0 0 43 40 95 33 56 83 59 50 130 291 0 5 235 834 1117 1483 732 485 413 477 1213 927 1462 1654 1705 1670 1925 2051 1946 2230 2306 1813 1779 2719 2538 2643 2773 2774
10 10 143 31 23 0 2 39 18 72 75 136 70 9 81 167 29 98 452 729 982 1387 1249 930 696 595 580 935 1510 1177 1496 1234 1528 1938 2322 2450 2592 2488 2623 2782 2732 2518 2773 2516
0 0 0 0 0 0 0 0 0 0 55 85 69 19 38 61 148 274 504 488 911 1280 1482 1322 1155 957 877 857 815 886 1597 1664 1467 1833 1906 1855 2006 2221 2402 2210 2285 2321 2389 2605
0 0 0 0 0 3 3 0 0 1 36 73 22 7 56 38 266 348 323 323 477 893 1209 1530 1416 1292 1285 1251 1272 1407 1462 1747 2288 2175 1926 1561 1636 1799 2230 2408 2285 2386 2936 2540
0 0 0 2 0 0 0 0 1 1 13 7 11 3 38 100 345 453 308 207 245 379 577 979 1486 1542 1534 1461 1314 1393 1501 1669 1784 1850 1954 2267 2830 2851 2369 2177 2006 2072 2114 2334

GFSCGP_con_mucape_072.txt.gz
CAPE
0 0 0 0 0 0 0 0 0 0 21 87 178 576 984 777 819 863 849 675 454 485 475 505 454 291 65 236 383 396 281 343 429 259 229 542 780 946 1252 1483 1742 2197 2176 2315
0 0 0 0 0 0 0 0 0 0 0 0 118 200 470 1028 763 912 940 855 471 487 524 523 521 478 164 229 389 432 386 494 680 132 226 411 752 946 1196 1345 1821 1996 2191 2425
0 0 0 0 0 0 0 0 0 0 0 0 58 150 83 327 790 599 828 919 617 463 522 522 587 565 453 242 460 517 731 659 676 520 247 924 1165 1302 1490 1457 1525 1746 2054 2253
0 0 0 0 0 0 0 0 0 0 0 1 0 78 100 62 625 684 752 833 764 538 486 583 538 609 603 395 446 608 671 815 602 1012 1221 1996 1037 877 534 973 944 1126 1824 1919
0 0 0 0 0 0 0 0 0 0 0 0 70 103 84 159 410 650 783 778 722 669 534 475 662 706 679 674 473 622 787 1212 1255 1384 1561 1262 1389 320 490 601 1307 1864 1934 1983
0 0 0 0 0 0 0 0 0 0 0 0 0 9 22 171 359 661 716 773 829 777 694 635 570 704 784 677 523 501 1044 1613 1353 1220 866 1652 2186 1462 908 1100 859 968 1090 1383
0 0 0 0 0 0 0 0 0 0 0 0 0 0 0 29 180 247 535 790 871 907 937 852 717 625 732 810 722 581 1710 2219 1587 1001 943 1370 1822 1937 1737 1620 1169 1309 622 657
1 0 0 0 0 0 0 0 0 0 0 0 0 0 0 0 0 4 40 172 517 764 914 972 936 813 729 827 855 941 1847 2297 1746 1421 1950 2220 2357 1172 1305 1514 1019 931 670 487
1 0 0 0 0 0 1 0 0 0 0 0 0 0 0 0 0 0 0 6 128 561 748 852 927 957 914 861 1245 1372 2092 2524 2254 1267 2436 2443 2484 2167 1318 2585 1668 1185 1301 786
0 0 0 0 0 0 0 0 2 3 0 0 0 0 0 0 0 0 0 0 7 45 425 668 799 971 1005 974 971 1002 1681 2266 1789 1602 1812 1503 1703 1991 2054 1576 1910 1877 1386 1365
0 0 0 0 0 2 0 0 11 10 2 0 0 0 0 0 0 0 0 0 0 0 10 375 721 928 1094 1064 1080 1112 1134 1361 1456 1674 2029 2303 1799 1611 1659 1278 1521 1834 1855 1722
0 0 0 0 7 0 0 16 11 41 24 7 6 1 0 0 0 0 0 0 0 0 18 117 562 1024 1121 1222 1149 1189 1165 1138 1330 1925 2499 2157 2147 2405 1427 1665 1560 1718 1937 2059
0 0 0 0 0 0 0 8 0 37 29 30 22 3 3 0 0 0 0 0 0 0 0 116 272 848 1227 1236 1612 1254 1218 1085 1057 1622 1405 1718 1823 1788 2275 2170 1914 1815 2012 2049
3 0 0 0 0 0 0 0 0 3 32 15 18 56 1 0 0 0 0 2 3 0 1 55 328 554 1226 1601 2114 2068 1348 1170 976 1008 1226 2158 2517 2565 2069 2614 2679 2098 2405 2162
31 0 0 0 0 0 0 0 0 0 0 0 19 32 2 19 0 0 40 2 9 53 36 10 233 453 894 1545 2115 2094 1451 1935 1566 1801 1382 2255 2901 2908 3145 3098 2974 2511 2464 2190
68 0 0 0 0 0 0 0 0 0 0 0 0 0 5 2 0 0 52 33 30 68 103 183 216 50 390 992 1692 2060 2250 1929 2211 2452 2205 2623 3114 3192 3178 3224 3123 3035 2556 2706
80 67 0 0 0 0 0 0 0 0 0 0 0 0 0 0 0 43 13 17 18 55 101 239 330 593 388 556 1201 2046 2322 2086 2515 2839 2717 2931 3216 3344 3410 2892 3247 3358 3132 2871
92 105 82 0 0 0 0 159 29 13 0 0 0 3 0 0 35 0 0 0 0 0 18 177 367 431 654 587 602 1312 1552 2614 2922 2972 3029 3125 3341 3348 3329 3338 3359 3665 3003 3431
97 40 127 0 0 0 11 2 0 3 53 14 5 0 0 0 0 0 0 0 0 0 0 58 262 501 846 1062 694 1172 1392 1975 2366 2891 3109 3193 3077 3366 3231 3285 3402 3028 3216 3142
108 66 202 141 0 0 55 6 3 3 17 3 7 5 0 0 14 59 0 2 37 60 98 55 446 943 1621 1605 1021 1055 1502 2423 2869 2960 2938 3111 3141 3490 3458 3540 3559 3301 2760 2541
136 190 178 194 133 43 58 1 60 28 0 0 0 0 0 3 0 0 0 12 145 197 262 226 553 1280 2075 1260 1076 2127 2035 2511 2590 2056 1996 2739 2878 3488 3562 3710 3660 3611 3271 3199
37 0 172 138 152 20 9 19 5 8 6 1 31 18 1 4 40 5 0 37 279 523 734 476 389 803 2042 1338 1430 2864 2722 2220 2614 2669 2252 2960 3130 2387 2257 3482 3155 3145 3445 3587
10 155 197 181 157 148 15 22 0 0 5 23 73 107 14 3 24 24 0 47 384 548 846 506 487 577 1172 2202 1404 1790 2607 2629 2526 2769 2929 2974 2799 2449 3115 3376 3054 2831 3228 2921
0 0 59 81 178 107 1 16 9 0 0 36 71 152 67 13 44 40 2 153 401 652 964 781 610 489 521 812 1387 2101 2012 2098 2279 2466 2613 2645 2756 2741 2594 2687 2882 2825 2746 2797
0 0 0 0 29 0 0 0 0 0 0 0 13 15 97 46 35 99 25 197 388 663 695 959 843 598 492 422 498 702 1879 2001 2043 2332 2437 2604 2653 2701 2883 2910 2752 2739 3326 2656
0 0 0 0 0 0 0 0 0 0 0 0 12 27 33 91 76 94 100 226 391 612 925 1109 903 641 555 599 513 499 934 1745 2528 2503 2181 2096 2068 2348 2365 2498 2538 1974 2160 2200

GFSCGP_con_mucape_075.txt.gz
CAPE
0 0 0 0 0 0 0 0 0 0 23 25 85 340 809 753 853 1024 1004 890 618 762 670 565 439 335 116 39 288 409 978 2082 1171 857 662 989 737 1188 931 902 1611 1943 1895 1930
0 0 0 0 0 0 0 0 0 0 0 65 107 121 749 797 804 887 936 1024 675 785 630 691 529 389 223 117 370 1010 1420 2091 1347 719 1095 1033 1369 727 885 993 1794 1874 1825 2216
0 0 0 0 0 0 0 0 0 0 0 3 76 127 530 921 1029 892 918 1064 762 605 796 728 659 548 359 195 438 1072 1762 2016 1598 1269 1077 1211 1415 1556 945 1675 1455 1789 1766 1964
0 0 0 0 0 0 0 0 0 0 0 0 25 93 131 1010 786 737 776 1083 867 358 811 794 800 683 489 237 358 1272 1410 2083 1609 1998 890 1951 1080 774 720 1134 920 1685 1592 1705
0 0 0 0 0 0 0 0 0 0 0 0 10 15 35 153 407 670 679 816 975 628 578 788 824 773 682 386 280 494 1700 2068 1864 1836 1609 1317 1689 693 620 490 2930 3088 3026 1694
0 0 0 0 0 0 0 0 0 0 0 0 0 12 16 54 117 509 681 718 822 918 625 719 819 838 799 683 372 452 1815 2260 2190 2193 1841 2571 2087 1835 368 861 1345 1180 1429 1684
0 0 0 0 0 0 0 0 0 0 0 0 0 0 62 73 119 191 630 746 809 846 881 750 805 799 951 936 903 870 1905 2558 2340 2175 1746 2227 3021 2889 2702 2455 736 1100 567 640
3 0 0 1 0 0 0 0 0 0 0 0 0 0 0 9 88 71 398 677 794 923 940 910 874 896 994 1169 1736 1632 2074 2630 2546 2070 1937 1946 2703 1016 772 2197 1001 531 492 615
0 1 9 8 3 1 0 0 0 0 0 0 0 0 0 0 5 9 100 504 749 976 998 1025 992 956 937 1340 2038 2063 2316 2668 2683 2059 2235 2420 2343 2019 1146 2600 3065 1469 2159 709
0 0 1 34 25 14 10 9 0 1 0 0 7 0 0 0 0 14 1 199 336 777 792 901 1130 1097 1027 956 1373 2120 2334 2764 2825 2085 2531 2367 2351 2488 2621 3122 3505 2760 2679 2437
0 0 0 5 38 32 10 0 14 29 7 5 11 18 4 0 0 1 8 2 90 170 525 616 766 1015 1174 1106 1021 1267 1972 2564 2702 2474 2332 2376 2397 2169 2538 2402 3030 2885 3047 3138
0 0 0 0 0 0 7 45 8 69 48 17 36 48 12 2 0 1 5 44 46 57 180 301 591 807 1083 1246 1228 1277 1271 1318 2012 2302 2545 2467 2844 2652 2636 2527 2406 2947 3264 3652
2 0 0 0 0 0 5 0 27 24 59 106 58 59 27 17 4 14 13 27 38 49 48 45 178 757 1026 1265 1924 1541 1345 1247 1328 2221 2081 2689 2866 2952 2813 2916 2821 2778 3305 3592
0 0 0 0 16 1 28 0 22 57 86 37 70 95 95 47 73 121 153 141 85 42 3 13 202 530 1109 1756 2508 2593 1641 1387 1344 1420 1680 2556 3060 3145 2900 3083 3252 3228 3558 3764
16 0 0 0 0 0 0 1 24 71 37 47 54 91 91 85 47 164 145 93 20 0 104 17 170 417 934 1670 2962 2823 2015 2394 1943 2293 2082 2552 3219 3273 3375 3141 3389 3516 3648 3664
65 93 10 0 0 0 0 0 0 0 0 0 0 3 23 29 23 43 31 141 127 91 146 296 334 416 684 1187 1831 2910 2710 2732 2553 2726 2348 2591 3254 3566 3474 3371 3484 3728 3754 3821
194 140 113 0 0 5 0 0 0 0 0 0 0 0 6 4 10 216 209 69 77 43 98 286 500 634 719 530 1416 2173 2963 2605 2850 3392 2783 2894 3454 3697 3681 3603 3860 3985 4035 3970
146 166 123 167 82 0 1 20 34 63 3 0 0 5 0 19 39 27 60 0 0 0 0 11 156 529 665 563 543 1497 1815 3221 3260 3230 3620 3160 3560 3726 3929 4067 4108 4147 4161 4107
115 114 205 133 97 54 19 110 86 54 3 182 15 1 1 48 0 0 0 0 0 0 0 0 1 207 730 915 944 960 2093 2753 3307 3619 3648 3543 3567 3849 4099 4081 4169 4251 4291 4288
141 156 210 145 88 0 142 38 12 45 44 86 49 18 9 5 18 116 0 0 0 0 0 0 0 377 763 1124 1474 1236 1241 2672 3441 3370 3565 3915 3772 4027 4173 4222 4231 4316 4337 4188
211 297 240 206 147 100 166 103 8 22 78 16 16 0 0 0 1 0 0 0 0 0 0 33 7 317 1326 1700 2448 2695 2130 2482 3088 3026 3604 4129 4084 4201 4321 4456 4482 4481 4298 3631
67 174 299 264 175 86 222 96 57 159 44 0 0 0 0 0 0 0 0 0 0 0 47 152 217 339 1264 2046 3184 3463 2943 2988 3756 3655 3759 3969 4221 3706 3633 4503 4540 4466 4533 4453
42 25 98 167 188 206 257 162 77 71 21 2 0 0 0 0 0 2 0 0 0 0 58 183 316 267 564 1387 2260 2366 3951 3922 3830 3974 4024 4091 4068 4055 3957 4367 4540 3957 4428 3272
34 0 0 61 77 260 181 195 144 19 12 0 0 0 0 0 0 3 1 5 0 0 74 190 333 315 703 1266 1640 1822 1905 2504 3429 4070 4220 4103 4066 4095 3949 3448 3534 3180 3001 3099
0 0 0 0 55 4 52 0 0 0 1 9 0 0 0 0 0 5 9 38 1 1 97 196 255 255 464 870 1316 1602 1733 1857 3095 3097 3108 3677 3309 3316 3735 3489 3120 3071 3270 2654
0 0 0 0 0 0 0 0 0 0 0 0 0 0 0 0 0 42 26 52 28 16 187 278 316 243 322 557 1119 1312 1416 1526 1539 2771 3049 2904 2853 3124 3033 2968 2532 2388 2335 2277

GFSCGP_con_mucape_078.txt.gz
CAPE
0 0 0 0 0 0 0 0 0 0 0 0 0 190 228 82 0 184 510 537 523 443 521 540 485 412 115 81 559 1341 1426 1780 1529 1462 1420 1811 1738 2403 1481 1605 2824 3083 2714 2848
0 0 0 0 0 0 0 0 0 0 0 0 47 316 172 72 20 21 481 587 463 608 406 713 621 493 242 145 660 1001 1443 1757 1319 1705 1607 2031 2224 1865 2723 2783 2969 2569 2958 3271
0 0 0 0 0 0 0 0 0 0 0 0 31 476 354 129 64 438 508 682 502 777 558 699 577 544 343 296 815 829 1751 1818 1470 1850 1540 2306 2265 2464 2317 2562 2475 2795 2866 3138
0 0 0 0 0 0 0 0 0 0 0 0 0 0 588 348 480 642 681 384 378 423 778 574 446 689 428 403 836 1021 1620 1896 1329 2153 1346 1955 1583 1818 1991 642 2224 2585 3075 3042
0 0 0 0 0 0 0 0 0 0 0 0 0 1 19 937 610 168 15 389 321 75 716 695 716 658 551 522 698 1095 1242 1953 1135 1304 1936 1795 1904 1373 2502 1976 2572 2642 3674 3483
0 0 0 0 0 0 0 0 0 0 0 0 0 0 2 604 258 94 33 511 471 192 340 714 883 762 761 583 541 1035 1158 1601 1464 1257 1598 2107 1536 2508 2006 2400 2094 2368 2305 2960
0 0 0 0 0 0 0 0 0 0 0 0 0 0 0 94 704 133 136 619 761 459 426 717 767 888 829 682 510 829 1165 1229 1366 1331 1046 2295 1497 1872 3067 2566 2233 1424 1880 1769
0 0 0 0 0 0 0 0 0 0 0 0 0 0 0 0 0 734 1000 585 889 953 456 767 987 994 995 1035 721 694 1345 1336 1325 1549 880 1252 2395 1390 1757 2724 1141 2118 1286 1558
0 0 0 2 0 0 0 5 0 0 0 0 0 0 0 0 0 18 96 252 463 334 866 848 1099 1105 1262 1178 1179 866 1472 1576 1560 1239 1477 939 2202 2362 1140 2652 3357 1404 2270 2393
0 0 0 0 9 9 0 0 3 3 0 0 0 2 0 0 0 81 145 70 149 116 390 944 884 1122 1235 1274 1480 1323 1552 1755 1792 1322 1461 1158 975 1770 1888 1005 3131 2614 3495 3245
0 0 0 0 6 8 34 4 5 13 6 3 0 0 12 2 0 0 224 129 9 79 241 772 1120 1058 1241 1397 1419 1658 1549 1920 2085 1967 1392 1297 1178 1143 1125 1810 1961 2478 2511 3586
0 0 0 0 0 0 14 8 8 47 29 14 28 13 89 30 0 0 0 205 134 97 162 123 805 1208 1284 1411 1449 1768 1713 1988 2120 2102 1803 1418 1420 1183 1117 757 2435 2481 3436 4014
0 0 0 0 0 0 0 15 14 8 12 59 43 0 8 1 5 2 2 14 239 375 269 310 572 1088 1173 1445 1479 1578 1732 1666 2137 2382 2038 1854 1710 1673 1383 923 1586 2570 2179 2799
0 0 0 0 0 0 14 0 3 1 48 6 7 42 118 106 152 300 355 346 180 373 327 438 269 992 956 1691 1720 1712 1614 1684 1806 2274 2237 2007 1888 1945 1752 1893 1330 1645 2693 2600
5 0 0 0 0 0 0 0 0 5 5 22 12 92 25 44 208 270 324 248 141 229 517 705 757 625 480 1743 2032 2051 1906 1641 1771 1935 2120 2250 2204 2001 2300 2355 2376 2007 2044 2418
32 34 29 0 0 0 0 0 0 0 0 1 0 32 23 0 47 105 354 317 277 312 229 464 704 886 669 1047 2422 2209 2244 1978 1996 1992 2072 2164 2445 2449 2415 2435 2590 2514 2303 2602
26 96 109 0 9 1 0 0 0 0 0 0 0 0 0 8 5 37 88 158 62 16 57 85 115 201 559 381 1146 2831 2594 2442 2517 2671 2347 2373 2602 2761 2646 2753 2618 2706 2645 2616
29 86 130 44 34 0 0 0 17 0 0 0 0 0 0 11 19 4 25 55 0 0 0 0 0 7 108 240 856 1292 3023 2727 3098 2890 3149 2665 2552 2771 3000 2824 2824 2690 2837 2920
48 88 259 138 28 3 0 170 113 89 12 210 67 31 17 129 12 52 19 0 0 0 0 0 0 0 0 236 612 1166 1456 2722 2610 2865 3104 3079 2566 2891 3084 3110 2975 2894 2927 3036
104 253 249 76 90 2 119 25 31 2 68 8 0 0 0 25 0 37 54 5 0 0 0 0 0 0 63 628 1014 1705 2165 1898 3388 2684 3134 3513 2899 2931 3106 3218 3170 3171 3265 3192
128 73 225 259 119 39 118 53 26 0 86 36 0 0 0 0 0 2 17 7 0 0 0 0 0 0 0 159 854 1664 3331 3554 2242 3405 2972 3491 3776 3064 3337 3580 3534 3614 3539 3465
6 73 125 167 123 96 129 94 41 144 9 0 0 0 0 0 0 0 0 0 0 0 0 0 0 15 1 97 559 1257 1859 2182 3713 3764 3417 3527 3677 3548 3431 3751 3918 3778 3808 3764
3 2 0 1 79 78 15 8 36 81 36 42 1 0 0 0 0 0 22 3 0 4 0 0 0 4 35 65 423 1129 1580 2025 2465 3652 3920 3565 3925 3947 3463 3787 3885 4005 3948 3781
32 0 0 0 0 0 0 2 3 8 1 5 5 2 0 0 0 0 10 6 0 0 0 0 0 3 50 89 546 1230 1407 1654 2266 4204 4194 4024 3991 4001 3840 3719 3771 3938 3927 3919
6 0 0 0 0 0 0 7 5 0 0 12 11 14 9 1 4 0 10 3 0 0 0 0 0 0 31 71 743 1206 1559 1918 1921 3219 4099 4085 3961 3433 3845 3393 3828 3894 3836 3640
0 0 0 0 0 0 0 0 0 0 0 1 0 0 2 13 0 0 0 0 0 0 0 0 0 0 13 82 152 1217 1556 1980 2037 2314 2619 3100 3317 3401 3319 3440 3099 3273 3376 2997

GFSCGP_con_mucape_081.txt.gz
CAPE
0 0 0 0 0 0 0 0 0 0 0 0 0 783 756 416 364 402 361 382 239 176 218 80 12 0 0 94 29 179 308 283 859 560 652 831 1004 626 651 1073 1169 1644 1844 1316
0 0 0 0 0 0 0 0 0 0 0 0 189 454 680 389 223 314 217 187 288 198 214 320 88 41 12 4 170 158 409 436 717 461 624 605 550 1014 584 983 1698 1620 1782 1394
0 0 0 0 0 0 0 0 0 0 0 0 109 162 398 293 109 59 134 75 309 242 181 351 245 53 20 0 156 369 539 414 725 282 474 727 1063 536 1339 906 1653 1258 1915 1605
0 0 0 0 0 0 0 0 0 0 0 0 0 67 163 129 126 80 118 101 271 261 220 310 309 72 29 0 4 606 582 424 806 328 253 511 832 800 1156 1318 1093 1719 1511 1482
0 0 0 0 0 0 0 0 0 0 0 0 0 0 127 160 120 96 136 5 0 246 230 206 145 152 94 51 0 478 797 466 271 795 104 346 410 492 913 825 1050 1360 1434 1828
0 0 0 0 0 0 0 0 0 0 0 0 0 0 44 89 155 100 321 140 209 368 355 340 260 163 74 73 31 77 830 308 299 314 778 293 293 596 1037 565 989 1420 1699 2020
0 0 0 0 0 0 0 0 0 0 0 0 0 0 0 276 339 281 386 623 257 335 490 379 386 210 130 61 196 45 604 542 146 140 254 1093 241 313 1017 1325 1390 1128 1322 1391
0 0 0 0 0 0 0 0 0 0 0 0 0 0 0 3 639 454 385 574 33 402 511 472 401 293 224 120 228 288 197 733 295 44 51 339 876 257 592 1387 1308 941 953 896
0 0 0 0 0 0 0 0 0 0 0 0 0 0 0 0 0 181 104 106 138 503 229 493 399 344 288 214 137 385 252 283 466 250 0 155 1105 304 433 642 1123 978 1050 996
0 0 0 0 0 0 0 0 0 0 0 0 0 0 0 0 0 158 277 252 577 452 303 275 400 422 385 313 321 268 411 247 532 384 145 36 280 1178 609 451 1265 1162 344 867
0 0 0 0 0 0 0 0 7 0 0 0 0 0 0 52 0 179 389 467 591 350 195 463 378 464 458 431 450 407 579 396 480 296 468 42 22 986 1151 742 262 1287 1124 2129
0 0 0 0 0 0 1 0 1 14 0 0 2 0 0 28 87 0 219 235 329 225 508 473 278 604 535 502 569 494 743 598 532 433 438 423 10 228 760 762 725 985 1147 1164
0 0 0 0 0 0 26 13 3 18 2 0 0 0 0 148 149 119 393 308 328 555 596 354 32 269 580 503 439 649 551 753 741 741 401 552 385 25 470 381 466 628 1899 1625
0 0 0 0 0 0 0 14 29 20 8 5 0 0 6 106 327 278 226 214 296 314 210 88 11 0 21 434 540 701 659 922 994 943 786 578 477 445 102 103 75 646 1224 1914
0 0 0 0 0 0 0 0 0 10 0 2 12 8 0 0 117 183 154 103 163 198 103 98 85 16 47 264 458 653 935 818 1155 1224 1119 890 633 475 580 264 253 0 1424 1112
0 0 0 0 0 0 0 0 0 0 0 4 25 41 7 0 7 47 135 157 118 126 127 118 185 111 275 314 549 793 942 1003 1226 1357 1354 1171 1023 840 769 780 661 464 65 1643
0 5 0 0 0 0 0 0 0 0 0 0 61 6 6 7 0 5 44 76 169 161 98 89 170 268 376 528 406 629 664 819 1093 1367 1466 1445 1246 1179 1018 1116 1048 1194 854 336
0 0 14 0 0 0 0 0 0 0 0 8 33 36 87 39 2 1 1 17 69 147 48 68 107 120 293 427 439 331 92 714 946 1208 1459 1535 1554 1350 1281 1148 1322 1404 1565 1244
16 22 2 0 0 0 0 56 2 1 0 9 1 6 16 2 5 0 0 0 0 56 34 3 10 43 13 95 364 215 373 225 892 1674 1384 1531 1500 1635 1585 1353 1351 1504 1534 1726
0 2 4 1 4 4 84 123 18 7 0 7 0 0 0 6 0 0 0 0 0 0 1 0 0 0 0 0 42 364 508 1015 2048 2001 2136 1754 1586 1676 1805 1918 1610 1798 1720 1610
0 4 0 4 20 42 9 67 15 0 0 1 0 0 1 0 11 0 0 8 10 0 0 0 0 0 2 9 29 59 349 810 1226 2209 2401 2511 1923 1716 1923 2015 2076 1937 1988 1904
0 0 0 0 11 15 0 5 50 6 0 1 0 0 0 0 0 0 0 0 23 25 2 0 0 0 0 6 56 32 61 327 823 1294 1803 2550 2570 2095 2036 2097 2277 2201 2127 2150
0 0 0 0 1 9 0 0 0 0 0 0 0 0 0 0 0 0 0 0 0 0 0 0 0 0 0 0 10 46 2 366 840 1222 1423 2476 2719 2559 2148 2290 2379 2445 2385 2392
0 0 0 0 0 0 0 0 0 0 0 0 0 0 0 0 0 0 0 0 0 0 0 0 0 0 0 0 0 8 35 221 888 1264 1740 2233 2657 2929 2498 2573 2533 2745 2633 2584
0 0 0 0 0 0 0 0 0 0 0 0 0 0 0 0 0 0 0 0 0 0 2 0 0 0 1 0 0 0 40 172 752 1454 2678 3245 2831 2975 3005 2789 2793 2769 2839 2857
0 0 0 0 0 0 0 0 0 0 0 0 0 0 0 0 0 0 0 5 0 0 0 0 0 18 0 0 0 0 0 186 632 1222 1702 2161 2476 2735 3007 2893 2745 2910 2950 2972

GFSCGP_con_mucape_084.txt.gz
CAPE
0 0 0 0 0 0 0 0 0 0 0 0 139 522 335 156 495 525 314 265 186 98 89 133 5 4 147 142 177 249 249 180 679 304 213 783 578 903 934 609 1137 1444 1266 1442
0 0 0 0 0 0 0 0 0 0 0 0 260 534 579 321 586 259 80 278 254 145 65 43 43 42 60 91 59 127 113 57 463 446 120 470 500 677 471 733 906 1224 1411 1151
0 0 0 0 0 0 0 0 0 0 0 153 361 428 557 486 512 383 166 349 298 143 115 70 124 52 40 46 32 84 120 60 275 443 179 497 743 581 395 815 1186 1519 1497 1076
0 0 0 0 0 0 0 0 0 0 0 0 23 21 299 522 320 313 454 363 312 170 133 113 137 41 47 41 38 132 174 180 249 339 170 516 742 291 819 564 1009 1376 1452 1030
0 0 0 0 0 0 0 0 0 0 0 0 0 0 0 257 229 305 497 361 81 199 173 178 287 185 98 210 64 305 174 250 288 180 45 317 423 384 790 817 942 961 1473 1161
0 0 0 0 0 0 0 0 0 0 0 0 0 0 16 132 299 102 144 110 172 337 237 222 283 305 295 148 169 362 219 201 356 200 79 73 191 322 665 888 1126 1145 1115 1320
0 0 0 0 0 0 0 0 0 0 0 0 0 0 0 50 86 75 126 92 105 451 305 309 295 286 323 201 149 448 259 166 297 384 128 0 105 147 618 873 787 781 1303 1393
0 0 0 0 0 0 0 0 0 0 0 0 0 0 0 0 178 125 101 85 67 75 252 346 330 301 295 242 186 346 375 172 117 497 423 132 14 63 316 653 488 822 1030 1232
0 0 0 0 0 0 0 0 0 0 0 0 0 0 0 0 0 60 105 141 114 343 312 422 372 260 250 309 285 156 447 204 109 34 86 321 499 153 35 855 1058 797 724 776
0 0 0 0 0 0 0 0 0 0 0 0 0 0 0 0 78 38 83 166 361 374 487 499 424 427 324 354 304 141 189 374 186 64 19 0 157 665 282 215 802 1068 678 585
0 0 0 0 0 0 0 0 0 0 0 0 0 0 8 9 90 75 21 49 331 395 435 473 530 398 407 346 324 274 183 191 363 216 102 10 0 192 785 173 245 865 903 802
0 0 0 0 0 0 0 0 0 0 0 0 0 0 0 80 181 134 162 112 81 383 379 502 497 426 356 331 329 342 343 334 312 317 235 73 0 1 636 817 112 196 966 1122
0 0 0 0 0 0 0 0 0 0 0 0 0 0 2 1 121 277 263 416 337 230 218 276 315 219 433 336 357 405 420 425 354 417 303 254 65 0 118 663 860 465 336 876
0 0 0 0 0 0 0 1 2 0 0 0 0 0 8 5 7 124 219 252 236 238 183 81 18 236 421 387 380 382 435 498 508 338 395 361 300 87 0 287 442 740 440 563
0 0 0 0 0 0 0 0 0 5 15 1 1 4 36 0 6 1 73 179 189 114 105 87 133 106 292 159 496 458 468 654 565 511 352 376 408 303 169 19 248 174 536 754
0 0 0 0 0 0 0 0 0 0 0 29 33 26 0 6 0 0 8 132 167 150 161 143 90 44 12 70 252 299 437 562 677 690 607 327 392 456 326 275 159 106 8 759
0 0 0 0 0 0 0 0 0 0 0 0 32 13 6 10 0 0 4 24 88 146 235 215 156 108 30 115 164 245 690 737 842 958 753 707 431 524 596 523 406 291 111 0
0 0 0 0 0 0 0 0 7 21 0 0 0 0 0 1 6 0 0 0 39 37 52 141 77 64 208 132 70 122 481 547 766 1100 1274 1251 953 664 640 755 704 618 422 234
0 0 0 0 0 0 0 0 6 5 0 0 0 0 3 13 3 0 0 0 0 28 0 0 0 0 34 99 180 178 141 463 341 359 463 855 1236 1087 987 963 921 936 766 611
0 0 0 0 0 0 0 0 5 0 0 0 0 0 9 8 11 8 0 0 0 13 0 8 0 0 0 0 102 160 152 125 43 163 87 287 896 1251 1167 1227 1157 1102 996 1065
0 0 0 0 0 0 0 0 2 14 0 0 0 0 11 31 2 0 0 0 0 0 0 0 0 0 0 0 0 3 194 212 97 66 111 47 410 1335 1502 1329 1341 1228 1182 1142
0 0 0 0 0 0 0 0 0 0 1 0 0 0 0 21 16 0 1 0 0 0 0 0 0 0 0 0 0 0 0 35 97 393 342 138 464 1249 1640 1479 1448 1325 1246 1345
0 0 0 0 0 0 0 0 0 0 0 0 0 0 0 0 1 0 0 0 0 0 0 0 0 0 0 0 0 0 0 0 6 160 559 800 986 1225 1694 1660 1607 1658 1463 1559
0 0 0 0 0 0 0 0 0 0 0 0 0 0 0 0 0 0 0 0 0 0 0 0 0 0 0 0 0 0 0 0 0 61 507 1111 1549 2008 2245 2097 2042 1900 1810 1692
0 0 0 0 0 0 0 0 0 0 0 0 0 0 0 0 0 0 0 0 0 0 0 0 0 0 0 0 0 0 0 0 0 2 369 823 1604 2351 2447 2294 2184 2148 2055 1934
0 0 0 0 0 0 0 0 0 0 0 0 0 0 0 0 0 0 0 0 0 0 0 0 0 0 0 0 0 0 0 0 0 0 99 755 1816 2027 2357 2538 2282 2274 2340 2209

GFSCGP_con_mucape_087.txt.gz
CAPE
0 0 0 0 0 0 0 0 0 0 0 0 281 208 296 97 588 494 252 45 81 111 212 128 199 0 30 84 91 143 193 331 543 495 667 848 942 959 827 815 665 701 1205 1174
0 0 0 0 0 0 0 0 0 0 0 0 4 202 354 193 597 359 312 121 96 116 164 89 108 62 76 70 63 174 202 217 506 336 458 705 854 846 843 781 856 1249 1167 1123
0 0 0 0 0 0 0 0 0 0 0 373 145 235 276 132 359 592 361 218 180 129 100 137 149 144 81 64 25 186 257 226 369 281 157 444 578 606 686 664 792 965 1337 1097
0 0 0 0 0 0 0 0 0 0 0 0 35 6 109 239 174 375 580 350 310 225 101 95 149 77 88 101 77 68 203 161 147 242 74 265 656 504 633 560 806 1037 1363 1080
0 0 0 0 0 0 0 0 0 0 0 0 0 0 0 265 429 312 339 359 326 343 193 131 143 122 135 106 108 41 0 25 46 221 168 58 438 662 602 452 797 1200 1325 1295
0 0 0 0 0 0 0 0 0 0 0 0 0 0 0 203 320 233 333 318 292 331 316 188 208 178 125 149 152 83 52 9 22 57 192 2 346 600 417 710 532 865 1258 1270
0 0 0 0 0 0 0 0 0 0 0 0 0 0 0 1 27 91 129 206 237 374 334 331 282 218 158 136 139 115 244 74 62 27 73 37 76 425 381 480 839 771 900 1365
0 0 0 0 0 0 0 0 0 0 0 0 0 0 0 0 0 0 2 33 70 344 369 194 175 246 192 170 185 179 286 213 113 68 2 11 0 185 210 362 643 860 951 1006
0 0 0 0 0 0 0 0 0 0 0 0 0 0 0 2 1 0 0 0 1 49 395 235 236 245 247 265 285 303 351 260 132 142 54 22 0 0 0 168 569 897 793 1052
0 0 0 0 0 0 0 0 0 0 0 0 0 0 0 90 75 29 29 29 9 18 19 94 349 318 265 247 267 295 346 259 156 145 149 97 34 0 0 37 642 931 776 698
0 0 0 0 0 0 0 0 0 0 0 0 0 0 0 24 132 103 99 35 16 41 64 77 278 295 303 265 249 289 337 310 259 180 134 85 66 161 143 27 58 412 1076 972
0 0 0 0 0 0 0 0 0 0 0 0 0 0 0 0 88 170 201 141 151 121 134 286 247 209 204 225 244 297 342 308 307 268 179 144 12 0 178 225 256 172 355 812
0 0 0 0 0 0 0 0 0 0 0 0 0 0 0 0 3 66 215 216 200 239 385 447 404 216 250 202 201 254 291 287 202 254 277 240 173 90 0 103 323 340 178 381
0 0 0 0 0 0 0 0 0 0 0 0 0 0 6 0 0 0 48 123 271 273 348 443 420 301 394 388 313 273 284 299 235 195 295 342 308 248 139 0 146 377 434 214
0 0 0 0 0 0 0 0 0 0 0 0 0 24 18 0 0 0 0 61 242 313 510 383 326 223 231 203 347 402 326 322 327 278 225 288 348 340 282 171 1 126 350 444
0 0 0 0 0 0 0 0 0 0 0 0 0 0 11 13 0 0 0 0 36 143 240 296 203 137 251 217 388 458 481 445 352 441 360 277 312 361 364 320 216 14 42 211
0 0 0 0 0 0 0 0 0 0 0 0 0 0 0 9 0 0 0 0 116 88 72 133 164 73 88 67 32 385 233 450 442 410 371 415 404 413 461 397 317 233 131 10
0 0 0 0 0 0 0 0 1 0 1 0 0 0 0 0 2 0 0 0 0 0 0 7 41 76 53 69 110 200 299 352 506 638 600 555 583 518 517 513 466 437 370 270
0 0 0 0 0 0 0 0 0 0 0 0 0 0 0 4 1 9 0 0 0 0 0 0 5 8 37 30 44 69 96 304 591 733 866 1010 1052 1115 1059 814 684 600 584 539
0 0 0 0 0 0 0 0 0 0 0 0 0 0 0 4 15 16 22 1 2 0 0 0 0 0 0 0 0 64 113 89 234 339 494 814 1048 870 1039 771 935 738 699 733
0 0 0 0 0 0 0 0 0 0 0 0 0 0 0 0 0 23 22 12 1 0 0 0 0 0 21 0 0 17 6 49 81 116 82 77 89 102 78 170 659 977 907 664
0 0 0 0 0 0 0 0 0 0 0 0 0 0 0 0 1 27 39 14 3 0 0 0 0 0 1 3 0 0 3 5 77 41 65 119 59 120 32 55 350 989 1006 933
0 0 0 0 0 0 0 0 0 0 0 0 0 0 0 0 0 1 34 22 0 0 0 0 0 0 0 1 0 0 0 0 0 13 91 65 235 219 40 14 219 1183 1199 1078
0 0 0 0 0 0 0 0 0 0 0 0 0 0 0 0 0 0 0 0 0 0 0 0 0 0 0 0 0 0 0 0 0 0 0 49 199 335 27 51 856 1178 1334 1259
0 0 0 0 0 0 0 0 0 0 0 0 0 0 0 0 0 0 0 0 0 0 0 0 0 0 0 0 0 0 0 0 0 0 0 0 44 318 129 277 877 1453 1509 1430
0 0 0 0 0 0 0 0 0 0 0 0 0 0 0 0 0 0 0 0 0 0 0 0 0 0 0 0 0 0 1 0 0 0 0 0 0 146 304 608 967 1747 1727 1622

GFSCGP_con_mucape_090.txt.gz
CAPE
0 0 0 0 0 0 0 0 0 0 0 303 271 188 205 402 444 404 433 258 168 126 102 67 43 105 0 3 0 0 46 170 335 445 474 643 714 668 649 626 701 386 556 911
0 0 0 0 0 0 0 0 0 0 0 0 0 13 228 235 629 556 364 330 243 168 120 102 86 44 0 0 3 0 36 122 278 481 562 647 644 690 723 605 664 825 1035 975
0 0 0 0 0 0 0 0 0 0 0 300 71 80 201 212 472 638 611 346 235 174 135 136 172 136 26 0 77 0 24 104 279 457 450 518 664 590 666 707 500 863 1031 972
0 0 0 0 0 0 0 0 0 0 0 0 19 0 54 294 273 636 531 518 303 143 133 128 174 74 179 23 38 80 48 70 235 439 354 481 585 537 503 554 601 671 1097 1036
0 0 0 0 0 0 0 0 0 0 0 0 0 0 0 181 328 257 619 579 424 258 206 130 171 106 119 35 47 90 75 48 186 356 262 295 465 429 444 515 466 636 905 1132
0 0 0 0 0 0 0 0 0 0 0 0 0 0 0 0 18 108 89 286 451 335 297 230 129 109 146 104 5 55 97 88 115 194 211 114 251 467 427 496 491 535 838 1104
0 0 0 0 0 0 0 0 0 0 0 0 0 0 0 0 0 0 0 5 75 233 329 326 238 140 129 163 150 137 104 125 102 96 97 12 22 323 527 428 373 460 600 1031
0 0 0 0 0 0 0 0 0 0 0 0 0 0 0 0 0 0 0 0 0 56 257 199 357 249 174 175 200 175 143 102 193 92 1 45 0 74 467 418 252 529 595 713
0 0 0 0 0 0 0 0 0 0 0 0 0 0 0 0 0 1 17 1 0 0 140 228 235 399 292 244 279 227 151 83 155 236 68 0 0 0 223 364 233 289 537 715
0 0 0 0 0 0 0 0 0 0 0 0 0 0 0 0 0 13 60 61 9 9 26 217 265 299 361 336 289 322 226 171 183 294 198 72 0 0 0 106 125 242 452 726
0 0 0 0 0 0 0 0 0 0 0 0 0 0 0 1 3 0 77 144 68 51 76 76 171 265 290 194 117 190 290 279 210 362 301 132 42 0 0 0 10 293 465 677
0 0 0 0 0 0 0 0 0 0 0 0 0 0 0 9 14 2 247 228 260 226 258 116 110 239 233 217 185 142 213 292 298 244 320 254 134 38 0 0 0 3 244 431
0 0 0 0 0 0 0 0 0 0 0 0 0 0 6 13 3 2 0 7 176 456 583 385 280 208 267 305 272 216 177 193 215 182 304 276 225 135 84 0 0 0 0 101
0 0 0 0 0 0 0 0 0 0 0 0 0 1 11 6 4 4 3 0 7 81 551 432 603 369 270 268 267 250 226 202 178 201 293 279 273 234 179 114 14 0 0 0
0 0 0 0 0 0 0 0 0 0 0 0 0 0 1 3 0 0 3 1 0 6 94 223 499 475 296 294 337 242 218 276 214 229 234 276 301 272 257 239 173 81 0 0
0 0 0 0 0 0 0 0 0 0 0 0 0 0 1 15 2 0 0 0 0 0 4 66 166 174 136 266 148 222 250 283 256 257 236 272 297 343 303 308 284 251 135 52
0 0 0 0 0 0 0 0 0 0 0 0 0 0 0 5 0 0 0 0 0 0 0 7 85 121 87 76 110 167 197 176 275 293 307 350 283 307 337 338 306 315 300 194
0 0 0 0 0 0 0 0 0 0 0 0 0 0 0 0 0 0 0 0 0 0 0 3 66 0 1 6 36 80 133 324 303 380 357 412 359 333 337 383 363 357 333 288
0 0 0 0 0 0 0 0 0 0 0 0 0 0 2 0 0 0 0 0 0 0 0 0 0 0 0 0 1 14 18 137 300 314 331 541 476 487 437 482 425 453 441 400
0 0 0 0 0 0 0 0 0 0 0 0 0 0 0 0 0 0 0 0 2 0 0 0 0 0 0 0 0 0 13 62 105 309 371 475 586 585 537 752 899 769 868 624
0 0 0 0 0 0 0 0 0 0 0 0 0 0 0 0 0 0 0 0 0 4 3 0 0 0 0 0 0 0 14 80 66 109 83 447 486 622 638 677 242 386 462 511
0 0 0 0 0 0 0 0 0 0 0 0 0 0 0 0 0 0 0 0 0 2 0 2 0 0 0 0 0 0 0 0 0 41 106 42 88 310 657 481 110 116 582 606
0 0 0 0 0 0 0 0 0 0 0 0 0 0 0 0 0 0 0 0 0 0 0 5 3 0 0 0 0 0 0 0 0 0 1 0 33 29 113 33 52 63 169 782
0 0 0 0 0 0 0 0 0 0 0 0 0 0 0 0 0 0 0 0 0 0 0 0 0 0 0 0 0 0 0 0 0 0 0 0 16 4 4 64 76 20 96 726
0 0 0 0 0 0 0 0 0 0 0 0 0 0 0 0 0 0 0 0 0 0 0 0 0 0 0 0 0 0 0 0 0 0 0 0 0 1 3 23 134 92 68 571
0 0 0 0 0 0 0 0 0 0 0 0 0 0 0 0 0 0 0 0 0 0 0 0 0 0 0 0 0 0 0 0 0 3 0 0 0 0 0 1 59 116 119 670

GFSCGP_con_mucape_093.txt.gz
CAPE
0 0 0 0 0 0 0 0 0 0 18 386 60 81 320 672 665 810 451 350 227 150 140 215 293 271 205 97 163 426 579 966 1058 1012 926 1121 1393 1601 1983 1666 1619 1356 1100 1765
0 0 0 0 0 0 0 0 0 0 0 20 5 1 220 502 823 853 710 425 329 241 156 166 240 208 226 187 146 469 619 988 1108 1086 1283 1433 1651 1662 1727 1674 1677 1240 1484 2128
0 0 0 0 0 0 0 0 0 0 0 129 149 126 415 446 741 836 770 621 457 396 287 190 217 150 221 271 263 429 710 843 1068 1096 1287 1386 1526 1571 1621 1685 1582 1943 1324 1766
0 0 0 0 0 0 0 0 0 0 0 0 24 26 177 398 507 714 767 640 506 466 381 279 209 146 146 286 336 482 695 822 924 1155 1258 1568 1369 2076 1404 1691 1662 1697 2108 1943
0 0 0 0 0 0 0 0 0 0 0 0 0 0 0 542 256 155 386 762 620 329 374 382 222 223 193 227 306 419 692 815 868 1040 1343 1537 1552 1396 1418 1505 1916 1919 2346 2211
0 0 0 0 0 0 0 0 0 0 0 0 0 0 0 0 1 76 140 137 521 531 251 351 311 210 224 243 302 330 659 1107 911 1005 1101 1433 1636 1477 1431 1469 1552 1622 2494 2184
0 0 0 0 0 0 0 0 0 0 0 0 0 0 4 7 5 10 17 35 95 207 542 420 330 208 197 275 329 352 679 1143 993 886 1023 1058 1343 1699 1822 1947 1563 1585 1666 1870
0 0 0 0 0 0 0 0 0 0 0 0 0 0 7 2 4 5 16 30 15 44 138 619 422 342 169 370 436 371 781 1123 831 849 1164 1331 1131 1001 1214 1716 1349 1409 1464 1703
0 0 0 0 0 0 0 0 0 0 0 0 0 0 0 0 0 3 24 117 138 248 48 346 613 383 265 377 589 572 869 1097 889 835 1293 1056 1185 1012 1112 1572 1795 1463 1788 1690
0 0 0 0 0 0 0 0 0 0 0 0 0 0 3 4 7 0 35 132 127 208 214 111 575 473 301 387 492 531 682 993 1196 840 1081 855 794 834 878 1268 1578 1562 1709 1862
0 0 0 0 0 0 0 0 0 0 0 0 0 2 16 9 1 0 44 175 477 109 92 242 503 646 257 261 431 478 523 661 772 766 1055 1115 810 660 768 716 1215 1553 1781 1983
0 0 0 0 0 0 0 0 0 0 0 0 0 1 9 8 3 5 28 117 205 377 148 133 212 284 307 310 306 432 383 503 593 893 1146 877 936 807 669 655 640 1072 1549 1945
0 0 0 0 0 0 0 0 0 0 0 0 0 0 8 3 5 3 7 126 136 229 298 384 196 260 343 322 322 367 404 395 400 677 550 896 839 847 907 841 784 728 1025 1454
0 0 0 0 0 0 0 0 0 0 0 0 0 9 1 3 2 2 2 0 0 57 126 194 434 435 371 261 344 298 415 453 595 549 436 774 917 1064 988 1087 1058 879 879 979
0 0 0 0 0 0 0 0 0 0 0 0 0 8 0 4 6 7 3 1 0 9 12 55 186 224 172 336 358 338 172 224 601 839 711 725 866 908 946 951 1151 1104 996 894
0 0 0 0 0 0 0 0 0 0 0 0 6 0 1 2 0 0 0 3 0 0 0 0 17 129 177 238 304 351 175 181 187 514 731 823 889 812 739 732 754 865 1012 1051
0 0 0 0 0 0 0 0 0 0 0 0 5 0 0 1 0 0 0 0 0 0 0 0 0 0 15 114 39 46 96 101 157 167 226 794 898 921 894 730 653 824 759 857
0 0 0 0 0 0 0 0 0 0 0 0 0 0 0 0 0 0 0 0 0 0 0 0 0 0 0 0 0 0 19 97 123 122 135 97 364 739 1027 958 853 807 671 725
0 0 0 0 0 0 0 0 0 0 0 0 0 0 0 0 0 0 0 0 0 0 0 0 0 0 0 0 0 0 0 6 23 144 197 266 199 206 364 889 952 953 617 631
0 0 0 0 0 0 0 0 0 0 0 0 0 0 0 0 0 4 0 0 0 0 0 0 0 0 0 0 0 0 0 0 2 20 97 184 326 205 273 327 499 515 792 449
0 0 0 0 0 0 0 0 0 0 0 0 0 0 0 0 0 0 0 0 0 0 0 0 0 0 0 0 0 0 0 0 2 17 42 102 180 300 307 435 373 225 399 799
0 0 0 0 0 0 0 0 0 0 0 0 0 0 0 0 0 0 0 0 0 0 0 0 0 0 0 0 0 0 0 0 0 0 0 24 55 244 369 308 342 451 218 116
0 0 0 0 0 0 0 0 0 0 0 0 0 0 0 0 0 0 0 0 0 0 0 0 0 0 0 0 0 0 0 0 0 0 0 0 106 112 71 93 268 279 374 90
0 0 0 0 0 0 0 0 0 0 0 0 0 0 0 0 0 0 0 0 0 0 0 0 0 0 0 0 0 0 0 0 0 0 0 0 0 9 8 79 84 26 94 136
0 0 0 0 0 0 0 0 0 0 0 0 0 0 0 0 0 0 0 0 0 0 0 0 0 0 0 0 0 0 0 0 0 0 0 0 0 0 0 0 3 4 16 7
0 0 0 0 0 0 0 0 0 0 0 0 0 0 0 0 0 0 1 0 0 0 0 0 0 0 0 0 0 0 0 0 0 0 0 0 0 0 0 0 6 1 10 0

GFSCGP_con_mucape_096.txt.gz
CAPE
0 0 0 0 0 23 29 9 0 0 296 422 245 133 695 946 884 802 716 704 503 339 124 212 504 461 143 0 213 354 683 1348 1329 1274 1133 1405 1542 2703 1482 1463 1634 1999 1680 1984
0 0 0 0 0 0 0 0 0 0 86 163 27 2 25 688 593 955 881 554 477 417 174 241 604 615 394 123 309 524 847 1618 1689 1506 1638 1421 1548 1598 1521 1830 2033 1587 1618 1709
0 0 0 0 0 0 2 6 0 0 0 7 63 165 436 289 588 987 893 711 690 445 349 150 399 715 563 279 306 650 943 1544 1765 1544 1976 2370 2108 2369 2122 2334 1517 1563 1602 1440
0 0 0 0 0 0 0 1 0 0 0 19 17 2 117 501 706 881 967 961 814 724 426 323 462 667 678 572 403 493 1149 1500 1724 2003 1762 1977 1127 1036 1255 1721 1736 1374 1263 1586
0 0 0 0 0 0 18 0 0 0 0 0 0 0 189 372 268 283 967 985 961 1086 723 561 445 628 623 711 613 607 1086 1439 1473 1886 1917 2111 1702 749 930 1495 2940 1936 1592 1500
2 1 4 10 6 0 0 0 0 0 0 0 6 0 66 99 140 235 302 353 924 726 765 640 624 599 660 661 728 684 1155 1614 1744 1787 2101 2160 1659 1403 1309 1449 3385 2527 1645 1530
0 0 0 0 0 0 0 0 0 0 0 0 0 17 86 43 91 127 201 234 268 452 724 660 889 672 694 754 845 905 1124 1791 1914 1773 1802 2007 2154 2156 1884 2074 894 1731 1470 1459
0 0 0 0 0 0 0 0 0 0 0 0 0 15 16 15 63 103 64 70 186 312 330 577 564 904 768 801 1033 1102 1299 1749 1932 1903 1922 2059 2197 1918 1703 1616 865 1341 1264 1489
1 0 0 0 0 0 0 0 0 0 3 1 0 27 13 16 39 56 361 208 122 405 391 372 1093 1009 909 862 1013 1246 1453 1842 2012 1791 2017 2131 2254 2074 1396 1249 1457 1317 1526 1363
0 0 0 0 0 0 0 0 0 0 1 0 0 7 106 14 14 13 70 185 127 222 525 509 648 985 1015 1003 966 1215 1757 1972 2039 1732 1727 1931 2110 2126 1938 1507 1641 1577 1530 1862
0 0 0 0 0 0 0 0 0 0 0 1 19 42 11 23 21 7 57 251 192 145 236 512 595 666 1127 1000 831 1068 1386 1505 1632 1635 1651 1819 1967 1887 1898 1487 1509 1710 2122 2098
0 0 0 0 0 0 0 0 0 2 0 0 25 73 26 0 4 16 147 259 227 320 161 177 331 401 464 635 915 1022 1110 1190 1302 1470 1501 1656 1705 2154 1625 1612 1394 1409 1884 2320
0 0 0 0 0 0 0 0 0 0 0 10 3 90 0 0 3 9 86 279 528 318 408 232 190 223 206 180 223 691 849 937 1001 1202 1245 1408 1500 1548 1816 1655 1661 1416 1427 1748
0 0 0 0 0 0 0 0 0 0 3 11 5 33 3 2 1 2 1 60 158 194 230 224 217 270 167 184 209 226 280 711 811 835 1110 1197 1310 1436 1455 2006 1937 1763 1655 1600
0 0 0 0 0 0 0 0 0 0 0 3 100 14 1 1 0 2 1 1 1 36 67 118 150 183 130 253 229 295 228 212 284 1127 1116 1234 1676 1440 1300 1557 1544 1773 1864 1764
0 0 0 0 0 0 0 0 0 0 0 10 17 0 0 3 2 2 3 1 0 0 0 23 67 59 79 103 180 240 247 197 162 186 946 1344 1505 1763 1631 1657 1807 1796 1865 1944
0 0 0 0 0 0 0 0 0 0 0 12 37 0 0 1 9 1 0 0 0 0 0 0 0 0 0 51 103 43 80 124 159 104 161 208 523 1200 1547 1641 1563 1663 1777 1823
0 0 0 0 0 0 0 0 0 0 0 0 2 0 3 0 0 0 0 0 0 0 0 0 0 0 0 0 0 0 23 65 97 168 127 179 126 183 524 1223 1768 2025 1697 1665
0 0 0 0 0 0 0 0 0 0 0 0 8 10 5 0 0 0 0 0 0 0 0 0 0 0 0 0 0 0 0 1 44 60 65 58 96 88 84 108 296 829 1656 1747
0 0 0 0 0 0 0 0 0 0 0 0 2 7 2 0 0 21 0 0 0 0 0 0 0 0 0 0 0 0 0 0 1 0 11 44 61 49 52 54 86 121 346 1147
3 7 2 9 0 1 0 0 0 0 0 0 0 2 0 0 0 0 0 0 0 0 0 0 0 0 0 0 0 0 0 0 0 0 0 15 75 99 117 80 79 186 472 617
15 27 47 31 34 3 0 0 0 0 0 0 0 0 0 0 0 0 0 0 0 0 0 0 0 0 0 0 0 0 0 0 0 0 0 0 0 0 48 100 163 85 214 539
2 4 26 7 38 0 0 0 1 0 0 0 0 0 0 0 0 0 0 0 0 0 0 0 0 0 0 0 0 0 0 0 0 0 0 0 13 3 0 0 0 45 125 127
0 0 0 0 0 0 0 0 0 0 0 0 0 0 0 0 0 0 0 0 0 0 0 0 0 0 0 0 0 0 0 0 0 0 0 0 0 8 2 0 0 3 79 45
7 1 0 0 0 0 0 0 0 0 0 0 0 0 0 0 0 0 0 0 1 3 2 1 0 2 3 4 4 3 1 2 0 0 0 0 0 0 3 0 0 0 0 51
0 0 6 5 0 0 2 0 0 0 0 0 0 0 0 0 0 0 0 1 2 4 6 4 0 0 3 5 9 8 14 9 6 0 0 0 0 0 0 0 0 0 0 0

GFSCGP_con_mucape_099.txt.gz
CAPE
0 0 0 0 0 2 117 52 40 144 175 224 113 181 574 1063 807 894 302 109 120 163 219 85 45 25 6 120 275 567 744 1422 1484 1240 1018 1630 1877 2115 2239 1548 1719 1853 1857 1867
0 0 0 0 0 1 93 118 80 223 365 169 110 4 247 589 632 771 963 551 290 356 236 135 264 156 10 61 217 576 1106 1554 1439 1070 1926 2416 1811 1861 2599 1590 1831 2305 1554 1659
0 0 0 0 0 0 101 98 36 22 356 92 15 84 210 283 460 863 832 700 644 389 235 190 287 275 182 75 303 615 1320 1748 1842 2522 2437 1592 2251 1824 1838 1869 1740 1715 1664 1504
0 0 0 0 3 0 11 38 40 56 6 115 11 47 167 282 913 1097 981 970 706 517 524 217 273 393 251 151 254 663 1276 1858 1835 1760 2364 1966 1444 1289 1637 2398 1424 1608 1663 2357
0 0 0 0 0 0 29 63 20 1 0 204 61 113 86 200 410 965 1108 1106 914 561 598 207 256 536 333 309 238 655 1203 1955 2033 2036 2403 1935 2381 1510 2061 2029 2372 1826 2055 1692
0 0 0 1 8 0 39 45 26 3 2 74 221 44 94 256 230 724 950 1058 998 848 629 563 448 631 411 358 362 475 1336 2528 2170 2181 2016 2209 1225 2447 1635 1949 1955 1781 1393 1750
13 4 18 0 48 4 32 33 18 2 1 19 129 125 169 161 132 147 201 378 772 1041 1229 964 699 648 769 403 385 622 2335 2889 2306 1993 2166 2281 2133 1877 2069 1814 1793 1471 1412 1144
12 14 1 0 15 41 21 10 10 1 0 3 53 252 209 188 32 18 98 184 259 457 1090 1073 900 877 884 650 508 655 2606 2971 2332 2235 2633 3198 2688 1836 1319 1867 1348 1576 1084 1362
55 19 0 0 0 0 19 1 3 40 37 27 157 190 159 154 154 54 267 199 185 500 1076 1049 872 921 797 1033 768 1032 2306 3383 2586 2339 3387 3073 3223 2924 1875 1825 2124 1560 1365 2361
21 5 0 0 0 0 0 2 14 6 68 53 227 226 302 55 17 6 206 330 274 292 717 837 539 729 989 986 1068 1125 1619 2463 2526 2511 2438 2402 2488 2671 2505 1664 1727 2157 2210 1452
2 14 0 0 0 0 0 0 2 44 31 118 140 390 138 43 0 12 136 214 192 231 314 341 485 741 850 534 531 1298 1507 2007 2334 2522 2455 2983 2519 2472 2615 2145 1828 1822 2229 1889
0 3 3 0 0 0 0 3 6 7 27 10 54 87 51 23 10 0 57 196 384 142 438 452 535 625 546 347 107 1058 791 1575 1917 2000 2346 2224 2337 2337 2341 2373 1957 1914 2380 2441
0 0 43 0 0 0 0 0 0 9 42 96 64 187 81 31 19 0 37 222 249 358 146 296 261 444 307 269 388 460 692 666 772 2123 2013 2126 2269 2297 2181 2258 2217 2167 2625 2518
0 2 13 9 19 0 0 0 0 0 6 39 141 136 91 22 18 6 35 196 361 517 305 261 142 166 175 119 130 124 398 523 642 1109 1286 2517 2478 2347 2125 2046 2257 2408 2616 2668
0 2 0 1 0 0 0 0 0 0 0 34 489 182 105 102 23 9 20 127 138 64 137 243 199 218 238 160 159 106 125 209 508 688 1491 1545 2132 1696 1901 2050 2069 2132 2908 2561
0 9 0 0 0 0 0 0 0 0 0 16 237 21 45 37 65 29 11 0 5 21 0 34 84 142 127 138 177 169 257 182 107 233 533 684 1272 1418 1905 1818 2537 2622 2256 3155
1 4 0 0 2 0 0 0 0 0 0 7 246 23 12 13 17 22 11 0 0 0 0 0 19 41 60 71 107 115 88 143 182 125 130 224 349 716 1240 1692 1993 2173 2722 2563
0 0 0 0 1 0 0 0 0 0 0 4 266 33 6 12 1 3 0 0 0 0 0 0 0 0 0 0 0 15 32 54 175 243 189 166 112 276 400 628 1556 1692 2214 2292
0 0 0 0 0 0 0 0 0 0 0 8 148 72 14 8 9 0 0 0 0 0 0 0 0 0 0 0 0 0 0 0 0 3 10 34 54 84 120 222 320 464 1340 1493
0 0 3 8 0 1 89 0 0 0 0 0 124 138 51 41 57 37 0 0 0 0 0 0 0 0 0 0 0 0 0 0 0 0 0 0 0 1 57 63 76 77 79 562
0 0 0 4 19 66 2 0 0 0 67 0 5 36 49 50 14 0 0 0 0 0 0 0 0 0 0 0 0 0 0 0 0 0 0 1 5 0 1 18 29 37 19 33
104 103 113 54 52 67 1 0 0 71 30 18 24 31 18 0 0 0 0 0 0 0 0 0 0 0 0 0 0 0 0 0 0 0 0 0 0 2 2 1 0 38 13 2
19 87 247 116 207 54 0 1 16 16 6 3 1 0 0 0 0 0 0 0 0 0 0 0 0 0 0 0 0 0 0 0 0 0 0 0 0 0 0 3 0 0 0 0
17 3 10 22 6 17 0 0 0 0 5 0 0 0 0 0 0 0 0 0 0 0 0 0 0 0 0 1 2 0 0 0 0 0 0 0 0 0 0 0 0 0 0 0
114 55 15 3 14 3 1 0 0 0 0 0 0 0 0 0 0 0 0 0 0 0 0 0 0 0 0 2 9 5 6 4 1 0 0 0 0 0 0 0 0 2 2 0
77 95 91 68 40 33 13 21 7 4 0 0 0 0 0 0 0 0 0 0 0 2 1 2 4 2 0 1 6 11 14 15 12 5 0 0 0 0 0 0 0 0 0 0

GFSCGP_con_mucape_102.txt.gz
CAPE
0 0 0 0 0 0 20 102 87 72 553 330 169 152 68 103 614 186 94 65 73 113 99 17 14 15 68 375 713 1203 2112 2476 2163 2072 2072 2676 2373 2927 2189 1235 1903 1824 2635 2347
0 0 0 0 0 0 19 54 106 173 273 195 133 43 97 186 224 512 123 77 122 115 55 47 19 28 90 418 772 1293 2171 2354 2585 2072 2102 1978 764 2111 2331 2173 2685 2678 2512 2550
0 0 0 0 0 0 0 13 0 260 101 8 12 12 2 18 33 367 415 229 163 213 118 36 67 30 21 357 737 1228 2269 2114 2546 2643 2126 556 1154 2071 2344 1807 2421 2425 2466 2350
0 0 0 0 0 0 0 104 1 364 47 60 152 159 105 133 142 148 504 793 350 211 133 34 75 40 7 200 462 1359 2459 2169 2138 1397 2658 3065 2295 1025 2546 2283 2317 2361 2214 2683
0 0 0 0 0 0 7 59 24 29 33 77 101 90 121 58 30 265 467 833 718 279 126 109 114 70 41 115 336 1103 2180 2480 2699 2776 2361 2546 617 4 824 633 2905 2347 2737 2029
0 0 0 0 0 0 0 0 47 12 0 86 84 136 164 51 166 510 782 817 769 540 243 189 77 88 54 108 236 971 1845 2589 2649 2963 2355 2543 966 512 931 1122 2787 2444 2413 2669
0 0 0 0 0 2 2 17 55 49 0 2 155 157 228 151 81 278 307 533 561 755 379 380 303 307 164 211 234 1026 1781 2676 2822 2632 2679 2343 2258 827 726 2126 2160 1567 1774 1958
0 28 0 0 5 62 41 49 82 37 18 5 230 244 154 113 35 41 275 392 324 733 698 625 527 377 363 339 422 1125 2100 2660 2707 2757 3030 3237 2665 2157 1534 1983 1673 526 788 693
43 87 48 0 16 7 31 26 34 57 4 39 441 231 174 41 56 44 69 139 194 430 741 400 671 503 300 620 408 1390 2164 2650 2762 2591 3007 3423 3437 3274 2519 3105 3317 2263 818 897
17 103 63 0 0 0 8 20 6 14 48 128 432 293 347 111 63 131 76 13 15 264 377 646 600 568 800 871 788 1222 2606 2979 3085 2916 3073 3028 3226 3361 3244 3757 2894 3231 1698 1099
1 20 0 0 0 0 0 0 0 1 36 62 330 271 175 120 32 39 126 141 106 137 450 541 446 363 485 372 220 216 1220 2641 2810 3055 3084 3033 2990 3135 3413 3065 2930 2674 3115 1247
0 30 15 0 0 0 0 0 6 14 4 29 259 129 114 64 88 26 92 87 82 188 323 405 171 179 240 173 27 54 317 778 1496 1564 2532 2805 3311 3223 3151 3177 3025 3021 3071 2814
0 6 25 1 0 0 0 0 0 0 0 101 145 271 96 101 22 6 36 115 75 68 119 210 245 222 272 172 228 26 2 51 578 1588 1442 2394 2943 2569 3433 3555 3399 3138 3199 3196
0 0 3 26 5 0 0 0 0 0 0 1 494 212 82 97 47 17 48 29 68 146 70 170 187 226 154 152 142 77 0 60 190 519 491 1246 2356 2648 2851 3239 3321 3469 3434 3184
0 6 0 1 0 0 0 0 0 0 0 58 456 313 132 110 153 43 35 55 15 82 91 67 65 90 177 106 100 62 69 100 147 361 404 647 770 1403 1808 2669 2483 2800 3216 3157
0 6 0 0 0 0 0 0 0 0 0 627 439 263 108 79 52 58 47 72 1 0 0 73 79 38 86 108 155 126 104 137 95 157 267 381 509 682 805 943 1814 2483 2658 2823
7 35 8 0 0 0 0 0 0 0 0 133 332 265 101 42 40 15 8 1 0 0 0 0 6 2 54 49 90 153 120 95 203 136 88 131 236 297 561 792 843 1451 2032 2206
0 16 26 1 16 0 0 0 0 0 0 112 356 265 180 137 47 37 4 3 0 0 0 0 0 26 47 61 74 57 49 23 125 110 34 54 102 129 187 467 914 1045 1111 1621
0 0 0 2 1 2 3 0 0 0 0 538 383 219 139 87 8 3 1 1 0 0 0 0 0 0 0 0 0 0 0 0 0 1 4 5 17 52 51 74 256 557 804 719
0 0 0 3 0 1 12 0 0 0 0 39 318 221 56 64 16 12 0 0 0 0 0 0 0 0 0 0 0 0 0 0 0 0 0 0 0 12 2 55 54 81 195 229
0 0 0 1 20 124 6 0 0 0 72 94 308 263 174 105 2 9 1 0 0 0 0 0 0 0 0 0 0 0 0 0 0 0 0 0 0 0 15 6 4 33 31 54
139 28 30 4 7 63 45 0 3 122 57 31 61 123 73 11 9 29 17 0 0 0 0 0 0 0 0 0 0 0 0 0 0 0 0 0 0 0 0 1 18 9 1 0
24 166 187 211 246 183 3 16 26 75 108 97 29 10 1 0 0 0 0 0 0 0 0 0 0 0 0 0 0 0 10 10 7 3 0 0 0 0 0 0 0 4 6 1
31 0 92 116 277 168 36 0 0 33 5 0 0 20 14 0 0 0 0 0 0 0 0 0 0 0 0 0 1 9 1 0 0 2 3 1 0 0 0 0 0 0 0 0
81 38 22 43 34 4 0 1 0 0 0 0 0 0 0 0 0 0 0 0 0 0 0 0 0 0 0 0 0 0 5 6 2 2 2 0 0 0 0 0 0 0 0 0
142 111 523 171 71 31 36 17 1 0 0 0 0 0 0 0 0 0 0 0 0 0 0 0 0 0 0 0 0 7 3 14 12 4 0 0 0 0 0 0 0 0 0 0

GFSCGP_con_mucape_105.txt.gz
CAPE
0 0 0 0 0 0 0 61 92 176 408 197 113 37 3 37 173 200 147 58 25 21 28 8 0 0 222 145 63 843 597 1167 550 966 897 911 872 984 602 324 1326 1311 1360 1037
0 0 0 0 0 0 37 4 246 431 432 137 170 93 24 75 157 138 159 32 32 26 20 6 0 33 129 153 227 709 1244 774 448 1024 1282 1307 983 1128 1010 1024 1135 1264 1306 1200
0 0 0 0 0 0 24 21 115 265 60 162 48 64 41 9 56 114 88 173 34 16 9 0 0 35 88 171 469 952 947 1185 1276 815 814 538 618 1037 1114 1312 1292 1347 1284 1364
0 0 0 0 0 0 1 11 233 150 73 107 133 11 0 21 1 63 62 190 65 42 23 15 0 36 76 180 430 1027 944 780 1205 1470 688 194 479 790 862 1113 1219 1520 1341 1505
0 0 0 0 0 0 4 414 294 38 7 73 62 114 61 14 0 8 44 49 37 48 51 31 0 0 63 193 346 1177 954 777 893 1396 1204 766 685 546 867 1051 1187 1499 1391 1669
0 0 0 0 0 0 0 0 96 151 38 99 221 173 138 66 19 6 9 0 77 84 63 74 29 8 77 147 373 989 1189 1151 1299 1086 1017 893 182 19 639 784 1267 1246 1157 1217
0 0 0 0 0 0 20 35 24 8 15 0 191 155 59 44 11 0 0 13 333 310 89 109 117 102 95 166 399 534 1582 1457 1310 1647 1140 805 605 670 746 610 842 1194 1234 1328
0 0 0 0 0 0 35 1 7 19 0 0 62 144 111 102 79 132 213 80 302 326 266 319 363 96 107 141 370 570 1297 1560 1465 1445 1462 1108 718 752 430 535 1052 1299 1022 1036
4 0 0 0 0 0 0 0 6 33 30 10 272 281 265 116 51 64 106 156 292 298 223 631 306 429 246 96 339 604 956 1527 1921 1540 1903 1374 1123 698 623 635 977 1193 408 948
36 0 15 20 20 0 0 0 52 32 4 7 218 308 251 140 113 60 35 87 33 128 121 261 175 313 520 393 434 736 937 1137 1717 1820 1977 1807 1638 1580 1666 1729 1748 1180 856 670
16 4 25 16 1 0 32 0 1 7 0 0 203 148 278 97 42 34 48 100 158 176 193 130 119 122 355 309 425 449 398 406 394 667 815 1856 1768 1796 1874 1671 1610 1031 825 722
0 18 1 0 1 0 36 32 3 1 1 17 254 129 141 113 44 67 111 119 53 91 147 225 252 151 262 269 232 269 207 268 228 316 356 918 1948 1783 1831 1845 2137 1178 1091 950
4 12 8 6 0 0 0 42 1 0 54 24 11 137 116 15 13 87 143 38 94 178 174 169 214 241 154 213 195 190 35 15 13 94 393 1060 1595 1853 1781 1988 2036 1896 1513 1358
0 9 5 0 0 0 0 3 25 0 39 232 283 156 117 106 46 41 117 140 53 53 89 102 155 149 253 142 140 115 110 22 5 2 253 500 954 1149 1312 1852 2248 2434 1990 1852
0 2 0 0 0 0 0 0 2 0 29 78 109 84 69 54 41 48 64 87 68 22 32 39 83 83 179 136 115 110 122 3 27 83 147 201 383 654 842 1034 1308 1633 2017 2175
0 0 0 0 0 0 0 0 0 0 482 447 153 67 50 25 10 36 42 5 13 3 3 28 65 85 134 133 77 46 65 81 116 105 281 322 370 399 548 638 1085 1178 1285 1312
0 0 0 1 0 0 0 0 0 0 0 440 181 163 47 35 22 0 2 37 0 2 3 0 7 18 48 51 89 85 51 39 64 34 48 107 146 222 253 343 434 739 852 1040
0 0 0 0 0 0 0 0 0 0 0 435 261 147 115 46 7 1 10 14 0 0 0 0 0 8 68 75 110 137 139 92 49 30 23 59 109 119 135 152 312 367 500 618
0 0 0 0 0 0 0 4 0 8 669 654 309 186 93 70 30 4 5 1 0 0 0 0 0 2 43 39 95 119 123 70 48 23 24 40 62 53 84 123 149 233 380 601
0 0 0 0 0 0 1 0 0 0 492 598 359 246 61 37 22 1 2 1 0 0 0 0 0 0 0 0 0 0 0 0 0 0 0 0 0 0 1 26 6 11 38 114
0 0 0 0 0 44 5 0 0 0 69 294 378 181 95 77 14 1 0 0 0 0 0 0 0 0 0 0 0 0 0 0 0 0 0 0 0 0 0 0 0 0 13 40
87 0 0 0 1 17 3 2 84 116 263 482 213 71 40 41 33 0 3 3 0 0 0 0 0 0 0 0 0 0 0 0 0 0 0 0 0 0 0 0 0 0 0 4
3 66 103 40 140 62 0 0 21 60 120 134 85 78 109 90 36 23 44 24 4 0 0 0 0 0 0 0 0 0 0 0 0 0 0 0 0 0 0 0 0 0 0 0
14 9 16 81 110 98 0 0 0 15 46 26 0 3 0 14 4 6 12 0 0 0 0 0 0 0 0 0 0 0 0 0 0 0 0 0 0 0 0 0 0 0 0 0
99 32 42 31 2 12 0 0 0 0 0 0 8 15 12 6 2 0 0 0 0 0 0 0 0 0 0 0 0 0 0 0 0 0 0 0 0 0 0 0 0 0 0 0
48 22 61 90 60 0 5 7 3 0 0 0 0 0 0 8 18 5 0 0 0 0 0 0 0 0 0 0 0 0 0 0 0 0 0 0 0 0 0 0 0 0 0 0

GFSCGP_con_mucape_108.txt.gz
CAPE
0 0 0 0 0 0 71 23 287 284 239 239 131 84 117 195 117 10 147 180 66 80 100 145 308 337 208 272 229 718 380 622 510 592 331 308 341 536 760 852 1044 1199 1270 994
0 0 0 0 0 0 53 22 138 304 192 166 104 53 86 166 132 79 141 186 77 117 97 105 189 153 131 115 297 324 492 649 661 925 735 706 757 814 709 798 1228 1176 1227 740
0 0 0 0 0 0 4 13 150 355 267 136 110 51 88 125 95 113 177 122 135 113 76 100 208 199 138 198 448 512 653 478 403 1030 875 741 794 956 934 880 963 1120 1177 1066
0 0 0 0 0 0 0 12 179 217 76 15 70 7 45 62 123 169 181 139 145 80 90 109 158 204 146 297 465 646 606 550 755 754 905 603 770 836 871 846 958 1155 1103 1189
0 0 0 0 0 0 8 322 322 265 64 24 0 19 13 15 75 77 101 84 117 70 52 35 142 187 167 300 481 521 615 731 1244 1234 792 549 767 756 970 1049 1126 1127 1076 1197
0 0 0 0 0 0 286 311 272 157 81 50 46 56 67 25 46 107 127 74 179 64 138 42 175 190 180 292 606 452 423 435 799 1049 1143 622 549 766 909 939 1082 1140 1181 1332
0 0 0 0 0 0 35 353 116 84 32 9 11 34 42 25 46 67 124 76 84 57 78 184 118 163 175 302 575 736 530 587 853 887 978 727 428 353 838 871 1082 1059 901 1014
0 0 0 0 0 0 0 0 6 0 15 6 8 2 237 69 44 16 21 133 86 217 127 344 277 140 176 240 409 981 706 765 978 914 957 765 409 584 561 707 911 883 982 1170
0 0 0 0 0 0 0 4 0 2 21 18 164 172 168 99 53 136 52 170 122 109 264 224 409 472 179 186 343 782 994 922 832 1486 898 841 547 705 684 497 718 1017 1054 1056
0 0 0 0 0 10 1 0 4 1 17 0 104 177 116 118 143 86 61 14 67 140 198 218 137 364 279 280 452 559 1194 1181 954 918 1361 1110 878 657 314 522 807 987 904 702
0 0 0 0 3 0 0 0 14 9 30 2 87 105 166 124 110 46 71 38 101 151 80 134 164 180 260 268 425 623 719 870 750 569 708 1003 1378 1219 1070 1429 1338 1206 787 694
0 0 0 0 15 0 0 1 31 19 51 91 144 179 172 107 65 78 23 131 100 188 216 118 94 232 201 193 219 182 303 355 199 171 250 199 559 978 1563 1611 1183 979 857 645
0 8 23 34 43 23 0 7 52 37 60 69 57 216 344 67 49 17 52 58 49 156 207 110 106 158 197 91 235 257 143 72 154 115 149 281 461 1037 1315 1472 1397 1302 863 793
0 6 26 26 0 7 0 7 29 59 28 172 181 175 98 62 0 0 9 49 60 82 134 165 92 107 100 215 192 317 184 104 40 18 68 183 325 569 1147 1335 1207 1375 1264 1029
0 1 14 40 8 0 0 0 13 65 48 33 153 100 32 56 0 6 16 109 157 177 251 135 52 90 153 169 227 133 107 88 39 42 29 70 216 301 463 696 877 1000 1126 1382
0 0 7 20 0 0 0 0 32 351 248 255 175 109 58 101 12 9 14 90 6 62 149 102 93 86 142 160 154 171 162 128 57 108 101 144 156 126 128 218 316 398 864 1292
0 0 0 0 7 0 0 0 0 208 312 336 115 84 111 34 57 3 39 4 20 8 13 85 108 145 122 138 91 113 124 69 71 103 77 82 144 179 68 108 96 119 386 676
0 0 0 0 0 12 0 0 10 145 407 293 183 132 87 95 52 14 0 7 0 1 0 6 27 39 60 64 118 121 113 122 116 65 88 124 133 84 14 14 82 49 138 276
0 0 0 0 12 0 0 0 43 545 438 369 212 187 92 12 26 11 3 2 0 0 0 0 0 2 60 35 118 151 129 131 134 98 79 77 77 120 130 86 112 23 105 145
0 0 0 0 0 8 0 0 239 250 326 374 325 205 91 20 0 0 0 0 0 0 13 18 11 34 68 67 105 124 98 87 67 30 34 44 18 11 0 39 68 139 129 133
0 0 0 0 0 0 0 0 0 0 0 445 325 226 155 91 4 0 0 0 0 0 0 0 0 0 0 0 4 10 0 0 0 0 0 0 0 0 0 0 0 0 12 34
5 0 0 0 0 0 0 0 6 11 57 377 436 332 202 123 65 30 10 29 22 0 0 0 0 0 0 0 0 0 0 0 0 0 0 0 0 0 0 0 0 0 0 0
13 8 22 24 0 0 0 37 77 349 388 401 386 284 271 172 142 121 98 49 3 0 0 0 0 0 0 0 0 0 0 0 0 0 0 0 0 0 0 0 0 0 0 0
0 9 34 59 14 25 0 5 23 62 92 111 89 124 139 63 80 93 100 72 42 11 5 0 0 0 0 0 0 0 0 0 0 0 0 0 0 0 0 0 0 0 0 0
10 13 3 10 11 16 0 1 0 0 5 6 10 6 20 42 74 87 63 89 8 0 0 0 0 0 0 0 0 0 0 0 0 0 0 0 0 0 0 0 0 0 0 0
0 10 24 0 0 0 0 0 0 0 0 0 0 0 0 0 0 0 0 0 0 0 0 0 0 0 0 0 0 0 0 0 0 0 0 0 0 0 0 0 0 0 0 0

GFSCGP_con_mucape_111.txt.gz
CAPE
0 0 0 0 3 0 0 4 30 315 244 237 98 51 173 187 92 111 67 128 104 114 159 187 265 451 466 408 362 302 360 326 266 346 9 165 364 341 573 737 866 1035 1141 940
0 0 0 0 0 0 0 0 109 200 226 182 94 106 103 166 124 96 41 112 95 147 193 221 240 397 344 416 348 354 401 395 300 456 367 336 303 468 605 672 927 997 1107 873
0 0 0 0 0 0 0 1 48 288 247 195 135 80 87 91 82 71 18 87 113 93 141 187 236 351 247 440 427 479 347 469 483 664 565 594 619 732 643 603 819 1022 1100 718
0 0 0 0 0 0 0 105 26 355 158 79 73 0 77 91 78 31 49 72 141 97 119 228 279 271 149 216 249 357 351 543 496 838 641 639 678 634 707 418 843 949 1049 1040
0 0 0 0 0 0 24 67 15 205 120 17 22 0 0 51 46 20 6 12 135 78 73 189 196 171 131 144 239 308 367 380 443 664 698 600 485 550 636 696 800 974 1006 936
0 0 0 0 0 0 267 270 222 186 91 28 18 2 51 52 42 10 36 95 131 67 90 99 121 151 119 240 307 337 379 415 513 641 684 680 528 590 663 801 908 913 974 1039
0 0 0 0 0 0 239 262 106 42 55 13 26 23 49 81 58 93 74 135 166 100 68 243 94 111 134 283 343 338 373 428 900 971 975 711 367 495 592 766 927 902 909 993
0 0 0 0 0 0 295 158 10 0 19 26 103 47 57 101 54 106 97 138 162 119 127 149 169 121 138 251 431 339 325 310 599 769 936 769 580 460 698 719 805 919 900 870
0 0 0 0 0 0 0 56 0 2 0 2 47 175 413 76 58 82 96 59 82 178 241 149 311 263 107 159 446 461 397 342 540 754 772 740 478 47 301 598 745 896 755 872
0 0 0 0 0 0 0 0 1 0 0 0 75 110 192 83 80 74 43 44 47 64 366 242 251 319 229 166 319 849 542 558 567 1070 756 838 584 453 542 577 494 634 837 877
0 0 0 0 0 0 0 0 4 0 0 0 25 54 116 84 40 62 60 44 48 86 163 232 194 191 161 228 382 801 709 703 604 821 1058 1050 933 719 508 205 411 539 644 763
0 0 0 8 14 0 23 10 4 0 0 70 55 30 141 106 43 63 50 42 26 47 98 55 82 91 204 203 271 242 216 427 684 550 632 694 715 903 1114 1087 977 1308 1131 690
0 0 0 42 49 29 0 2 0 5 15 28 10 36 168 204 91 158 59 87 65 51 32 43 42 141 173 157 124 127 63 148 284 258 157 145 192 367 705 1138 1361 1376 886 828
2 0 0 41 63 52 20 0 0 0 17 20 46 189 181 154 64 35 10 35 50 94 110 79 30 94 153 125 97 85 109 112 56 6 78 89 165 251 637 1025 1284 1190 1131 1023
0 3 11 57 60 56 52 21 0 0 15 15 55 120 108 73 46 29 41 70 16 24 63 133 109 104 162 110 97 170 174 119 7 36 76 84 126 190 391 624 956 867 958 1123
2 8 11 19 15 43 52 33 68 140 222 136 134 77 53 87 30 36 16 18 117 124 152 132 108 139 146 150 180 94 134 221 189 122 125 171 144 102 118 185 363 331 605 667
0 8 2 5 14 14 16 5 0 218 311 203 116 97 104 77 63 43 42 26 121 218 191 127 93 190 170 189 149 112 125 117 127 136 88 82 135 120 99 71 88 118 138 175
0 0 0 0 1 16 0 0 39 418 373 319 160 127 97 70 65 49 63 53 23 53 24 79 163 148 189 206 206 206 190 181 160 81 123 95 53 45 46 5 9 50 27 63
0 0 0 0 0 0 0 13 0 128 368 341 221 139 102 96 103 34 35 48 68 0 0 14 22 136 228 214 193 203 199 142 121 75 104 103 105 119 107 48 10 28 7 5
0 0 0 0 0 0 0 0 0 48 5 361 292 255 159 76 0 0 8 15 15 3 2 0 5 44 104 110 175 211 225 286 272 181 126 112 120 121 92 135 134 153 105 53
0 0 0 0 0 0 0 0 1 0 0 466 428 330 267 129 16 2 7 1 0 0 1 0 14 36 48 52 61 21 26 25 36 33 46 56 81 69 11 2 3 25 58 97
0 0 0 0 0 0 0 0 2 5 275 521 456 411 233 126 62 18 18 6 2 0 0 0 0 0 0 0 0 0 0 1 0 0 0 0 0 0 0 0 0 0 0 0
12 0 2 0 0 15 20 86 318 313 212 512 444 336 242 161 54 50 42 28 4 0 0 0 0 0 0 0 0 0 0 0 0 0 0 0 0 0 0 0 0 0 0 0
16 38 40 16 0 0 0 35 209 409 423 584 498 302 222 136 51 50 42 34 44 40 17 0 0 0 0 0 0 0 0 0 0 0 0 0 0 0 0 0 0 0 0 0
5 1 3 1 0 0 0 2 36 82 143 273 194 161 130 102 49 39 53 42 50 47 93 43 1 0 0 0 0 0 0 0 0 0 0 0 0 0 0 0 0 0 0 0
0 2 0 0 6 11 0 0 1 10 21 44 63 84 87 66 67 67 36 51 73 119 77 13 0 0 0 0 0 0 0 0 0 0 0 0 0 0 0 0 0 0 0 0

GFSCGP_con_mucape_114.txt.gz
CAPE
0 0 0 34 20 7 0 0 0 321 208 219 106 75 49 48 51 22 29 46 114 143 123 241 297 350 360 384 402 358 233 96 38 92 189 272 335 405 429 680 758 865 1090 927
0 0 0 14 22 8 3 0 65 274 264 188 110 138 149 101 59 26 96 63 54 107 146 217 275 369 339 340 234 178 102 131 201 145 16 13 267 264 419 573 738 830 894 794
0 0 0 0 10 10 6 2 66 245 264 210 210 142 74 103 68 56 103 84 95 147 171 232 227 340 357 347 187 177 244 236 230 295 270 313 425 519 544 562 740 906 969 777
0 0 0 0 0 0 2 0 1 294 135 38 120 0 28 121 72 82 33 52 92 131 179 196 221 269 308 336 203 237 280 280 252 475 343 372 454 540 554 499 650 800 911 875
0 0 0 0 0 0 3 4 0 244 113 51 0 0 0 103 111 58 25 47 110 95 96 150 231 233 238 247 272 219 268 279 362 612 467 531 537 490 489 547 639 780 883 904
0 0 0 0 0 0 172 160 130 145 63 17 0 0 0 109 67 68 32 46 46 96 76 117 174 177 228 206 245 329 284 312 408 629 555 499 410 434 521 541 650 857 857 796
0 0 0 0 0 0 131 136 77 79 66 32 1 2 3 21 34 64 26 31 26 148 45 63 68 135 180 182 192 217 256 327 285 529 550 618 476 523 537 553 659 754 821 854
0 0 0 0 0 0 47 4 42 2 0 16 74 14 2 11 46 54 47 41 29 131 74 46 66 82 130 138 249 249 271 299 436 551 765 738 592 378 444 542 715 759 716 728
0 0 0 0 0 0 0 3 22 0 0 31 41 103 85 39 60 113 55 32 29 118 162 78 81 230 95 131 276 301 284 290 490 775 743 736 509 374 450 558 683 732 759 796
0 0 0 0 0 0 0 0 0 0 0 0 39 87 75 103 67 127 117 93 99 121 227 219 165 327 160 123 157 401 322 276 298 560 643 615 597 359 145 242 525 706 822 702
0 0 0 0 0 0 0 0 0 2 0 0 0 6 85 102 211 249 194 140 134 153 206 134 170 233 159 164 259 621 493 356 390 646 678 682 613 539 409 344 385 528 581 707
0 0 0 0 0 0 15 0 0 0 0 0 0 0 73 104 259 99 59 66 116 86 103 196 169 233 121 116 261 525 378 336 337 545 899 762 692 602 717 658 292 237 367 487
0 0 0 0 3 6 32 38 20 6 0 39 0 0 115 172 110 80 93 58 42 22 42 86 129 93 82 64 132 231 169 168 175 295 462 418 432 398 457 621 858 874 1008 854
0 0 0 0 5 24 6 24 37 26 14 4 0 24 112 224 185 122 97 179 133 168 71 16 51 61 108 98 113 110 102 143 74 140 280 170 70 111 265 509 774 1062 1192 975
0 0 0 5 24 46 66 5 8 3 17 24 17 34 135 237 246 230 193 237 102 126 107 94 71 61 84 33 119 86 167 145 143 65 63 6 39 50 174 397 607 829 1001 1027
0 0 17 22 26 36 54 34 21 148 114 125 52 88 171 340 293 212 140 141 132 164 196 89 106 153 60 88 86 64 132 39 0 64 20 47 109 71 95 242 387 565 719 692
0 17 7 5 26 28 66 51 33 44 218 255 155 110 252 263 217 169 173 122 90 113 147 273 119 141 181 155 133 127 80 106 11 15 28 95 145 106 52 108 157 225 225 244
9 0 0 0 11 25 4 7 133 287 285 256 186 152 286 314 210 122 151 320 176 185 177 215 196 175 224 250 206 223 189 145 108 138 126 157 88 115 159 81 62 61 61 80
0 4 5 1 10 0 0 0 0 3 46 278 209 209 215 230 158 177 214 199 165 170 145 201 218 349 261 282 258 193 197 201 200 200 164 182 170 110 107 19 20 18 12 8
0 0 0 0 0 1 0 0 0 0 13 321 313 340 301 258 231 283 321 227 121 47 56 77 110 130 130 193 185 154 162 151 238 268 224 113 134 161 122 96 83 88 99 101
0 0 0 0 0 0 0 0 0 2 0 444 393 315 275 266 206 110 83 28 24 16 78 31 60 263 197 162 182 252 232 179 170 155 189 189 213 180 155 84 78 61 72 93
0 0 0 0 0 0 0 0 0 0 144 471 447 382 355 275 179 119 67 8 0 12 29 26 41 48 63 53 64 79 61 66 50 107 72 102 160 207 162 23 9 5 0 0
0 0 0 0 0 0 11 115 214 207 168 509 572 400 378 300 124 121 107 29 0 0 0 0 0 0 0 0 0 1 0 0 0 0 0 0 0 0 0 0 0 0 0 0
13 46 52 12 18 25 21 168 157 334 409 185 589 427 249 220 137 73 94 50 41 27 8 0 0 0 0 0 0 0 0 0 0 0 0 0 0 0 0 0 0 0 0 0
2 0 33 20 35 34 15 55 108 269 464 587 459 343 204 123 18 48 11 40 29 31 32 9 5 0 0 0 0 0 0 0 0 0 0 0 0 0 0 0 0 0 0 0
5 0 0 1 33 16 1 11 26 58 197 298 350 245 204 116 24 20 1 0 1 20 33 36 31 2 0 0 0 0 0 0 0 0 0 0 0 0 0 0 0 0 0 0

GFSCGP_con_mucape_117.txt.gz
CAPE
0 0 0 35 50 17 9 0 1 343 452 426 275 273 305 305 153 157 165 98 298 269 368 434 411 535 772 846 925 957 888 481 150 484 553 742 1143 1314 1480 1747 1839 2102 2004 2056
0 0 0 1 49 47 7 0 387 485 470 401 323 265 273 303 223 183 115 71 164 219 269 453 498 621 782 909 925 877 825 586 334 367 478 547 1088 1068 1338 1662 1817 1956 2002 1918
0 0 0 0 29 53 12 4 271 348 501 399 367 419 320 268 195 101 87 102 103 172 260 446 542 722 770 908 889 871 797 382 375 613 565 885 1088 1345 1286 1500 1738 1819 1960 1787
0 0 0 0 0 29 19 1 10 513 256 91 220 97 277 263 254 107 110 114 80 174 240 331 473 709 749 818 774 761 745 395 737 1053 680 1045 875 1126 1743 1877 1810 2019 1947 1981
0 0 0 0 0 6 11 0 0 54 177 88 221 63 55 155 319 195 101 123 114 97 98 330 417 563 629 712 695 658 783 873 820 1150 1047 1120 1563 1817 1167 1670 1719 2091 2225 2062
0 0 0 0 0 0 47 4 69 149 122 0 24 36 63 231 350 300 228 151 175 121 115 190 290 416 520 590 613 626 818 989 984 1084 1245 1537 1485 1846 2042 1570 1444 2035 1758 1865
0 0 0 0 0 0 207 47 154 152 82 4 17 39 49 99 87 340 310 169 185 151 183 183 267 363 419 429 543 594 905 1040 1054 1195 1302 1170 1265 1409 1437 1904 2374 2126 1598 1896
0 0 0 0 0 0 19 0 0 0 26 5 100 93 85 120 84 111 327 250 138 142 231 261 221 338 359 305 546 654 898 1126 1089 1160 1435 1274 1249 1085 1324 1598 1321 1477 1687 2845
0 0 0 0 0 0 0 0 0 25 9 68 147 146 266 153 197 179 310 190 99 223 260 217 263 269 361 331 507 691 877 1022 1126 1164 1759 1627 1116 892 1066 1350 1618 1624 1857 2141
0 0 0 0 0 0 0 0 0 10 60 1 145 222 243 204 283 355 311 246 115 227 319 306 338 471 468 386 571 728 931 1040 1160 1323 1626 1772 1139 862 697 905 1435 1657 1673 1854
0 0 0 0 0 0 0 0 0 5 0 6 71 227 426 405 279 452 326 217 213 236 310 420 299 529 659 608 467 950 1034 1025 1053 1223 1543 1626 1206 931 1047 994 1156 1391 1650 1775
0 0 0 0 0 0 0 0 0 20 0 4 83 41 198 318 287 283 298 320 309 255 357 420 356 410 392 504 643 1025 1254 1153 1143 1055 1384 1214 1137 1310 1386 1183 802 970 1260 1473
0 0 0 0 0 0 0 0 0 0 70 137 6 22 240 397 261 208 451 379 350 352 377 449 330 419 543 281 173 283 343 411 638 803 824 682 729 864 1257 1581 1769 1413 1597 1784
2 0 9 0 6 0 0 0 1 4 48 115 53 251 316 378 391 323 262 302 237 225 180 193 282 330 241 205 156 142 144 178 220 272 174 300 317 313 264 643 1669 1983 2120 1954
0 27 0 0 0 0 1 0 59 27 10 90 156 351 465 441 331 357 303 212 93 106 125 87 96 185 148 106 115 77 78 83 98 98 83 87 198 137 255 312 633 1614 2110 2002
0 9 0 0 0 0 0 25 19 94 85 148 152 384 365 608 427 686 683 310 239 186 186 132 166 139 99 138 144 77 68 95 101 108 89 60 84 85 73 153 343 579 968 1325
1 7 24 6 0 4 2 0 32 146 285 337 331 331 423 495 500 463 470 400 239 129 139 99 81 95 175 28 53 36 30 23 3 45 60 76 29 92 79 123 205 356 449 538
0 12 13 1 23 49 7 1 52 163 356 463 457 327 475 422 449 443 364 263 141 92 160 148 152 124 159 85 80 47 33 27 0 9 1 51 35 72 132 105 120 125 82 112
0 0 0 17 7 2 0 0 1 3 47 164 451 434 408 489 435 328 247 257 245 193 235 187 234 162 201 186 143 66 89 64 8 65 97 81 91 75 125 112 153 32 36 40
4 2 1 0 8 6 0 0 0 4 0 374 540 485 528 392 358 335 339 399 280 127 135 117 160 227 226 165 154 122 154 104 145 143 145 188 196 214 235 137 60 7 25 21
0 0 0 0 0 0 0 0 0 10 12 401 675 621 639 709 557 221 410 355 244 103 105 101 138 151 191 190 109 155 155 160 237 174 227 240 204 190 238 221 170 109 81 73
0 0 0 0 0 0 0 39 7 79 108 342 735 654 584 319 274 309 383 268 177 97 92 33 116 151 167 165 172 114 157 184 197 198 174 162 191 214 215 168 181 87 26 28
120 1 35 0 0 0 0 34 127 154 272 524 762 484 389 230 197 207 108 89 70 78 48 84 47 84 41 55 55 98 35 73 85 69 117 99 31 59 47 63 16 24 1 0
14 13 279 104 78 38 5 21 62 271 325 183 597 510 414 258 98 163 95 2 13 0 0 0 0 2 5 0 0 0 0 0 0 0 0 0 0 0 0 0 0 0 0 0
101 41 86 78 33 34 11 0 3 113 452 631 509 478 343 245 91 104 66 36 41 37 31 4 0 0 0 0 0 0 0 0 0 0 0 0 0 0 0 0 0 0 0 0
52 212 427 472 80 62 18 0 0 103 230 390 450 245 175 199 87 70 67 5 7 6 20 42 9 15 8 0 0 0 0 0 0 0 0 0 0 0 0 0 0 0 0 0

GFSCGP_con_mucape_120.txt.gz
CAPE
0 0 0 20 15 0 197 124 210 514 673 551 315 333 197 191 147 84 151 256 380 390 510 574 552 658 771 906 1021 1008 1123 1157 916 1121 915 966 1081 1269 1325 1323 1844 2107 1920 2346
0 0 1 25 0 9 0 6 270 465 748 713 350 331 667 547 101 1 96 112 339 352 433 637 733 697 906 1025 1155 1285 1361 1554 700 867 1042 851 984 1046 1176 1291 1839 1681 1894 2161
0 0 0 0 1 4 9 9 311 283 580 570 583 521 612 606 553 93 86 79 134 335 465 729 850 781 894 1130 1149 1296 1465 1485 1416 856 1071 1345 1691 1671 1544 1509 1679 1714 1639 1802
0 0 0 0 0 9 35 7 148 489 334 270 553 414 605 688 651 247 199 115 52 167 439 535 828 880 905 1054 1118 1141 1501 1535 1183 1155 1020 1065 831 1330 1837 2108 1358 1491 1596 1628
0 0 0 0 0 0 6 0 0 2 5 23 240 137 464 706 613 571 490 104 113 82 258 453 522 817 945 1039 1005 834 1396 1335 929 1570 1403 1125 1154 816 930 1072 1569 1600 1963 1929
0 0 0 0 0 0 0 0 0 0 3 1 24 82 490 537 572 533 450 429 241 99 203 363 544 713 957 981 1001 783 1185 1651 1501 1673 1397 1610 1340 1061 1095 1270 1333 1388 1330 1618
0 0 0 0 0 0 0 1 61 32 36 10 60 52 108 374 394 434 770 548 392 171 89 238 465 773 950 960 1077 844 1152 1576 1665 1642 1408 1235 1321 1455 1520 1542 1382 1247 1204 1150
0 0 0 0 0 0 0 37 71 93 91 86 184 50 145 309 421 548 778 670 614 453 185 153 484 815 1010 896 1076 979 1274 1437 1596 1551 1802 1568 1257 1436 2339 1554 1003 950 925 1336
0 0 0 0 0 0 0 0 6 60 84 127 309 142 714 534 472 468 573 788 579 609 287 181 245 652 820 884 1047 1130 1233 1659 1657 1411 1871 1929 1575 1405 2351 1754 1618 1313 1243 905
0 5 0 0 0 0 0 0 0 1 118 90 174 163 196 831 591 678 725 869 829 614 313 305 399 600 839 803 881 1130 1306 1674 1632 1335 1490 1450 1470 1732 1878 2065 1921 1887 1561 1198
0 10 4 0 0 0 0 0 0 4 7 93 120 174 777 776 718 906 826 907 938 823 703 466 705 789 829 817 809 1040 1307 1512 1478 1535 1230 1463 1257 1449 1784 1348 1658 2189 1887 1757
0 27 88 36 0 0 0 0 0 8 36 46 90 339 788 911 739 968 931 971 911 821 804 778 613 824 1115 1059 840 1127 1409 1364 1390 1477 1570 1200 1273 1131 1192 1570 1580 1932 2426 2519
16 23 76 45 1 0 0 0 0 10 36 79 60 44 921 896 837 971 993 817 828 714 751 795 862 940 890 1017 1121 1212 1375 1445 1424 1577 1293 1164 1170 1234 1253 1290 1153 1456 1787 2076
3 68 47 77 90 55 1 0 0 0 17 38 89 166 934 1037 961 905 818 613 701 722 859 761 799 983 881 900 663 907 1164 1171 1309 1351 1305 1457 1421 1396 1295 1650 1683 2074 1750 1910
19 65 53 12 0 1 1 0 0 15 9 59 61 87 117 987 1112 944 617 572 671 634 504 589 704 739 584 623 639 546 722 727 806 592 747 865 781 988 1078 1133 1618 2017 1845 1278
0 34 31 22 0 1 0 0 5 23 53 67 95 165 718 1081 1138 750 752 617 638 545 449 419 435 419 347 297 322 268 156 146 320 287 299 280 359 405 410 554 634 1282 1940 1981
1 2 32 65 19 22 27 7 5 91 244 258 310 779 896 1158 825 755 667 646 558 434 438 461 487 409 390 217 210 168 75 17 19 49 205 179 245 324 393 342 419 768 1089 1529
32 32 15 96 113 113 142 66 27 72 199 612 501 549 647 964 786 609 578 461 377 317 209 150 142 158 291 213 138 52 11 1 5 8 82 95 75 75 115 256 301 314 405 509
61 140 106 36 48 76 68 68 53 65 88 71 76 504 874 721 649 714 656 666 516 215 160 152 157 179 266 259 117 34 0 2 0 16 17 61 66 71 77 72 69 161 233 307
28 161 214 164 89 77 156 17 24 88 153 199 430 703 660 723 979 556 564 455 291 243 185 131 103 307 287 294 132 68 13 41 4 5 9 39 71 57 35 58 61 112 99 72
43 114 135 189 123 66 33 45 36 151 291 328 749 944 883 823 845 344 183 419 234 140 85 135 147 430 356 375 215 162 83 9 6 12 86 97 102 64 112 88 74 100 69 82
75 75 46 41 56 59 168 163 149 516 414 385 806 1165 1183 647 500 314 316 573 255 158 79 77 71 378 354 303 202 207 152 58 58 116 111 116 108 143 110 125 136 136 160 135
363 131 271 33 297 441 372 434 419 580 755 719 959 1181 814 879 382 341 412 270 268 213 137 67 151 170 58 78 158 87 97 116 158 156 108 110 72 15 158 183 181 233 176 70
464 378 337 428 362 421 372 456 360 816 929 705 1104 983 802 790 450 206 200 151 140 134 106 40 113 158 126 91 121 115 7 2 0 18 56 2 29 1 7 0 0 5 12 8
567 544 613 577 639 475 341 346 401 732 1016 989 965 930 863 714 424 166 124 101 49 59 57 7 20 26 8 0 0 0 0 0 0 0 0 0 0 0 0 0 0 0 0 0
407 530 548 426 785 635 701 349 356 424 726 836 812 840 833 630 222 222 72 1 0 1 9 4 2 0 1 2 10 0 0 0 0 0 0 0 0 0 0 0 0 0 0 0

GFSCGP_con_mucape_123.txt.gz
CAPE
0 0 4 50 100 51 36 81 159 337 952 574 311 279 222 198 220 221 204 235 168 121 210 194 257 306 421 530 1065 1532 1686 1262 1659 1104 850 1075 958 1432 1129 1027 1659 1822 1657 1899
0 0 0 50 72 3 37 165 224 406 736 549 374 251 221 259 183 115 63 67 160 194 279 274 332 330 449 658 1140 1066 1204 1440 1366 2212 1980 2604 1513 2293 1916 1611 1222 1523 1517 1923
0 0 0 53 58 0 14 81 167 324 592 507 411 544 308 167 182 1 24 73 106 265 190 343 462 439 450 463 930 1700 1584 1580 1244 1431 1733 1425 2415 1811 1539 2101 1693 1452 1528 1522
0 0 21 18 15 14 28 1 26 13 464 356 576 520 646 435 316 42 2 68 101 101 285 270 339 465 321 567 592 1020 1537 1749 1578 1476 2009 2551 1146 1299 1477 1614 2178 1831 1345 1350
0 0 0 7 6 20 23 1 13 200 288 156 238 172 157 830 713 369 91 29 144 12 265 235 204 342 489 547 476 765 1390 1745 1465 1679 1751 1385 1690 2265 1222 1882 1879 2221 2436 1474
35 8 0 4 1 0 6 0 0 3 68 56 187 171 309 965 950 851 290 75 40 0 107 244 275 221 525 514 411 486 1116 1755 1521 1845 1674 1670 1462 1863 1661 1332 1741 1476 1410 1589
10 0 0 0 0 0 0 1 41 52 92 81 64 107 631 223 597 973 596 426 83 5 61 84 303 334 571 670 344 506 1129 1720 1679 1694 1486 1549 1734 1542 1172 1724 1414 2383 1555 1366
32 0 0 0 0 0 0 25 150 188 167 156 161 134 584 508 462 660 969 679 417 35 62 45 365 357 836 604 508 501 1349 1638 1500 1422 1705 1849 1618 1417 1632 1735 1549 807 733 1518
37 38 0 0 0 0 0 1 62 42 16 69 29 262 622 403 600 585 593 950 787 388 148 28 178 434 755 608 997 1127 1429 1708 1557 1207 1842 1966 1664 1428 1237 1718 2163 1245 1178 1181
35 55 1 0 0 0 0 5 5 14 69 122 216 365 19 425 430 559 643 1031 811 882 434 169 142 408 512 722 1184 963 1306 1839 1550 1133 1268 1388 1466 1619 1419 1544 1897 1617 1517 996
28 18 14 0 0 0 0 0 1 29 46 69 135 463 516 652 570 723 765 823 968 899 799 274 250 390 958 1138 1345 1156 1375 1759 1721 1289 1362 1207 1110 1249 1742 1308 1493 1838 2029 1671
2 44 86 26 0 0 13 0 1 22 19 9 9 143 128 320 688 762 822 1032 1059 1017 938 360 275 683 956 572 1291 1152 1491 1586 1696 1570 1516 1098 1102 1122 1418 1653 1719 1818 1978 1997
40 48 146 45 27 0 0 17 11 1 32 52 109 369 987 821 730 949 1004 1093 1280 1404 794 770 1114 1164 1362 1188 1610 1391 1581 1791 1604 1603 1599 1571 1252 1035 1215 1571 1538 1701 1853 2300
0 31 114 14 45 29 4 0 7 30 74 61 67 791 807 769 1008 1298 1208 1327 1211 1402 1294 1141 1069 1165 1085 1288 1312 1318 1489 1692 2295 1906 1827 2363 1734 1375 1027 1512 1565 1657 1882 1876
0 55 72 10 3 0 18 35 11 3 1 45 38 104 192 499 1010 1229 1457 1426 1312 1014 1015 1006 1172 1168 1207 1265 1164 1241 1302 1530 2123 1820 2183 1847 2282 2260 1593 1593 1768 1563 1648 1606
6 6 3 1 10 4 0 9 28 40 35 18 19 30 246 612 1276 1359 976 958 1109 1235 1146 1114 1058 1095 996 1118 1066 963 1193 1252 1405 1584 1449 1452 1487 1399 1554 1680 1766 1935 1923 1823
18 18 49 8 8 31 24 4 29 50 115 114 109 924 774 578 1694 1479 1034 832 984 920 763 959 971 913 862 558 491 452 329 283 426 571 562 631 820 873 922 1039 987 1369 1903 2078
117 99 114 147 181 124 79 101 72 82 137 147 207 255 656 1263 1248 1124 1119 909 761 793 569 478 488 385 298 248 249 278 228 219 112 79 119 124 139 239 616 622 773 861 1084 1588
18 155 222 166 161 108 39 145 142 104 116 59 121 254 1185 1283 1104 900 1064 1000 886 674 400 232 246 272 443 300 255 193 78 13 1 0 14 56 22 27 45 116 236 354 576 939
3 43 194 232 189 158 44 30 16 79 176 251 289 347 1052 967 1030 1281 1158 774 753 414 166 179 214 256 312 520 241 142 57 0 0 1 9 15 11 11 40 49 62 96 213 334
53 32 125 120 150 196 102 3 0 43 413 195 383 532 1061 1042 930 1153 696 515 324 231 201 180 161 162 373 365 405 187 88 25 1 0 0 1 21 36 25 38 35 32 53 72
147 203 172 173 163 146 85 8 48 468 370 320 316 666 1161 870 965 491 412 267 310 222 130 132 150 198 365 295 360 321 288 177 4 1 3 8 40 35 64 43 63 45 61 108
250 206 286 241 362 320 133 300 324 418 452 524 524 936 1341 1124 619 194 164 256 286 160 129 111 89 52 277 420 389 364 224 66 16 0 23 57 24 71 59 64 62 73 67 107
285 387 276 256 172 218 201 329 349 382 446 692 810 1053 1088 864 374 307 330 310 300 168 174 171 95 141 112 113 149 210 243 127 13 4 101 47 15 35 38 72 88 83 75 104
358 363 247 238 388 375 327 316 356 524 608 878 962 945 918 750 516 333 376 213 63 54 47 56 63 61 124 93 62 82 39 21 56 13 62 0 3 0 0 0 0 0 0 0
72 262 328 380 662 396 666 484 340 395 544 757 955 928 941 792 572 371 215 206 121 35 22 43 42 5 14 0 0 0 0 0 3 15 0 0 0 0 0 0 0 0 0 0

GFSCGP_con_mucape_126.txt.gz
CAPE
0 0 0 1 107 100 205 64 28 265 358 469 269 86 7 14 56 188 121 72 120 81 188 178 264 241 206 853 1016 1936 1549 2272 2010 1924 562 1909 1848 2712 2479 2453 3101 2513 2475 2276
0 0 1 29 139 60 22 29 127 48 23 441 314 152 28 89 250 277 267 271 242 134 166 238 354 395 423 1178 1044 1762 1790 2249 2231 2112 1662 1845 1431 2709 1910 2532 2956 2242 2236 2188
0 0 1 4 39 17 38 21 214 39 37 165 385 314 341 107 211 175 117 29 75 231 191 148 386 525 538 983 1094 1505 1240 2175 2334 2014 2390 1924 1526 2783 1374 1015 2522 1736 2395 2304
0 0 0 4 10 109 6 74 178 38 0 73 504 337 237 212 73 166 81 1 48 212 181 100 210 292 389 1066 1257 1770 1922 2175 2070 2612 2160 2226 1355 1412 1245 2407 2239 2779 1912 1784
0 0 0 0 10 37 10 2 55 38 93 129 520 302 238 384 130 70 10 16 7 222 106 180 261 101 170 818 1312 2015 2003 1869 2183 1962 2647 2088 2183 2333 2144 1276 2463 1756 3180 2427
0 0 0 25 11 0 12 0 42 8 25 171 267 339 37 642 401 300 109 8 0 128 62 52 273 199 339 249 563 1651 2160 1980 2068 2199 2124 2616 2112 1251 1480 2081 2115 2150 1448 2201
0 30 6 0 0 0 0 3 10 8 166 141 167 182 142 250 632 727 330 256 60 164 9 13 126 154 257 564 327 1104 2246 2051 2391 2189 2101 2380 2209 2770 1525 2290 2288 2106 1717 1956
3 1 0 0 0 6 0 0 25 129 123 91 152 248 316 524 124 598 867 591 136 163 40 169 318 113 72 228 242 961 2286 2094 2072 2212 2051 2803 2758 1944 2291 2594 2793 1885 862 1393
12 19 0 0 0 0 5 0 0 24 0 2 76 162 509 92 229 512 905 760 205 244 26 90 278 33 56 64 223 1577 2047 2341 2290 2189 2307 2604 3030 2408 2143 2655 1926 1685 1745 1957
10 26 6 0 0 0 0 0 0 2 5 47 70 132 280 392 160 669 1045 707 660 278 50 49 209 86 23 6 283 1628 2221 2370 2083 1962 2382 2297 2410 2699 2551 2668 3008 2823 3082 987
0 1 8 0 0 0 0 0 0 0 2 22 116 459 400 40 35 118 355 1011 902 411 157 165 257 837 299 293 313 1508 1688 2407 2137 1822 2073 2284 2261 2453 2551 2223 2447 2634 2767 3052
0 1 49 11 0 0 0 0 0 0 0 0 0 32 256 30 3 15 380 940 1224 848 619 534 258 288 535 223 211 632 1894 2088 1960 1653 2285 2432 2524 2816 2342 2397 2757 2960 3421 3006
5 7 56 82 30 0 0 0 1 0 2 72 5 435 335 72 49 363 644 1059 1474 1345 1092 837 570 718 825 153 11 53 375 2015 1973 2084 1811 1948 2078 2366 2657 2586 1892 2473 3029 2591
0 35 50 0 89 62 46 1 2 3 1 0 8 657 609 352 338 503 838 1773 1519 1470 1302 1012 676 1542 1421 197 5 1 873 1629 1582 1385 1365 2075 2171 2441 2001 2717 2561 2664 2535 2610
0 11 20 1 6 2 16 7 0 0 0 36 36 13 25 597 305 291 1211 1729 1517 1492 1114 1060 1126 1142 1127 730 595 1164 1484 1949 2039 1505 1984 1806 2521 2418 2347 2509 2629 2496 2822 2603
0 0 0 0 2 0 4 9 14 18 0 0 0 0 711 209 83 67 27 1257 1181 1117 1137 1193 1229 1076 1432 1497 1320 1346 1744 1936 2031 2148 1474 1457 2246 2405 2047 2310 2353 2402 2521 2452
2 0 15 3 0 1 4 36 18 5 12 60 356 652 603 293 80 0 141 1124 1500 1303 1044 1008 1084 1186 1370 751 1053 917 1181 1175 1026 980 977 1071 1283 1605 1637 1557 1820 2093 2338 2174
91 55 23 12 23 14 116 130 5 2 139 78 138 10 688 542 706 1022 884 1151 1231 1188 887 830 971 893 641 685 561 398 487 373 302 288 308 291 319 267 367 622 622 934 1653 2107
5 28 120 127 56 59 203 180 102 73 83 62 141 176 294 85 777 752 822 761 914 807 718 598 564 423 365 221 177 194 178 130 112 94 54 67 129 134 78 166 316 393 1190 986
3 19 18 67 116 38 147 59 17 15 324 178 161 84 314 24 277 475 663 1066 764 793 550 359 352 293 205 271 382 432 235 31 8 101 42 72 81 51 36 66 82 145 195 269
66 31 2 75 74 164 122 23 0 19 408 124 101 273 1108 1066 1155 781 566 587 509 416 397 118 81 97 282 418 313 249 227 38 0 0 0 0 0 3 6 7 9 100 116 170
92 82 127 160 186 169 143 40 55 205 319 181 152 757 1196 1213 953 607 422 402 129 178 212 174 217 299 295 373 332 341 149 99 8 9 0 1 0 0 0 2 2 6 20 39
39 56 178 171 225 313 127 243 191 85 239 234 284 331 1045 1082 552 221 242 149 213 180 140 128 129 128 147 299 441 352 252 179 152 156 50 6 0 2 14 3 6 7 18 11
176 322 265 212 463 344 122 136 108 52 119 207 311 673 1227 1043 368 119 166 181 211 160 108 74 64 89 59 84 303 227 229 311 146 165 73 2 51 2 23 16 3 20 47 17
224 288 229 128 396 331 17 0 136 256 198 250 339 879 1168 601 248 191 265 313 264 212 172 142 134 124 106 91 90 163 153 261 184 60 63 27 39 0 17 4 19 1 8 51
13 223 281 193 606 444 272 433 329 295 342 371 392 1042 1037 751 292 172 239 232 184 113 47 12 0 3 2 46 84 116 54 81 122 122 71 11 10 0 0 0 0 0 0 0